GFSMA_850_rhum_000.txt.gz
RH
82 92 100 100 95 87 87 85 83 76 62 43 37 39 40 40 44 61 75 71 50 50 59 64 71 74 76 84 88 87 85 79 77 64 69 70 70 74 81 86 81 66 67
96 97 95 93 89 84 82 74 51 41 38 38 37 35 32 34 41 45 50 43 43 61 63 64 60 62 64 87 96 90 82 75 74 79 88 88 81 78 78 81 87 88 83
98 97 94 91 85 61 38 39 37 38 34 29 25 22 22 25 29 30 38 57 58 50 48 49 48 54 56 59 63 62 75 82 86 84 81 76 79 71 63 69 87 91 91
99 97 88 49 30 35 36 33 29 25 24 24 24 25 25 24 32 45 43 54 51 47 41 38 37 42 47 47 45 44 46 49 54 57 58 68 65 68 62 61 55 56 76
87 54 31 34 31 27 25 24 24 26 27 26 26 24 23 34 34 26 39 33 25 20 25 28 33 36 35 28 25 27 26 30 51 70 74 56 60 70 80 81 71 70 73
30 34 32 30 33 33 28 27 27 28 24 22 22 20 18 30 18 39 11 13 7 9 15 8 6 6 5 6 9 9 8 30 59 69 53 86 93 95 93 95 95 93 90
35 34 35 41 41 40 33 30 28 25 22 19 18 17 13 11 20 32 8 10 7 8 5 5 4 4 4 4 6 16 25 38 62 74 77 79 85 87 87 85 88 87 88
37 41 46 50 48 42 33 28 25 21 19 15 15 16 20 14 24 11 21 10 16 12 7 6 5 6 6 12 18 15 5 17 35 61 76 75 77 80 78 83 86 82 91
45 50 52 51 46 36 30 24 21 18 17 16 12 16 34 42 29 24 14 21 14 14 10 10 10 16 17 18 9 8 19 39 53 68 78 82 80 79 79 78 76 80 86
51 53 52 50 41 32 26 21 16 16 16 14 9 13 20 28 39 37 25 14 25 16 13 13 16 22 22 17 17 37 47 44 58 69 77 79 78 75 72 73 84 72 77
52 52 50 47 38 30 24 20 19 17 12 10 14 17 19 21 26 39 44 39 27 18 15 24 25 23 22 34 42 48 44 39 72 76 78 76 74 75 77 83 69 74 78
52 50 48 44 35 28 25 22 17 10 9 14 19 21 23 25 27 31 39 44 45 39 44 39 32 32 44 48 46 43 48 76 76 74 73 74 77 76 75 71 69 67 69
50 49 48 42 33 28 22 15 9 9 13 17 20 20 19 20 25 31 34 32 38 45 50 47 44 54 52 51 51 56 59 57 64 72 71 74 76 75 76 72 69 72 82
50 50 47 39 32 25 14 8 9 13 18 19 17 15 17 18 23 28 32 32 46 50 52 56 57 57 55 61 64 64 61 64 69 68 72 74 75 76 77 74 69 75 79
52 52 48 39 28 14 8 9 14 19 18 16 14 17 20 24 29 30 32 34 54 74 70 61 60 63 68 66 61 63 68 71 77 79 79 78 78 82 80 77 81 72 86
55 53 45 33 17 9 9 17 21 18 17 16 20 24 28 36 39 35 32 38 54 66 76 68 73 72 70 69 65 73 82 87 86 81 80 75 73 74 87 80 79 92 89
56 50 37 20 10 10 20 22 19 19 21 21 24 36 44 51 50 42 51 73 78 78 79 73 74 70 76 72 70 88 91 87 90 76 76 76 78 82 87 82 76 73 73
53 40 21 11 13 23 23 20 22 23 23 26 38 52 59 60 53 52 70 83 83 81 86 94 76 78 74 80 98 91 73 69 75 74 80 81 75 73 72 73 76 76 91
42 22 13 17 25 24 22 24 25 25 26 36 55 61 62 61 60 64 81 83 96 98 96 94 85 80 74 100 94 69 74 71 61 69 80 81 83 83 86 90 97 94 83
26 15 20 28 28 25 27 27 25 24 34 50 58 59 61 67 68 86 85 95 88 74 78 85 97 90 98 90 85 82 74 75 76 92 95 93 91 90 91 85 84 86 89
17 22 30 31 29 30 31 27 30 47 52 53 56 60 68 75 79 88 88 91 93 96 97 99 89 98 97 83 88 87 94 88 96 97 82 81 93 90 86 86 88 92 95
20 30 34 34 34 34 30 27 41 53 54 59 64 72 75 76 79 88 88 87 91 97 93 99 96 86 93 95 90 99 98 97 89 85 91 94 98 89 89 91 94 94 91
28 36 38 37 37 33 28 30 50 61 66 70 74 77 82 81 87 81 81 95 94 95 96 93 85 89 100 94 98 100 98 100 99 94 92 100 89 98 81 79 90 96 95
36 39 40 39 35 30 29 30 45 65 68 70 76 81 85 82 67 90 93 96 96 84 64 77 94 96 98 96 96 99 97 98 98 89 93 99 91 89 76 80 74 72 99
37 41 41 37 31 29 32 39 87 81 81 75 73 76 79 63 91 91 97 96 91 78 69 98 100 95 91 95 99 96 95 100 98 97 75 99 89 95 91 84 69 74 98
41 43 40 31 29 28 35 50 93 92 86 80 82 83 74 91 97 96 97 93 81 78 98 97 76 67 70 78 100 100 97 99 100 100 76 98 96 98 98 90 84 91 82

GFSMA_850_rhum_003.txt.gz
RH
89 86 96 97 95 92 84 84 83 76 50 34 33 36 36 33 31 35 43 51 55 48 48 53 63 73 72 74 88 95 95 90 85 83 85 83 86 88 87 79 78 78 88
99 98 97 91 89 88 81 68 44 36 36 37 34 28 22 21 23 27 32 40 49 51 52 51 54 55 61 65 67 82 87 81 77 71 71 74 73 73 81 86 82 79 87
98 96 92 89 86 66 35 34 36 35 28 23 21 20 23 25 26 29 40 48 51 50 46 42 40 43 47 48 52 54 56 60 63 72 72 69 65 63 64 67 62 56 55
98 97 90 65 31 34 31 26 23 20 20 20 20 22 23 25 28 38 42 43 42 38 33 34 34 34 35 38 38 38 37 40 36 44 61 49 49 49 57 61 63 64 68
92 83 34 32 31 30 31 30 26 26 25 22 21 19 20 24 38 24 24 19 19 12 14 20 15 10 10 11 10 8 11 24 62 68 67 66 72 58 55 54 61 68 75
35 32 33 34 37 41 38 32 28 27 24 22 21 18 16 26 30 17 25 11 13 7 13 6 5 5 4 4 4 5 6 7 14 43 60 70 82 84 89 89 88 86 88
34 36 38 45 47 43 32 30 27 25 22 22 20 18 12 14 10 24 23 10 8 7 12 5 6 5 4 5 5 6 10 10 49 38 62 78 88 89 87 86 85 84 86
37 44 49 49 47 39 31 27 24 21 20 18 17 15 13 13 16 26 11 14 10 10 6 6 5 5 6 6 7 7 7 7 41 71 77 83 88 89 88 86 82 81 84
46 51 52 51 47 36 28 25 21 19 18 16 13 17 19 26 18 16 12 12 11 8 7 6 6 7 10 12 10 10 11 23 58 77 89 90 88 86 84 82 80 78 76
50 52 52 50 46 35 28 26 23 21 16 12 13 15 19 23 25 28 17 10 12 10 9 8 8 10 12 13 17 24 28 40 70 83 82 82 81 83 82 81 79 77 79
52 52 50 50 46 36 30 27 23 17 11 13 17 19 18 17 19 33 35 19 11 11 12 13 13 10 12 18 33 45 44 43 64 70 78 80 81 82 82 82 81 80 78
52 51 49 50 45 36 30 26 16 10 12 16 18 19 19 22 26 31 40 38 37 27 22 15 17 18 19 43 49 50 49 61 75 71 74 80 83 83 81 80 79 77 78
52 49 50 50 44 36 26 16 10 10 14 18 18 16 15 18 23 26 32 32 43 35 39 45 45 51 49 40 51 50 56 70 69 72 77 80 82 82 82 80 79 78 76
50 50 52 50 42 29 17 10 9 14 18 17 16 16 20 23 29 35 44 46 45 48 46 56 44 51 58 62 66 66 66 67 72 76 78 81 82 82 80 78 77 77 85
50 53 54 47 34 19 11 10 15 19 16 17 19 20 22 28 32 35 36 37 58 88 80 74 75 78 78 74 72 78 75 73 77 82 84 83 81 86 79 76 75 73 72
54 56 53 43 26 13 11 17 21 18 19 20 20 22 25 33 36 38 41 43 58 84 97 74 83 85 84 88 73 76 75 88 89 92 85 82 75 75 76 76 81 88 95
57 56 49 32 18 13 19 22 20 22 23 22 22 27 33 43 44 46 50 50 67 83 93 74 78 76 70 73 84 85 98 97 90 85 79 74 74 76 78 85 92 92 90
58 52 37 22 16 22 25 23 25 27 25 25 28 35 40 47 54 61 57 62 74 85 99 95 78 71 69 83 66 68 98 67 75 77 77 78 79 81 88 91 87 92 85
54 39 24 19 25 28 27 28 30 29 29 31 37 42 47 58 66 71 77 82 84 98 97 94 88 73 90 78 90 98 65 65 74 77 77 90 91 90 87 85 88 89 97
46 28 22 28 31 31 32 34 33 33 33 35 38 48 57 69 75 86 88 89 98 93 90 85 94 96 86 92 87 81 72 83 85 77 98 93 89 86 88 89 86 86 88
34 23 29 33 34 36 36 34 34 37 35 35 46 51 61 70 81 88 88 92 80 89 98 98 100 98 90 80 79 78 98 95 96 94 93 87 89 94 92 91 88 90 93
23 28 34 36 36 38 36 30 34 35 36 40 40 43 54 60 60 81 84 87 90 95 96 98 96 96 66 91 95 100 100 100 96 91 95 95 94 86 75 73 90 98 90
24 29 33 36 38 37 30 28 41 64 46 43 50 55 59 66 64 69 73 89 97 97 98 95 86 88 99 95 98 95 99 99 99 96 100 99 76 80 68 72 84 99 100
25 28 32 38 40 31 26 25 59 53 55 61 65 68 75 77 74 94 97 92 84 77 68 78 97 95 98 97 98 99 98 98 96 91 99 98 86 88 82 80 69 73 100
23 27 38 42 32 25 23 26 56 65 74 77 73 81 90 96 88 98 97 97 88 78 70 91 100 98 93 96 100 97 94 99 100 99 91 100 85 98 97 87 79 87 100
25 40 44 34 24 23 25 30 78 90 91 82 95 90 83 97 96 96 93 97 92 76 98 97 79 70 71 77 99 98 97 97 100 100 93 97 95 100 97 91 84 90 89

GFSMA_850_rhum_006.txt.gz
RH
86 88 98 98 94 89 90 87 83 59 42 36 36 36 33 28 24 22 24 31 40 46 52 65 73 73 71 82 93 96 93 92 87 83 80 78 80 78 76 75 78 78 80
98 100 98 94 86 86 88 65 35 33 34 33 28 23 21 21 23 26 31 41 48 50 48 48 49 51 53 58 65 70 76 81 78 72 69 70 63 57 52 57 69 77 78
97 95 90 87 90 66 33 33 30 27 23 20 18 19 21 24 25 31 39 43 46 47 46 45 42 39 40 41 43 48 49 52 52 51 55 55 53 55 60 57 57 62 69
96 94 93 86 34 32 31 29 26 23 20 19 18 18 18 19 24 33 34 34 37 36 29 26 29 28 26 24 25 28 29 32 33 35 40 44 44 45 52 57 56 56 60
92 90 74 32 33 35 36 32 25 23 22 20 19 17 16 18 24 35 26 17 13 14 8 14 12 7 7 6 5 5 6 7 7 19 43 50 43 65 65 68 70 59 57
86 36 33 36 41 40 33 25 23 24 23 22 20 18 14 15 27 37 21 25 13 13 8 11 11 6 6 5 5 5 5 6 7 48 46 66 81 88 93 93 91 91 88
32 36 39 45 45 39 29 22 23 24 24 24 21 17 13 12 14 11 22 30 12 13 8 7 6 5 5 5 5 6 8 8 12 79 67 83 81 90 92 92 92 90 88
37 41 48 49 46 41 33 25 24 26 26 22 16 15 14 13 14 17 10 12 10 9 9 7 7 6 5 5 5 6 7 7 16 48 83 87 91 91 90 90 90 88 87
41 50 51 51 48 45 39 30 27 27 24 16 13 17 17 20 18 15 12 12 12 10 10 9 9 8 7 7 6 6 7 9 21 72 84 89 87 88 87 88 88 87 85
49 51 52 51 51 49 43 35 29 24 16 13 14 16 18 21 21 23 17 13 13 12 11 11 10 9 8 8 8 8 13 25 65 72 76 83 84 85 86 86 86 84 85
51 52 52 52 53 51 46 37 26 18 12 13 16 18 16 15 16 30 24 17 14 14 14 13 12 12 11 11 13 30 40 64 69 73 80 82 84 84 84 85 83 87 84
51 52 51 52 54 52 46 35 22 14 12 14 18 18 17 19 20 28 36 31 35 26 16 16 15 16 17 21 26 27 43 71 71 80 82 82 84 85 84 86 83 83 86
51 51 50 53 54 51 42 28 17 12 13 17 16 16 18 21 24 28 35 34 39 27 31 35 31 28 29 37 34 44 58 77 80 80 82 84 85 84 83 85 83 86 82
50 50 52 54 54 48 35 22 14 14 18 18 18 21 21 23 26 33 39 45 42 45 42 52 50 56 63 64 78 82 77 75 78 82 83 84 84 88 89 85 85 83 85
49 50 54 55 52 41 29 18 15 19 19 20 23 23 23 25 29 33 39 43 53 72 63 67 73 65 72 76 74 80 75 74 83 81 83 86 96 89 84 84 80 79 79
50 54 56 55 46 32 20 18 22 22 22 25 26 26 25 27 30 37 44 51 56 60 90 62 66 77 81 69 63 77 77 86 86 90 94 89 78 75 76 78 78 79 79
53 57 58 51 39 25 21 24 25 26 28 29 29 29 28 33 36 46 58 66 73 76 85 64 70 71 67 60 73 76 87 100 96 94 92 78 77 80 80 81 85 85 94
57 60 56 45 30 24 26 28 29 31 33 33 31 30 30 38 44 54 72 78 88 82 93 91 83 70 60 74 76 78 83 81 73 72 84 83 83 82 87 92 95 94 96
61 60 50 34 26 27 29 32 34 35 34 32 31 32 36 39 47 62 75 87 88 97 99 96 86 76 81 90 95 87 70 79 82 87 88 88 92 92 92 93 88 92 95
62 52 37 28 28 30 33 35 36 35 31 30 33 30 30 37 48 79 90 91 91 83 79 88 89 88 100 96 86 81 84 92 97 100 94 99 97 94 94 93 93 91 92
54 40 29 28 30 31 33 37 34 33 33 38 34 34 43 51 59 89 91 86 90 93 97 97 95 93 94 86 85 86 100 100 100 99 95 91 92 96 90 91 86 94 99
42 30 27 26 27 30 37 35 28 43 46 44 44 56 61 64 66 76 69 92 100 98 93 92 99 96 94 85 86 100 100 100 96 97 96 91 97 95 85 76 80 100 98
33 27 24 24 26 38 37 27 23 41 55 57 64 68 72 74 66 72 78 90 97 86 88 91 85 88 98 96 99 96 99 99 100 100 100 93 81 82 74 69 73 98 100
28 21 18 24 36 38 27 21 22 38 64 74 74 76 87 73 87 96 97 98 83 76 72 77 95 95 98 98 99 100 99 99 96 90 100 97 85 90 84 83 76 95 100
20 14 22 37 39 27 21 18 23 70 84 83 80 87 82 95 91 98 96 98 94 75 70 90 100 93 84 86 98 97 93 98 99 94 85 100 93 100 90 81 79 89 98
13 21 37 38 26 21 18 24 66 96 95 86 97 88 86 98 96 100 96 98 92 75 97 96 78 72 69 71 82 94 99 98 100 98 81 98 94 100 96 90 82 78 79

GFSMA_850_rhum_009.txt.gz
RH
82 89 98 98 93 90 88 88 81 52 34 34 32 28 23 21 20 20 22 27 37 44 52 62 61 67 76 78 88 94 91 90 90 88 83 78 73 71 76 75 71 70 73
98 100 96 93 88 85 86 60 32 32 28 25 21 19 17 18 20 24 30 38 45 48 48 47 47 47 49 52 59 62 64 68 74 76 73 70 64 62 60 58 54 49 50
95 94 93 87 88 77 33 31 30 28 25 22 19 18 18 19 21 29 35 40 42 42 42 42 43 42 40 39 38 41 42 46 48 50 52 55 54 53 52 51 51 51 51
95 91 89 90 61 31 33 33 31 26 20 18 17 18 16 16 22 30 29 26 26 26 22 16 16 18 16 14 13 13 13 18 23 26 26 29 38 42 45 49 49 50 54
90 90 90 53 33 35 36 30 21 18 18 18 18 17 16 15 22 33 34 27 20 14 14 11 9 12 10 6 5 5 5 6 6 6 8 41 41 45 60 74 82 74 71
90 88 43 35 39 40 32 24 19 20 20 19 17 15 14 13 20 34 43 24 19 26 14 12 9 8 6 6 5 4 4 4 5 6 35 84 75 88 91 93 93 93 91
88 34 37 43 45 40 36 30 24 21 19 17 15 12 12 12 14 20 20 18 11 19 12 10 9 9 9 8 7 6 6 5 5 5 63 82 86 90 90 89 90 89 90
41 38 45 49 48 46 44 40 34 26 21 18 16 14 13 13 17 12 11 11 11 11 12 12 11 10 10 10 9 8 7 6 6 12 74 81 86 88 88 88 87 87 88
38 42 50 50 50 50 50 47 42 32 23 17 15 14 18 22 15 12 13 13 14 14 14 14 13 13 12 12 11 10 10 9 8 46 75 83 86 86 85 85 84 84 85
42 49 51 51 52 53 53 51 44 35 23 17 14 14 15 16 23 30 20 20 17 17 17 16 16 15 15 14 14 13 12 12 40 73 81 84 86 85 84 85 82 82 80
46 51 51 51 53 54 54 52 44 31 21 15 15 16 15 16 18 24 31 22 22 21 21 20 19 17 16 16 16 18 22 22 70 80 85 85 86 88 86 84 84 81 84
49 51 51 51 54 55 55 52 42 28 18 15 17 17 18 21 22 27 45 43 45 38 26 24 20 20 20 20 24 19 21 42 83 87 88 87 86 87 89 90 98 93 98
49 51 51 51 54 56 55 50 38 24 17 18 18 19 21 22 23 25 31 43 54 48 50 51 40 43 36 32 38 30 48 81 82 85 87 86 87 87 87 90 87 94 99
49 50 50 52 55 56 54 46 31 21 20 20 21 23 25 26 28 29 36 46 50 48 46 47 57 53 61 73 83 90 83 85 83 86 84 83 83 82 82 93 97 98 96
48 50 50 54 57 55 50 39 26 22 22 24 26 28 30 30 30 32 36 37 53 62 57 54 68 70 84 90 88 84 86 89 86 84 80 81 82 89 97 93 80 81 80
48 49 52 56 56 53 45 32 25 25 26 29 32 33 33 32 31 32 35 42 54 74 82 62 69 86 90 89 88 83 76 68 80 90 92 89 93 84 80 78 79 78 81
48 51 55 57 55 48 36 28 27 29 32 34 35 34 31 29 26 25 33 46 60 74 90 65 86 79 89 89 84 92 98 99 98 95 89 89 90 86 87 91 91 90 88
50 54 58 57 51 40 30 28 31 33 34 35 34 30 25 22 19 24 33 44 63 77 90 92 86 88 82 91 96 100 100 93 87 87 91 89 88 89 91 92 96 96 98
54 58 58 52 44 34 28 31 32 32 35 34 31 26 25 25 30 36 45 63 86 96 99 99 87 81 98 100 99 90 85 77 82 90 93 95 97 97 98 95 95 95 93
58 59 55 48 38 29 28 28 32 36 34 28 25 30 33 42 47 56 86 98 97 92 94 95 98 97 94 84 85 83 85 87 94 96 94 99 98 96 97 96 98 97 95
59 56 49 40 30 25 23 29 37 33 27 23 29 36 46 54 64 90 95 95 96 95 98 97 99 96 91 85 86 90 99 99 98 97 92 94 91 96 92 97 98 100 100
57 50 43 31 22 19 28 37 31 24 23 34 41 42 58 68 81 91 92 98 100 98 95 98 100 91 83 92 95 100 100 100 100 93 97 96 89 90 90 89 98 100 100
53 45 31 21 16 29 38 30 21 19 26 36 47 65 79 87 75 84 83 99 98 94 88 88 90 91 97 100 98 93 95 98 100 93 100 100 86 97 89 84 92 100 100
45 31 20 16 30 38 28 19 17 19 27 51 71 76 87 82 93 98 98 100 92 82 92 91 99 95 98 98 100 100 96 95 93 82 100 99 83 97 92 81 76 90 100
34 18 17 35 38 26 17 16 18 27 57 76 74 86 91 100 100 93 96 93 97 94 72 92 100 100 81 82 91 100 99 100 98 90 86 100 98 100 96 74 76 91 100
16 22 39 36 22 16 16 17 26 74 93 92 100 100 94 100 95 99 94 96 100 76 98 100 82 73 71 69 74 92 97 98 100 98 86 98 100 100 96 85 82 80 94

GFSMA_850_rhum_012.txt.gz
RH
80 93 84 86 89 88 87 84 82 45 31 30 26 22 19 18 18 24 44 31 38 44 50 53 63 60 61 69 75 73 76 80 85 87 86 84 80 74 69 67 70 74 73
96 87 92 93 90 86 85 66 31 30 28 25 22 18 16 17 19 24 36 34 42 46 47 47 46 45 44 45 47 48 51 53 57 62 67 68 66 65 65 65 63 59 56
90 92 92 90 87 87 44 31 32 30 25 19 17 17 16 17 20 26 33 38 39 39 38 37 34 32 33 33 32 32 34 32 37 41 43 48 54 58 57 57 57 56 55
90 90 87 86 87 39 33 33 28 20 16 16 17 17 17 17 22 27 28 27 25 20 19 16 12 9 9 10 9 7 6 5 6 6 7 8 13 39 28 29 39 44 44
90 89 87 89 43 35 36 28 21 16 14 15 16 16 15 22 30 31 33 30 28 25 21 18 13 10 8 8 7 6 6 5 4 4 4 4 8 31 31 48 79 85 85
88 89 87 52 36 41 35 32 28 24 19 15 14 14 14 19 23 34 39 39 16 14 17 20 14 10 11 10 10 9 8 8 7 7 7 7 56 90 86 84 89 90 91
86 88 54 36 44 43 42 41 38 34 26 18 15 24 19 13 19 43 24 16 14 12 11 13 13 12 12 12 11 11 10 10 9 9 10 18 79 90 90 89 88 87 86
86 75 36 44 48 47 48 48 46 40 32 22 16 23 26 26 29 20 17 13 14 14 15 15 15 15 15 14 13 13 12 12 11 11 24 74 82 86 88 87 86 85 86
71 37 42 49 49 50 51 52 51 46 34 24 17 19 24 23 24 21 24 18 20 18 18 18 17 17 16 15 14 13 12 12 12 15 46 84 88 89 88 87 85 84 82
43 40 48 49 50 52 53 54 53 48 37 23 22 16 15 17 26 27 30 31 30 33 34 30 22 18 17 15 12 11 11 11 10 17 81 89 89 89 88 86 84 84 88
40 44 50 50 51 53 54 55 54 47 37 24 19 17 18 27 36 42 35 32 36 39 42 44 41 36 40 41 41 43 24 13 61 87 90 90 90 88 86 82 82 82 87
42 48 50 50 51 53 55 56 54 48 34 23 19 18 20 31 36 40 40 39 42 41 42 44 44 43 44 44 54 58 31 45 88 87 91 90 88 86 84 84 81 86 97
43 48 50 50 51 54 56 56 53 43 29 22 20 22 24 27 32 43 48 46 45 45 40 41 39 42 49 58 59 56 35 53 81 85 88 88 88 86 84 82 82 85 80
44 49 50 49 52 54 56 55 50 38 27 23 23 26 29 32 36 42 52 55 50 42 38 34 38 45 55 56 69 78 77 79 82 85 84 84 83 83 83 82 81 91 96
46 48 48 49 52 55 55 54 45 33 26 26 29 32 35 38 37 45 53 59 57 52 44 41 42 47 57 65 69 75 77 78 82 89 91 89 89 90 90 92 89 89 85
45 46 48 50 54 55 55 50 38 30 28 31 33 35 36 38 37 40 55 61 62 60 58 48 51 56 64 68 72 75 74 82 83 87 89 89 88 87 90 85 87 83 84
43 46 48 52 54 55 52 43 33 29 29 30 34 36 34 31 30 46 56 60 63 65 65 58 61 66 72 74 72 75 78 82 81 80 80 83 88 90 93 95 96 95 92
44 47 51 54 56 54 46 37 30 28 26 30 35 35 32 37 32 48 59 63 69 72 73 76 73 75 75 79 83 82 78 70 69 69 78 87 94 95 95 96 94 95 96
46 50 54 56 55 48 39 30 25 23 28 36 36 32 34 35 48 59 64 74 79 78 80 81 78 75 86 91 87 77 72 69 72 78 81 86 90 95 98 98 96 94 94
50 54 56 56 51 42 30 23 22 29 40 39 34 40 49 50 69 75 81 81 77 79 77 81 86 97 92 83 76 67 70 77 84 86 84 93 92 93 94 91 93 96 98
54 56 56 53 44 30 21 20 33 40 48 54 54 66 66 66 49 71 96 91 88 87 89 90 98 94 87 73 66 74 87 91 88 92 84 87 81 84 89 92 93 94 94
56 56 53 44 31 20 19 32 34 26 42 66 69 63 73 87 90 96 94 94 94 95 96 100 98 90 73 70 78 89 100 99 96 87 88 86 92 90 90 89 90 94 96
57 54 43 31 18 22 34 32 21 15 51 57 67 79 84 82 93 90 95 95 95 97 100 93 90 76 81 87 89 94 95 98 97 88 97 91 87 90 88 86 92 98 100
55 41 30 17 27 36 29 17 13 19 48 74 84 87 86 88 89 95 98 95 98 90 81 83 86 90 93 94 97 98 95 95 92 96 95 96 83 91 88 77 74 76 100
40 26 18 33 36 25 15 14 14 28 74 80 82 82 88 91 95 92 98 92 87 78 81 91 99 100 98 100 100 99 95 98 98 97 96 94 89 96 90 72 73 76 92
22 24 38 34 21 14 14 15 16 62 79 77 78 82 89 94 90 97 96 90 87 86 93 96 93 93 94 97 100 100 96 98 100 98 88 97 100 100 96 84 78 65 70

GFSMA_850_rhum_015.txt.gz
RH
77 87 94 87 84 82 78 78 79 45 30 28 25 22 21 19 29 38 46 29 33 39 41 47 50 52 53 57 62 61 63 62 65 69 74 76 76 75 76 73 68 64 62
91 94 80 81 85 83 80 81 34 30 27 22 19 20 20 26 23 32 49 30 36 39 42 43 44 43 43 44 43 43 43 42 43 46 49 52 55 57 57 58 59 58 58
99 82 86 88 87 85 80 31 31 26 17 14 21 22 20 22 29 37 40 47 37 36 37 35 31 26 21 14 10 9 9 8 8 9 11 14 18 25 32 37 40 43 44
83 87 89 84 85 82 32 31 26 19 15 14 14 20 26 23 31 35 35 37 32 27 20 18 14 12 12 10 8 8 7 7 6 6 5 4 4 4 8 12 8 8 11
82 83 82 83 86 38 34 31 29 25 21 16 13 15 15 23 36 33 38 35 31 32 24 14 15 19 17 13 11 10 10 9 9 9 8 8 7 6 19 91 69 37 65
84 84 86 87 62 35 38 37 37 35 30 23 15 20 19 27 36 39 41 39 33 18 20 14 12 14 14 12 12 12 11 10 10 10 10 11 12 12 59 92 93 93 92
89 87 86 81 35 42 42 44 45 43 38 30 20 22 32 20 32 49 48 26 30 26 20 24 17 16 15 15 14 12 12 12 11 11 12 21 44 74 87 88 89 89 88
90 85 84 38 42 46 47 48 49 48 44 36 23 27 30 28 32 30 30 29 29 23 25 23 20 19 18 16 15 13 12 10 8 9 11 20 46 94 93 91 89 88 88
92 83 58 37 47 48 50 51 52 52 47 40 28 19 27 27 23 23 25 29 28 31 27 29 28 24 22 20 18 17 14 9 8 8 12 31 83 90 91 90 89 87 87
90 72 39 43 49 50 51 53 54 54 51 41 31 24 18 18 31 30 28 32 31 29 35 35 31 23 21 25 22 21 19 14 9 8 35 90 94 93 92 90 88 86 85
83 52 42 47 49 51 52 53 55 55 53 42 30 22 22 30 36 39 40 36 36 37 39 41 42 42 38 36 41 42 61 72 77 89 90 93 92 90 89 87 86 84 80
61 45 44 48 50 51 52 54 55 56 52 42 30 23 22 26 32 42 42 41 43 40 41 39 39 35 39 41 43 54 64 74 82 92 92 94 93 91 91 88 87 90 84
54 45 45 49 50 51 52 55 56 56 51 38 28 24 24 28 35 42 49 49 49 43 43 39 35 35 36 40 47 57 56 79 81 86 89 91 90 90 88 88 86 86 85
55 45 46 49 49 51 53 55 57 55 46 35 28 26 28 32 38 43 50 55 57 53 46 40 36 35 41 45 50 63 68 72 77 83 85 87 88 88 88 87 92 89 87
54 44 47 48 49 51 54 56 56 51 41 32 30 32 36 36 39 43 47 52 60 61 55 46 42 42 45 50 56 65 69 71 76 81 83 84 86 86 86 86 87 88 93
46 45 47 47 49 52 55 56 54 47 36 33 36 32 32 35 39 39 44 54 56 59 62 55 55 55 55 61 67 70 71 77 79 77 80 84 84 85 86 87 89 92 94
43 46 46 47 50 54 56 55 48 40 33 32 33 35 34 37 38 41 41 48 55 60 64 64 67 69 70 72 71 76 81 70 76 73 74 77 82 87 90 92 95 97 95
44 43 45 48 52 56 56 51 42 34 30 28 32 41 42 53 46 46 51 56 59 63 70 74 76 77 76 71 81 88 85 75 72 66 73 81 86 88 90 91 95 97 95
42 43 47 51 55 58 55 46 34 25 24 35 44 51 52 54 55 57 62 68 73 77 77 77 79 78 78 87 94 87 74 71 66 72 77 84 88 90 95 93 91 91 92
42 46 51 55 58 57 51 36 24 20 34 46 50 62 61 61 64 70 71 86 86 85 87 87 83 80 95 97 84 74 69 72 80 83 82 82 90 89 90 87 91 96 95
46 51 55 58 60 54 38 24 18 31 35 46 51 57 61 65 69 87 95 93 92 88 87 84 93 100 97 85 80 74 80 89 74 98 84 75 88 76 77 90 92 95 96
51 55 58 59 53 37 26 19 33 29 20 34 51 50 61 70 78 84 90 91 91 91 96 95 99 98 94 83 79 90 83 98 100 77 95 73 88 85 83 86 91 93 94
55 58 59 51 36 20 24 34 24 14 15 38 50 67 79 77 83 87 88 90 85 96 100 94 95 88 86 82 78 88 99 98 98 76 90 80 82 82 78 79 92 96 99
60 60 48 35 20 33 33 19 13 14 22 49 70 77 78 79 84 90 84 93 86 83 82 82 84 89 85 91 98 98 98 88 84 82 100 96 83 81 88 80 61 62 68
60 45 27 25 36 29 18 14 15 15 36 67 72 72 76 82 86 87 95 91 91 87 82 85 92 98 98 95 95 94 84 97 95 94 98 100 93 89 84 65 61 70 83
41 22 34 36 26 16 16 16 16 23 67 77 77 78 79 85 87 90 96 95 90 86 86 89 90 90 91 90 95 94 97 96 97 100 87 96 97 99 96 84 76 63 58

GFSMA_850_rhum_018.txt.gz
RH
48 62 90 95 91 77 72 72 73 47 29 25 21 17 16 16 22 30 33 34 28 33 39 42 46 45 45 45 44 43 43 44 45 46 48 51 55 59 61 62 64 65 64
68 91 92 84 75 74 76 76 47 28 25 16 13 14 16 18 19 28 37 31 30 35 37 38 38 37 35 31 26 19 13 10 10 10 12 18 28 37 43 46 48 52 54
87 90 87 80 81 82 78 53 29 25 17 13 12 15 16 18 20 28 32 33 28 30 32 31 23 17 14 11 10 10 9 8 7 7 6 6 5 4 4 5 7 10 16
92 93 83 87 86 84 71 30 29 25 22 17 13 12 14 16 22 30 32 32 30 26 23 26 22 15 15 17 17 15 12 10 10 10 9 9 8 8 6 6 12 16 10
94 80 83 87 84 81 33 34 32 33 30 25 19 14 14 15 29 29 30 28 25 29 29 18 14 12 12 13 12 12 12 11 11 11 10 10 10 10 10 11 62 94 88
84 86 82 83 84 58 36 37 39 40 38 32 23 18 18 17 28 28 35 38 32 25 21 17 14 15 16 15 14 14 13 12 12 11 12 15 18 19 25 30 87 95 94
80 86 82 84 85 34 41 42 45 45 44 39 27 19 25 26 24 28 46 44 25 25 21 18 17 19 19 18 17 16 14 13 11 10 10 10 12 23 84 89 94 93 92
79 82 77 81 62 39 44 47 48 48 48 45 34 23 25 27 32 28 24 27 29 27 24 25 22 22 21 20 19 16 14 13 10 8 10 16 34 77 87 94 93 92 91
84 88 80 80 37 44 47 49 51 51 51 49 42 28 21 26 24 21 24 24 26 30 30 28 26 27 26 24 20 20 18 17 12 15 30 69 83 92 94 94 93 92 89
96 92 83 65 36 46 49 51 52 53 54 53 47 34 24 20 18 20 24 26 26 30 29 27 29 27 27 25 24 24 22 24 26 69 80 89 94 94 93 92 90 89 88
99 89 80 51 42 47 50 51 52 54 55 55 48 36 26 23 24 34 34 29 27 26 26 29 31 36 32 32 32 30 28 29 38 70 86 93 93 92 91 93 93 97 98
92 82 72 46 46 48 50 52 53 55 56 56 49 37 28 25 26 32 36 30 31 26 30 28 25 32 36 37 37 39 40 61 74 84 87 88 89 88 94 92 92 89 90
87 83 73 48 47 48 50 52 53 56 57 56 48 36 28 26 28 32 38 37 39 32 30 25 28 29 34 35 36 40 45 63 70 78 83 86 89 89 88 88 88 89 90
88 80 67 48 48 49 50 52 54 56 58 55 47 35 29 28 30 33 39 48 49 46 34 32 25 25 41 42 44 46 46 50 70 79 84 86 87 86 87 84 84 87 90
86 78 57 46 48 49 50 52 55 57 58 52 42 33 30 28 28 34 42 47 54 64 60 42 46 41 35 33 34 44 54 60 76 84 86 84 83 86 84 84 84 86 87
88 61 52 47 48 49 51 54 57 58 56 46 36 31 27 25 29 38 40 39 39 50 59 48 48 52 60 66 60 72 70 72 76 83 82 84 84 84 84 86 89 95 97
63 54 48 47 48 48 51 55 58 58 52 41 30 26 24 32 40 40 38 33 36 50 60 56 62 74 78 79 79 72 69 87 80 79 80 83 79 84 87 89 94 94 96
58 50 46 46 47 50 54 57 58 54 43 30 23 25 35 45 45 40 37 45 58 61 71 80 84 84 86 78 67 78 91 80 67 74 78 79 86 89 91 92 93 96 96
51 46 45 45 48 53 57 58 56 43 29 21 27 40 45 48 39 41 52 58 62 64 80 88 85 81 73 72 86 82 78 69 77 71 80 83 88 95 95 94 92 90 92
46 43 44 47 52 56 60 58 43 29 19 27 34 37 43 48 55 64 68 72 84 90 96 92 87 92 93 89 96 86 79 80 71 70 70 59 92 56 79 90 94 96 100
43 44 47 52 56 61 60 42 27 20 31 30 21 20 36 53 61 68 89 89 93 97 92 98 100 98 99 84 94 88 86 79 70 75 94 63 71 61 60 61 66 68 100
45 48 56 64 61 64 44 24 26 32 24 14 14 22 36 47 54 83 88 89 89 95 93 93 99 96 89 93 90 86 78 86 100 93 89 67 69 64 66 68 68 98 100
57 57 58 64 61 46 24 32 30 19 14 15 20 44 58 67 74 78 82 92 92 90 95 95 88 91 92 90 90 89 94 100 99 76 87 79 67 75 75 69 67 83 98
55 60 69 66 39 25 33 28 16 14 16 17 35 58 73 73 77 85 88 91 97 88 79 90 95 94 94 94 97 98 99 99 82 69 90 98 74 80 74 70 64 61 62
65 83 57 29 31 35 26 16 16 17 16 20 43 63 70 83 84 88 92 87 90 91 83 80 95 100 100 100 100 97 93 98 94 86 88 100 83 88 78 68 65 72 75
66 41 27 36 32 23 20 22 23 22 18 29 39 60 80 91 92 91 89 97 96 86 85 93 83 74 71 76 82 91 98 100 96 94 81 97 94 100 96 88 77 68 64

GFSMA_850_rhum_021.txt.gz
RH
50 44 69 83 74 79 67 66 72 65 29 25 18 12 12 16 15 21 26 31 30 34 40 43 42 41 40 39 36 33 28 22 19 19 20 24 30 38 45 51 56 60 63
47 63 82 93 91 81 72 75 75 31 26 17 11 10 12 16 16 20 26 31 28 30 32 34 34 32 24 18 15 11 10 10 9 8 7 7 6 6 7 11 21 32 40
67 71 82 92 83 68 76 76 41 28 21 17 13 11 12 16 19 21 28 27 26 25 24 23 21 20 17 14 15 16 15 14 13 11 10 10 9 9 8 6 6 7 17
86 86 89 90 75 79 82 67 30 27 25 23 19 14 13 14 20 24 28 28 24 23 23 24 19 12 12 11 12 13 13 12 12 11 11 10 10 10 10 10 10 13 75
87 90 89 87 80 84 81 35 32 33 33 31 25 18 16 14 20 27 27 29 28 27 24 18 14 13 14 15 15 15 14 14 14 13 13 13 12 12 12 14 27 38 86
90 93 92 82 84 83 70 34 36 40 39 36 28 21 18 20 21 27 29 28 31 21 21 18 16 16 18 19 19 17 16 16 22 15 17 15 29 44 50 52 64 77 94
90 92 83 83 82 83 46 38 41 43 43 41 34 22 22 23 24 28 31 36 36 26 23 22 24 23 21 22 22 20 17 15 19 19 16 34 53 72 77 82 91 94 94
88 91 80 81 80 81 36 42 45 46 46 46 41 27 22 26 25 27 27 30 31 28 26 27 27 25 23 23 23 22 18 17 16 18 24 69 73 77 93 94 94 93 92
93 87 81 80 78 68 39 45 48 48 49 49 47 40 26 21 21 20 22 25 24 26 27 28 29 26 26 25 24 21 21 23 22 61 88 94 93 94 94 93 92 91 90
99 90 89 83 77 50 41 47 49 50 50 51 51 48 38 27 20 19 21 23 26 27 26 27 24 25 26 28 28 26 29 28 37 78 86 91 93 93 92 91 89 95 98
100 95 94 85 65 40 44 48 49 50 51 52 54 52 44 31 24 24 24 22 22 22 21 21 24 23 22 25 30 33 36 36 53 71 78 89 90 90 88 90 93 93 98
99 98 94 85 56 42 45 49 50 50 52 54 56 54 46 32 26 26 29 26 26 20 23 24 23 19 22 25 35 38 41 47 71 78 78 83 86 86 87 87 89 89 91
97 98 90 83 52 45 48 50 50 51 53 56 57 54 46 32 28 29 32 31 32 27 28 23 21 20 22 26 36 41 45 46 52 74 76 84 87 87 87 85 84 86 85
96 92 88 72 51 47 50 51 50 51 54 56 58 54 42 31 28 29 31 37 40 40 34 26 23 23 30 35 32 32 29 32 35 72 83 87 90 88 86 84 85 82 82
95 88 81 63 50 51 52 51 50 52 55 58 58 51 37 29 27 26 31 39 47 58 52 33 35 29 28 32 37 49 60 59 82 84 87 91 92 88 87 86 85 85 96
97 80 73 60 53 52 51 50 51 53 57 58 56 43 31 28 25 30 38 39 39 44 54 38 36 39 39 42 56 63 67 58 58 66 96 92 88 89 89 87 90 88 95
88 72 73 69 60 50 50 51 53 56 58 58 47 32 26 25 31 39 40 36 34 38 50 48 48 49 60 59 52 57 60 67 68 57 88 91 90 89 89 91 92 92 96
73 76 73 54 51 50 50 52 55 58 59 49 32 24 25 39 41 43 40 35 40 47 55 62 65 70 70 66 66 74 74 72 64 61 83 87 89 94 95 97 97 97 92
84 85 55 50 50 48 50 54 58 59 49 33 23 26 37 42 38 37 40 46 50 60 69 80 89 87 81 70 89 90 73 73 71 70 76 63 69 67 99 96 98 97 96
77 54 60 52 47 50 54 58 61 53 32 22 30 32 30 28 33 44 52 58 73 86 92 96 97 89 81 88 93 83 79 82 73 68 72 67 80 61 59 60 68 68 71
67 63 49 46 50 54 60 70 48 31 24 30 25 16 16 27 42 49 62 86 90 89 93 97 90 88 100 93 83 88 88 79 76 76 81 91 73 58 56 60 62 60 68
52 55 48 50 56 64 66 43 27 28 29 20 15 16 19 28 37 52 77 86 89 91 97 91 94 99 88 82 89 94 88 89 100 89 96 88 60 60 60 65 64 83 91
53 50 56 60 63 63 42 27 32 28 18 16 16 17 22 39 64 70 77 88 91 95 96 97 90 86 96 92 91 91 96 100 99 80 85 90 62 64 66 71 66 61 61
77 78 66 64 55 34 28 32 26 16 17 17 15 15 31 57 69 83 90 96 98 90 85 84 87 92 96 94 98 99 97 99 90 77 79 100 82 78 72 71 64 58 61
83 64 62 37 30 34 31 23 17 18 19 14 12 25 48 63 66 93 95 94 88 89 85 77 77 97 100 97 93 100 92 97 89 83 73 92 83 85 84 69 64 66 69
66 48 30 36 34 27 21 19 20 19 16 19 35 49 61 86 95 94 95 97 96 90 82 90 88 77 73 72 78 87 95 99 97 99 76 99 92 92 100 83 83 73 65

GFSMA_850_rhum_024.txt.gz
RH
47 54 59 64 63 67 67 60 62 68 52 29 24 15 12 13 15 20 23 28 30 37 42 42 39 38 36 31 24 20 17 12 9 8 8 7 7 9 18 33 44 52 56
54 56 58 78 77 71 74 66 71 71 32 25 15 13 13 14 16 19 22 27 27 30 32 33 32 28 19 16 14 13 13 14 14 14 13 11 10 9 8 7 7 10 24
79 51 54 78 86 88 81 72 73 52 28 20 17 14 14 14 18 20 25 26 26 26 26 24 23 24 16 12 12 12 12 12 12 12 12 11 11 11 12 13 13 12 12
90 62 56 74 87 93 75 78 73 31 26 25 22 18 15 15 18 23 27 27 24 23 23 24 17 14 14 13 15 16 16 15 14 13 13 12 12 12 13 14 17 35 33
89 80 74 84 94 90 80 80 55 31 31 32 28 21 18 17 20 25 27 27 27 27 20 21 19 16 16 17 18 18 18 17 18 15 15 14 14 13 15 23 43 70 80
90 86 90 93 92 87 85 80 35 35 38 37 30 24 19 21 25 28 30 29 32 32 25 22 22 20 21 21 20 19 19 18 18 23 22 30 48 62 67 74 82 85 94
88 88 91 93 95 84 83 70 36 40 42 40 35 25 23 23 26 30 32 34 40 38 28 24 23 23 23 21 21 21 20 19 19 45 31 52 95 95 94 94 94 95 94
88 86 89 93 88 81 83 62 39 43 44 44 40 29 27 29 26 28 28 34 35 32 26 24 26 27 26 23 22 22 22 19 20 30 62 82 95 94 96 94 94 92 91
85 89 86 89 86 81 82 52 41 45 46 46 46 40 31 23 26 25 26 25 26 27 26 28 27 28 25 24 22 21 21 20 23 54 85 92 94 94 93 92 90 90 89
85 85 81 86 86 81 78 42 42 46 47 48 48 48 46 41 28 21 23 24 25 26 27 25 23 22 24 22 20 21 21 26 46 73 83 89 91 90 92 91 90 90 90
81 81 84 92 90 82 64 42 42 47 48 50 51 52 51 48 39 29 24 24 24 25 24 20 20 23 21 18 17 18 24 30 53 77 83 90 90 90 88 90 87 88 91
74 82 89 98 93 84 63 45 48 49 49 50 52 54 54 50 41 30 26 24 24 21 18 20 24 22 19 17 18 22 28 31 33 57 81 85 86 88 88 88 87 96 88
73 82 85 96 93 83 51 46 50 51 50 50 53 55 56 52 41 30 27 27 28 22 23 24 25 21 19 20 22 27 31 30 31 37 81 88 90 91 88 89 89 87 83
64 80 96 95 89 79 47 50 52 52 51 52 53 56 56 50 37 29 27 27 29 32 32 28 24 21 27 28 24 22 21 24 26 59 87 91 93 92 92 93 89 87 85
76 96 94 92 80 66 50 53 52 53 53 54 55 57 56 46 32 26 24 27 38 52 47 33 26 24 26 28 27 32 34 35 35 53 73 94 95 94 92 90 88 91 95
99 99 90 91 84 59 52 53 58 54 52 56 56 58 52 37 28 24 29 38 42 46 54 39 32 32 33 31 38 45 43 44 48 54 69 94 95 94 92 93 92 90 92
100 95 92 92 71 66 72 60 56 53 53 56 58 56 41 28 23 31 39 40 38 38 44 47 44 46 50 44 41 40 41 53 50 41 80 96 97 95 94 94 94 98 97
99 94 94 87 71 66 70 77 68 54 55 58 58 44 29 23 31 38 36 32 34 38 48 57 67 63 64 57 64 60 54 40 48 50 57 97 97 97 98 99 100 100 99
98 91 89 75 66 77 66 63 53 55 58 57 45 31 31 32 34 30 28 33 42 49 58 77 83 87 80 69 68 62 58 56 58 58 59 65 58 59 88 100 100 98 97
96 89 76 75 85 83 55 51 55 57 59 52 33 28 29 25 20 23 32 41 54 71 79 82 88 91 84 73 78 82 72 65 67 64 58 66 53 68 66 56 52 55 59
82 75 86 97 82 67 68 54 60 60 43 31 30 25 18 17 22 32 45 61 80 80 82 92 96 90 85 86 82 74 84 79 77 65 65 83 62 65 49 49 53 58 55
85 95 76 75 74 59 58 68 55 34 30 28 20 16 17 19 25 34 55 72 86 93 95 96 95 94 88 83 76 89 92 97 96 77 82 78 67 68 58 61 60 57 62
86 85 93 90 67 60 63 71 41 32 26 18 17 17 16 18 26 39 53 64 82 92 95 93 95 87 87 79 94 93 96 99 92 70 80 84 71 69 64 66 63 61 59
91 95 94 94 99 99 73 33 31 22 18 19 18 15 14 22 29 46 67 84 92 95 95 88 85 91 98 94 98 99 96 90 86 80 80 95 76 74 73 68 60 58 58
97 98 100 100 76 35 35 29 21 20 21 19 15 18 30 28 41 79 90 97 95 91 84 82 83 92 90 87 82 90 80 95 90 88 81 92 77 85 77 71 62 65 66
100 85 52 36 35 33 26 22 21 22 21 17 17 19 19 33 74 95 96 100 96 86 88 92 76 70 67 69 74 83 90 99 100 99 89 96 91 92 99 90 81 75 67

GFSMA_850_rhum_027.txt.gz
RH
53 58 60 63 57 49 59 63 62 63 66 46 28 20 13 12 14 18 22 27 34 48 43 38 38 36 33 27 19 16 14 12 11 12 12 12 10 8 7 8 16 32 47
45 60 63 65 62 68 74 71 64 68 69 34 24 15 13 13 15 18 21 26 27 31 34 32 30 26 21 19 16 14 12 12 12 12 11 11 11 11 10 10 9 8 8
44 65 70 68 71 78 79 80 70 73 63 29 20 17 15 14 15 18 23 26 26 27 26 24 24 23 15 14 16 18 15 15 14 13 13 13 12 11 11 12 12 13 14
66 80 74 59 73 85 88 82 76 78 42 26 24 21 18 16 16 20 24 26 24 23 23 22 19 17 16 15 16 18 18 17 16 14 14 14 14 14 14 16 16 18 24
86 90 88 67 76 88 93 83 81 76 32 29 30 24 20 18 18 22 24 24 25 27 22 22 19 18 18 19 19 18 19 19 18 16 15 14 14 19 27 33 39 49 62
88 90 89 76 78 92 95 87 84 69 32 35 33 26 23 18 22 26 28 28 29 34 34 25 22 21 22 22 20 19 19 19 19 31 28 16 20 46 59 75 82 88 92
88 90 88 89 92 91 93 89 84 53 36 40 35 29 24 24 26 28 32 32 33 38 34 26 22 22 21 22 20 19 20 19 24 36 62 63 73 95 95 95 95 95 94
83 89 86 89 90 91 96 86 82 44 40 42 38 32 28 32 29 28 30 32 36 37 31 27 24 25 23 22 20 20 20 19 19 40 74 90 94 95 94 94 93 92 92
80 86 85 88 88 87 93 81 82 43 42 44 44 37 32 29 28 30 30 29 33 32 28 28 28 26 23 20 21 21 19 20 19 49 80 90 94 94 93 92 93 91 91
76 87 85 80 90 89 92 81 80 43 43 46 46 46 45 42 33 28 27 26 25 27 28 28 28 24 20 22 21 20 19 18 27 77 87 93 93 93 93 91 92 91 89
65 70 77 78 85 82 84 85 76 42 44 47 47 48 50 49 46 40 30 29 26 27 27 27 24 20 22 22 19 16 15 16 19 29 68 91 93 94 92 90 92 90 93
62 65 68 75 81 86 92 89 72 44 48 49 49 50 51 52 52 48 40 33 28 26 24 21 19 23 23 20 16 17 20 19 19 20 53 90 93 94 93 95 93 90 90
60 60 64 73 77 91 94 92 65 45 49 51 50 51 52 54 54 51 42 32 28 25 20 19 23 25 22 18 19 20 19 18 15 14 40 89 94 95 95 95 93 89 95
53 55 60 68 84 98 98 94 68 48 52 52 52 52 53 55 55 51 40 30 26 23 22 24 27 24 22 24 25 25 20 18 16 14 14 29 71 95 96 96 94 93 89
63 59 60 66 96 99 99 94 64 54 53 55 53 55 55 56 54 46 35 25 23 33 37 32 27 22 25 26 26 27 28 29 26 24 26 33 82 95 96 96 94 92 89
60 62 61 80 100 99 95 85 61 64 60 56 60 55 54 57 48 36 27 23 29 36 46 39 31 28 28 26 27 34 35 35 33 37 34 31 83 97 96 95 94 94 92
66 64 74 94 99 98 88 67 69 56 59 76 58 56 57 56 42 28 26 32 36 37 40 36 38 39 43 39 32 34 33 35 30 26 29 47 98 100 99 97 97 97 99
88 76 89 100 97 79 71 77 68 80 71 68 73 75 53 44 30 31 35 34 31 29 38 42 50 54 59 52 57 56 46 34 32 36 41 59 96 88 98 100 100 100 98
100 100 100 96 76 74 82 72 89 88 91 77 64 53 42 36 33 34 30 24 25 34 40 55 70 72 74 65 63 56 48 40 43 47 48 53 56 63 100 100 100 100 100
100 100 94 93 83 85 83 92 94 86 80 60 54 50 32 33 29 21 21 25 32 39 53 68 75 87 89 70 71 69 60 46 61 54 51 61 60 66 65 56 56 52 52
99 96 91 80 81 89 88 90 84 76 69 69 39 34 30 21 18 20 25 32 48 68 67 81 96 95 87 85 81 70 67 78 74 62 58 70 67 60 52 54 56 54 54
89 89 84 84 86 94 97 95 99 93 60 42 68 25 19 19 20 22 31 44 62 78 94 99 98 99 92 88 76 75 88 94 98 82 71 68 66 58 58 58 56 56 56
92 90 95 99 95 96 95 99 96 90 96 42 21 18 19 19 18 22 28 38 47 57 94 99 95 90 88 69 84 94 98 100 98 76 78 74 69 61 61 61 58 58 57
94 95 93 96 100 99 100 99 99 58 24 22 22 20 19 20 22 29 40 70 85 86 85 79 80 74 82 94 96 100 100 94 81 75 78 78 67 68 70 62 58 54 57
95 99 98 98 98 100 98 92 31 26 25 23 22 22 24 25 19 24 92 100 95 74 68 70 67 75 90 87 81 85 77 87 82 78 77 85 74 82 77 69 66 65 67
100 100 100 100 95 47 35 29 25 25 25 26 30 28 21 23 49 98 100 98 88 68 71 65 56 63 66 67 73 80 85 93 96 95 88 98 90 98 95 84 80 78 70

GFSMA_850_rhum_030.txt.gz
RH
62 67 72 72 71 64 52 58 62 63 65 66 40 27 16 12 13 17 22 29 40 48 46 36 35 34 31 24 18 15 13 12 12 11 11 11 12 12 11 9 7 8 18
55 60 63 65 68 61 56 66 68 64 66 68 35 22 16 14 14 17 20 25 29 33 34 31 29 25 23 22 17 13 13 13 13 13 13 13 12 12 11 11 11 10 10
53 58 61 65 61 60 69 74 72 67 71 68 31 21 18 16 16 18 22 26 27 27 27 24 23 22 15 14 16 17 16 15 15 14 14 13 13 13 13 13 12 12 11
43 52 55 70 71 67 76 79 83 72 76 60 28 24 22 19 17 19 23 26 25 25 24 24 19 18 16 16 16 18 18 17 16 15 15 15 14 14 15 16 16 16 15
44 45 61 78 76 66 78 85 87 78 80 52 28 28 25 20 20 21 25 26 26 26 25 20 20 18 18 18 19 19 18 17 16 16 16 15 14 23 40 54 65 60 60
63 68 85 91 81 69 83 89 92 83 82 44 32 32 26 23 20 23 26 27 28 29 32 30 23 20 20 20 20 20 18 18 19 18 18 23 23 42 87 92 95 95 95
81 85 90 93 86 79 80 90 92 88 83 42 37 33 28 24 22 25 28 30 30 31 35 32 25 22 22 22 20 20 18 19 20 21 30 46 62 88 95 94 94 94 94
82 76 80 87 87 91 90 87 90 90 82 41 39 34 30 32 28 28 28 30 31 33 35 31 26 24 23 23 21 18 18 19 18 18 37 65 94 95 95 94 93 93 93
78 82 86 86 82 87 81 80 89 88 82 46 42 37 34 32 33 34 30 32 31 31 32 28 26 25 24 23 20 19 20 19 18 18 51 91 94 93 94 94 93 92 92
65 75 81 76 78 80 79 82 89 88 81 52 42 44 41 38 30 36 35 33 30 29 28 26 27 27 26 22 19 21 20 17 15 16 50 93 95 94 95 94 93 92 92
61 62 72 73 80 78 80 84 90 90 79 51 42 44 46 46 46 43 40 40 34 30 28 27 28 27 23 20 22 21 18 15 16 17 20 56 92 94 96 95 93 95 97
62 64 63 68 69 73 83 81 90 94 82 57 46 48 48 48 49 50 49 47 41 35 31 28 26 24 20 24 23 19 17 19 17 16 14 28 91 95 96 96 96 95 94
61 65 63 61 63 68 74 90 96 93 89 57 50 51 51 50 50 52 53 51 46 38 33 28 22 22 25 25 20 20 20 19 16 13 10 17 65 91 95 97 97 96 94
54 61 64 62 60 63 69 94 98 95 87 63 58 58 53 52 52 53 53 52 41 35 30 24 24 27 27 23 23 25 22 19 16 14 12 11 12 38 84 95 97 97 96
53 57 64 69 67 65 73 92 97 94 85 75 73 68 57 54 54 56 55 55 38 28 26 28 29 27 26 24 24 24 22 20 20 21 19 19 21 35 77 95 96 95 94
54 54 64 65 78 94 81 99 95 94 82 78 68 70 59 62 56 54 53 46 30 28 36 36 32 27 27 26 26 26 22 24 25 24 22 22 37 94 98 97 97 100 100
68 75 65 68 80 98 100 99 92 86 73 71 63 75 70 67 67 66 41 32 33 35 41 35 31 29 31 28 24 23 27 28 25 22 22 28 56 98 99 100 100 100 100
85 96 97 98 100 100 98 91 83 77 79 74 71 90 86 66 73 70 62 42 37 37 37 33 34 34 35 31 36 45 40 37 32 26 33 44 50 54 70 94 100 100 100
100 100 100 100 100 99 97 84 79 82 71 81 91 90 93 63 46 40 36 36 32 29 32 38 41 45 49 49 57 53 54 33 29 38 47 48 49 51 51 71 99 99 99
100 100 100 100 100 98 84 77 75 80 92 97 96 92 92 74 75 73 34 22 22 27 32 41 53 60 77 68 72 65 60 49 54 51 47 53 52 53 52 54 57 57 57
98 100 100 100 99 86 74 76 94 100 100 100 99 99 76 69 94 45 20 21 28 31 44 56 66 93 89 74 74 77 73 71 65 49 49 53 54 51 49 53 54 55 56
100 100 100 96 89 87 93 96 99 99 92 95 95 97 98 64 20 20 24 32 39 42 51 82 93 94 83 82 85 77 90 92 94 58 66 69 62 54 55 59 58 57 57
100 99 98 96 94 94 97 99 97 99 99 99 99 88 25 21 22 20 21 26 29 35 65 93 96 84 93 80 89 97 96 88 83 66 73 73 64 58 59 60 59 57 54
96 93 92 94 93 99 100 100 100 100 99 82 30 23 22 21 20 18 18 35 62 70 75 76 79 79 89 97 100 99 89 85 84 69 75 84 60 66 66 61 58 56 58
100 100 100 100 100 100 99 100 98 63 32 29 26 24 23 20 18 18 71 97 94 84 78 72 69 77 73 65 67 74 75 85 82 74 77 86 71 81 72 63 61 65 68
100 100 100 100 99 99 85 33 27 29 27 29 30 24 23 21 29 68 100 98 98 74 58 52 48 48 58 65 72 79 85 91 96 94 87 97 81 86 98 83 78 74 67

GFSMA_850_rhum_033.txt.gz
RH
62 68 72 72 65 52 48 47 53 56 58 59 61 34 22 14 13 16 23 31 43 49 38 31 30 30 27 21 17 12 11 11 11 11 11 11 11 11 11 11 11 10 8
56 60 69 72 73 66 60 52 54 62 60 61 64 34 20 16 14 16 20 24 29 32 31 29 26 24 23 22 14 12 12 13 13 14 13 13 12 12 12 11 11 11 12
48 56 62 64 65 66 64 55 63 67 63 65 67 33 22 18 17 17 19 24 27 26 28 24 21 22 17 14 15 14 15 15 15 14 14 13 13 12 12 12 11 11 12
42 51 57 58 61 62 66 66 74 75 68 70 68 34 24 22 19 19 21 23 25 26 24 22 20 18 17 16 16 18 18 17 16 15 14 14 13 13 12 13 14 13 12
61 46 49 58 58 70 74 75 79 82 76 76 70 32 27 24 21 20 22 24 24 23 22 22 18 19 18 18 18 18 18 17 16 16 16 15 14 14 33 43 45 49 53
78 78 51 53 59 77 84 79 87 88 85 81 69 32 30 26 23 22 23 25 24 24 24 23 25 21 19 18 19 19 19 18 17 18 18 19 25 22 52 85 94 95 96
75 80 67 52 65 86 87 73 89 92 90 84 63 34 32 28 26 22 23 25 26 26 26 28 28 24 22 21 21 21 19 17 18 19 23 34 45 74 89 96 94 93 94
60 73 72 68 81 93 88 79 88 87 89 86 59 36 33 34 29 25 26 27 28 29 29 30 31 27 24 23 24 22 18 17 18 18 19 37 75 94 95 94 94 94 94
54 59 64 77 91 90 83 84 85 85 86 88 75 39 36 34 34 32 29 29 30 31 31 31 32 28 26 26 25 22 18 18 19 16 19 37 82 94 94 94 93 93 92
60 60 62 69 65 79 83 80 78 78 82 88 77 52 40 36 34 36 35 33 31 34 33 33 32 29 28 27 25 20 19 20 18 16 14 29 60 92 94 95 94 94 92
62 64 60 61 71 67 78 81 77 81 84 89 80 69 42 42 41 39 38 39 37 36 34 34 31 30 30 28 23 20 22 21 17 14 14 15 34 84 94 96 95 94 94
57 64 67 63 68 69 68 73 80 86 88 90 87 74 46 43 44 44 44 45 44 41 38 36 34 32 30 26 21 23 24 19 16 15 14 13 34 92 95 95 95 96 95
41 44 58 62 65 66 66 68 76 93 93 93 94 73 47 47 47 47 47 48 47 44 42 39 35 31 26 23 25 26 21 19 17 15 12 9 16 24 32 63 94 96 97
54 59 52 56 67 69 69 66 71 94 98 98 95 75 54 50 51 56 60 52 50 50 49 43 37 27 26 28 27 24 22 20 17 13 8 7 8 9 12 28 59 95 96
53 55 62 58 59 66 70 71 74 93 100 99 94 79 57 53 63 74 58 55 51 49 45 37 32 36 31 30 27 24 22 20 17 12 13 14 14 16 25 54 95 96 96
46 58 76 76 67 69 74 86 83 99 100 97 83 76 66 71 83 73 64 61 57 54 33 40 42 36 31 26 24 25 24 22 16 18 15 16 18 23 54 96 98 99 97
41 65 74 85 88 91 99 100 100 99 74 95 79 70 77 84 80 74 78 76 59 44 50 39 43 34 22 24 23 23 23 22 20 14 14 18 22 47 90 98 97 98 98
46 62 87 99 100 100 100 100 100 100 99 84 75 80 86 80 86 87 85 84 80 73 72 47 31 23 26 23 25 23 27 24 26 18 17 24 40 44 45 47 57 98 100
64 77 99 98 99 100 100 100 100 99 88 76 79 86 88 95 97 93 91 90 94 94 80 53 30 30 30 26 28 34 38 34 23 17 30 44 45 47 45 46 73 83 71
97 100 100 98 99 100 100 100 98 85 72 78 88 92 96 98 98 91 94 97 98 66 31 38 41 45 45 38 48 55 52 40 30 31 47 46 48 48 46 51 53 52 52
100 100 100 100 100 100 100 92 75 73 83 92 98 100 100 100 99 100 99 90 34 25 26 39 51 54 67 67 85 79 72 59 54 49 46 49 49 46 45 49 50 52 53
100 100 100 100 100 100 93 83 81 92 98 99 100 100 100 100 100 94 32 26 28 23 30 68 70 68 88 74 77 74 74 94 100 52 63 80 58 49 50 54 53 52 52
100 100 100 100 98 95 97 97 100 100 100 100 100 100 99 88 33 28 27 24 22 29 42 80 89 77 95 92 76 85 93 96 86 61 81 94 60 59 58 55 52 54 53
100 100 99 100 100 100 100 100 100 100 100 99 100 88 35 28 26 23 17 14 19 35 54 70 87 89 73 74 100 100 88 97 94 69 79 97 59 67 63 56 52 52 56
100 100 99 100 100 98 99 100 100 100 99 58 27 29 28 28 17 12 18 34 59 76 83 78 60 54 67 64 67 76 78 89 91 78 79 89 68 84 68 56 55 58 61
99 99 99 99 99 100 99 97 46 30 29 28 30 28 17 10 14 29 98 100 98 80 55 38 41 43 52 66 74 81 86 88 94 93 78 95 79 83 100 64 70 70 63

GFSMA_850_rhum_036.txt.gz
RH
95 97 100 99 98 96 84 49 52 55 56 56 57 56 32 19 27 71 90 62 84 73 48 30 29 27 23 18 16 12 11 12 12 13 13 13 13 12 12 11 11 11 10
74 91 98 98 93 91 64 54 52 54 58 58 60 60 32 20 24 49 82 40 33 34 30 26 26 25 21 19 13 13 13 14 14 14 14 13 13 13 12 12 12 12 11
71 88 95 79 89 87 72 63 55 53 60 61 63 64 34 23 19 20 34 74 24 28 28 24 22 19 19 15 15 14 15 15 14 14 14 13 13 12 12 12 12 12 12
51 57 92 92 89 86 66 67 61 62 68 64 66 67 38 24 24 23 20 24 33 33 24 22 20 18 17 15 16 17 18 17 16 14 14 14 13 12 12 13 13 14 14
76 62 78 93 96 89 64 69 67 70 74 74 71 71 43 26 24 23 21 22 22 24 29 19 20 18 18 17 18 18 18 18 17 16 15 15 15 14 13 30 33 43 57
70 73 70 66 93 82 66 69 73 74 80 82 76 73 49 29 27 24 26 23 23 23 23 22 20 22 20 19 19 19 20 19 17 15 16 16 16 17 19 52 92 96 96
67 72 75 75 66 57 61 64 79 77 85 87 81 72 51 31 28 26 27 24 24 24 23 24 26 28 25 23 21 21 22 20 16 16 17 17 18 32 55 86 94 94 93
58 62 67 74 80 59 57 62 84 81 83 88 84 58 48 43 32 29 28 25 25 25 26 26 27 31 30 27 24 24 24 21 16 17 17 18 33 62 93 94 93 94 94
56 59 55 64 67 72 59 62 84 80 76 83 85 74 50 45 45 35 30 27 27 26 28 30 30 31 33 30 27 27 26 21 17 18 18 16 20 47 93 94 94 93 93
56 61 57 67 63 62 69 69 89 80 77 82 84 84 76 41 39 43 36 32 29 29 29 31 33 33 34 32 29 29 27 21 19 19 18 16 19 52 75 93 95 94 94
38 52 53 56 64 63 65 73 84 82 80 80 80 81 81 61 39 37 42 38 35 32 31 33 36 36 35 33 32 32 28 21 21 20 17 14 16 52 84 94 94 95 95
38 40 51 55 55 65 66 61 69 88 83 80 79 84 86 76 58 40 39 42 40 40 36 38 39 37 35 34 34 31 24 23 23 19 16 14 15 43 57 60 91 94 95
38 35 40 51 57 60 63 70 70 74 88 84 85 87 92 86 72 49 41 42 42 44 43 42 39 38 37 36 33 28 25 27 22 17 14 14 12 9 6 7 32 77 93
91 40 53 64 65 64 61 66 68 72 78 93 93 93 92 89 71 48 47 46 44 47 46 42 42 41 39 34 28 28 30 26 20 17 14 11 7 5 5 5 7 13 56
74 76 52 70 88 95 96 81 69 69 72 83 96 99 95 92 72 54 50 50 51 53 57 49 43 41 33 32 34 32 30 23 18 15 12 7 6 6 5 8 8 24 75
59 58 60 55 69 90 100 100 100 97 96 95 99 100 96 83 72 58 52 60 77 80 53 48 39 44 59 52 42 50 26 20 18 13 11 12 10 10 12 20 64 96 99
39 44 54 68 79 77 89 99 100 99 100 100 100 100 99 95 84 66 70 82 80 69 74 85 74 62 80 94 78 26 26 28 20 14 13 15 14 13 23 65 72 83 97
45 47 55 93 99 100 100 100 100 100 100 100 100 100 100 94 74 80 82 83 91 98 93 92 97 97 96 94 70 26 25 18 18 14 16 15 15 24 34 36 39 45 95
76 75 88 99 98 99 100 100 100 100 100 100 100 100 86 75 89 89 94 96 99 98 99 100 99 97 72 30 27 23 29 35 26 16 16 16 30 38 38 40 42 48 67
60 89 93 94 99 98 100 100 100 100 100 100 100 94 94 95 94 96 100 100 99 99 99 99 94 56 38 35 29 43 66 81 77 22 25 40 41 39 40 41 42 42 44
62 68 96 99 99 98 100 100 100 100 100 100 94 91 94 97 99 99 100 100 99 99 98 59 44 42 64 90 84 86 90 85 80 32 52 72 75 51 49 45 43 42 46
78 65 81 98 100 99 99 100 100 94 88 88 88 95 99 100 100 100 99 100 95 56 35 54 70 92 83 85 89 89 92 94 94 47 90 93 82 74 56 48 45 48 50
98 98 100 100 99 99 96 93 92 87 92 100 100 100 100 100 100 99 87 33 27 28 27 87 97 90 90 92 99 86 98 100 100 81 100 96 66 77 63 54 49 49 51
99 99 100 100 100 100 99 100 100 100 100 100 100 100 100 96 64 28 27 22 19 15 30 55 86 98 98 97 96 98 98 100 100 95 96 97 75 90 85 66 53 51 52
100 100 99 100 100 99 99 100 99 99 100 98 86 40 29 27 24 20 19 20 30 73 95 76 66 54 49 54 63 93 86 100 100 96 94 98 80 92 91 60 56 60 58
98 100 98 98 99 98 99 100 97 80 36 29 28 25 19 14 18 32 63 97 96 80 80 52 94 73 39 43 61 71 80 90 98 100 95 91 90 99 100 67 73 74 66

GFSMA_850_rhum_039.txt.gz
RH
94 95 92 96 93 88 88 90 77 60 55 54 53 55 48 45 54 72 85 78 82 81 76 40 25 24 23 18 16 12 12 12 13 13 13 13 13 12 12 12 12 11 11
91 95 92 97 96 93 90 86 76 61 53 50 54 56 55 42 55 65 84 49 64 63 42 29 25 22 19 17 13 13 13 14 14 13 13 13 13 13 12 12 12 11 12
88 89 88 97 98 98 93 88 79 64 53 49 53 56 59 51 43 49 75 74 35 30 28 27 25 20 19 15 13 13 14 15 14 14 13 13 12 12 12 12 12 11 11
80 83 88 88 98 97 99 95 84 64 54 53 60 57 62 52 46 49 52 70 58 30 25 24 23 19 18 16 14 15 16 16 16 16 14 13 13 12 12 11 11 11 13
92 86 84 88 90 97 98 97 87 68 60 60 62 59 64 59 41 47 43 42 53 54 33 21 20 19 16 17 16 17 17 18 18 17 14 14 14 13 12 12 15 22 28
95 95 90 90 92 93 99 98 86 68 64 63 67 66 69 63 47 44 37 39 35 28 39 22 20 20 17 19 18 18 19 20 20 18 16 16 15 15 15 19 31 68 86
100 97 94 90 91 92 88 93 86 69 70 70 67 70 68 70 50 43 39 41 34 26 25 24 20 21 21 24 22 21 21 22 22 19 16 16 16 18 28 51 91 95 95
84 99 84 82 85 84 93 94 82 72 70 75 71 74 66 66 70 44 36 40 38 31 26 23 23 24 26 27 26 25 24 25 25 21 17 17 17 20 37 72 94 96 95
77 99 94 96 93 89 84 86 84 72 63 74 80 72 69 61 53 52 39 37 38 38 29 25 25 26 27 30 30 30 28 28 28 23 19 18 17 17 20 34 74 94 93
56 94 92 97 98 92 93 73 71 73 69 71 85 77 75 56 48 49 47 40 39 38 33 30 28 29 30 32 34 33 32 31 30 25 20 20 19 18 25 38 81 94 94
58 50 91 100 93 82 88 83 80 69 68 72 86 74 80 77 65 50 44 43 39 36 36 36 32 32 33 36 36 36 33 33 31 25 22 22 18 17 33 70 95 94 94
94 84 72 99 100 95 76 68 88 83 74 75 89 83 76 75 78 67 50 45 42 42 38 38 36 37 38 40 39 37 35 35 31 25 25 22 18 18 15 15 25 38 65
91 89 81 97 100 99 100 96 100 99 83 83 91 83 79 80 81 82 67 52 45 46 45 44 41 41 42 42 40 38 38 34 27 28 27 24 16 13 12 9 6 14 51
83 84 85 70 91 99 99 99 100 100 100 98 94 99 87 85 86 83 93 72 47 45 45 45 47 48 48 44 43 41 37 29 32 31 25 18 14 12 9 6 5 4 7
89 89 90 94 73 88 99 99 98 98 100 100 100 100 100 98 93 99 98 71 49 47 66 51 47 48 48 48 50 36 33 36 38 49 32 15 12 8 5 5 5 5 6
64 97 96 100 98 100 99 99 98 100 99 100 100 100 100 98 100 99 78 62 66 60 59 59 59 70 64 61 44 62 68 82 88 78 59 19 9 6 6 7 6 7 25
37 46 75 96 98 100 100 98 99 100 100 100 100 100 100 100 100 100 96 96 89 95 87 83 85 64 51 70 85 91 97 97 91 52 19 10 7 8 8 8 9 16 47
56 58 60 67 77 97 99 97 100 100 100 99 100 100 100 100 100 100 99 98 100 90 84 94 77 86 99 99 98 100 98 63 29 24 12 7 10 14 12 16 25 29 36
71 71 76 84 80 88 86 98 99 99 100 100 100 100 100 100 100 100 99 94 90 92 94 97 98 99 100 100 100 94 77 35 20 16 17 19 34 23 24 33 36 36 44
74 82 78 71 65 71 78 94 98 100 100 100 100 100 100 100 99 93 90 94 98 100 100 100 100 99 98 96 79 34 26 36 40 34 34 38 32 35 36 38 40 40 41
88 90 86 89 99 99 100 100 100 99 100 100 100 100 100 99 98 98 98 97 99 100 100 100 99 96 63 55 49 66 82 74 61 45 35 40 64 62 50 46 43 45 45
99 100 100 100 100 100 100 99 98 99 100 100 100 100 99 100 99 100 100 100 100 98 98 96 50 36 60 82 82 86 86 80 72 34 67 54 63 57 51 47 47 50 52
100 100 99 100 97 97 92 95 97 98 98 99 100 100 100 100 99 100 100 99 91 45 26 31 66 88 91 86 87 84 74 73 67 42 82 65 57 57 52 48 51 52 53
98 98 98 94 93 96 100 100 99 100 100 100 99 100 100 100 98 78 38 22 20 20 24 47 74 82 87 93 92 91 88 82 72 69 94 96 61 66 57 50 50 54 51
97 95 96 98 97 98 100 100 98 99 99 99 99 97 58 29 24 19 14 15 34 60 94 90 69 55 48 39 37 48 43 61 65 72 72 88 65 75 60 51 52 55 60
92 92 92 95 95 95 98 97 98 90 46 27 28 28 20 12 11 16 24 82 99 99 95 74 65 82 71 35 36 47 58 66 86 99 92 84 74 84 94 63 63 67 60

GFSMA_850_rhum_042.txt.gz
RH
85 87 79 88 69 64 76 88 68 60 48 50 48 47 48 44 46 55 68 59 62 60 58 55 27 21 20 17 15 11 11 12 12 12 12 12 12 12 12 12 12 12 12
86 86 77 84 91 90 89 89 81 68 54 47 47 49 51 50 43 49 61 52 43 44 48 44 24 20 18 16 14 12 12 13 13 13 13 12 12 12 12 12 12 11 11
87 89 88 83 87 84 89 91 85 75 62 51 45 47 50 52 45 51 49 51 38 33 30 30 24 21 19 17 13 13 13 14 14 14 14 14 13 13 12 12 11 11 11
76 83 89 85 88 89 87 95 91 83 71 54 47 45 50 54 54 44 48 43 37 35 23 21 22 20 19 17 15 14 15 16 17 18 16 16 15 14 13 12 12 12 17
85 82 82 89 83 88 79 96 97 91 78 61 53 53 55 56 59 52 44 43 39 31 27 24 20 19 18 16 16 15 16 18 20 22 20 18 18 17 15 13 13 15 29
84 88 87 86 87 86 88 90 95 97 84 66 61 58 57 58 62 58 48 43 42 37 29 26 23 20 18 17 17 18 18 20 22 24 23 20 18 18 16 15 15 19 39
94 82 77 78 88 88 87 86 93 98 85 75 67 62 54 60 65 64 56 46 40 38 33 28 23 22 19 18 19 20 20 21 23 25 25 21 19 17 18 19 31 53 72
84 88 76 66 67 87 93 93 90 87 86 77 68 64 54 59 68 69 61 54 44 38 36 29 24 22 21 21 22 24 24 24 25 26 27 24 20 20 18 19 30 65 94
62 71 94 86 68 75 86 94 85 87 88 80 72 63 68 70 65 64 69 62 47 42 38 37 28 25 22 23 24 27 28 28 28 29 30 26 22 21 21 20 28 47 87
50 54 80 90 100 87 77 77 86 80 96 88 76 70 70 68 64 60 59 55 48 47 43 40 36 29 27 26 27 28 29 32 32 31 32 29 24 23 23 25 36 60 77
76 65 74 88 99 99 99 77 86 87 77 86 82 73 71 76 66 60 55 54 48 45 43 41 39 36 34 27 30 30 32 33 34 33 34 30 26 28 26 24 33 22 16
85 86 83 92 98 98 99 97 100 99 99 90 84 89 79 76 81 66 63 63 55 52 46 43 43 39 41 39 34 36 34 36 36 35 34 30 27 29 28 22 15 12 10
81 85 84 90 89 88 94 96 93 98 99 98 100 98 93 87 90 87 74 63 61 55 48 48 54 57 48 44 40 41 40 40 38 36 35 27 31 30 22 16 13 10 7
80 84 87 89 91 95 96 94 92 92 95 98 99 100 100 99 95 96 87 78 62 60 74 84 80 64 54 50 48 51 54 45 40 38 30 34 35 46 37 16 12 7 5
66 73 82 92 92 98 99 97 93 88 91 96 97 99 100 100 99 98 95 87 80 92 87 71 72 79 61 61 70 72 62 52 42 36 45 66 84 83 76 26 11 5 5
61 59 56 65 90 90 97 98 97 96 96 97 99 98 100 100 100 100 100 100 97 97 92 86 82 85 93 95 86 72 75 58 49 79 91 94 94 61 22 15 10 6 7
47 44 44 55 75 97 98 99 99 100 100 100 99 99 99 99 100 99 100 100 100 98 89 89 100 98 97 96 78 84 67 75 98 98 95 94 44 31 22 14 8 8 7
57 55 55 58 72 97 100 100 99 97 99 98 99 100 100 100 100 100 100 100 100 100 99 100 99 99 95 95 84 83 99 100 99 99 94 66 24 15 14 16 20 15 26
64 66 64 58 60 74 84 84 79 71 96 96 98 99 99 100 100 100 100 100 100 99 99 98 99 100 99 98 99 100 100 100 95 75 36 27 42 27 21 24 35 43 43
74 74 77 81 79 84 85 94 99 98 98 100 98 99 100 99 99 100 100 100 98 97 100 100 100 100 100 100 99 99 80 39 30 24 32 38 27 21 21 41 51 57 47
92 88 94 92 91 94 100 99 97 99 99 99 99 100 100 97 98 99 99 100 100 100 100 100 99 99 98 94 66 40 38 44 51 32 42 22 26 34 38 46 48 48 49
94 100 99 99 99 98 98 92 93 97 100 99 99 98 100 100 100 100 100 100 100 100 100 100 99 96 53 50 63 76 77 74 52 27 45 21 48 43 47 51 51 50 60
91 94 93 94 93 92 92 91 92 92 95 99 100 99 98 99 100 100 100 98 98 98 70 42 32 54 71 85 81 79 75 68 44 39 60 41 55 52 53 51 51 52 54
91 90 92 91 89 92 98 99 99 99 98 98 99 98 98 98 98 99 95 62 33 22 36 50 52 48 53 54 64 67 56 44 40 39 65 61 54 53 50 49 52 52 53
90 88 89 89 90 91 97 95 97 96 99 100 99 97 80 53 33 23 21 22 40 63 83 86 76 60 45 37 40 39 33 41 37 51 58 68 60 59 51 45 50 54 56
86 88 87 88 89 92 94 87 64 32 25 24 28 25 22 21 18 28 39 46 74 86 80 77 64 43 45 36 36 54 52 61 67 73 81 76 68 78 71 48 48 52 51

GFSMA_850_rhum_045.txt.gz
RH
64 81 80 69 58 48 37 46 51 51 47 45 47 44 42 45 39 39 42 49 47 42 41 43 36 18 16 16 14 11 11 12 12 13 12 12 12 12 12 12 12 12 12
74 79 80 75 71 71 62 60 65 70 55 46 48 46 45 49 45 41 49 46 45 39 40 41 35 19 16 15 14 11 12 12 13 13 13 13 13 13 12 12 12 12 12
79 79 85 82 78 78 76 79 88 88 82 65 48 43 45 50 51 46 45 48 44 42 35 39 35 20 17 15 14 12 12 13 14 15 16 15 14 14 14 13 12 12 11
75 76 84 85 83 82 91 88 83 92 90 78 65 50 46 48 54 51 49 48 44 41 37 36 31 20 18 16 14 14 14 15 17 19 19 18 17 17 16 15 14 12 12
86 82 74 71 74 80 89 95 86 83 93 88 78 64 52 48 52 55 54 51 47 42 37 34 28 22 20 17 16 15 16 17 19 22 23 21 20 20 18 17 15 16 20
90 90 85 84 79 77 79 86 91 85 90 93 90 78 60 54 54 56 59 57 53 47 41 36 31 25 22 19 17 16 17 18 20 23 26 26 24 24 23 22 22 20 31
78 88 88 86 90 84 77 80 88 89 88 95 97 88 65 60 57 56 59 59 58 55 47 39 34 30 26 21 19 17 18 19 20 23 27 29 28 26 25 25 24 24 26
71 75 80 91 87 91 87 84 85 90 89 90 98 89 65 61 62 58 59 62 62 58 54 45 39 34 30 25 20 19 20 22 22 24 26 30 31 28 27 26 25 26 28
59 60 71 76 91 92 96 91 82 72 73 84 83 90 64 63 58 55 57 62 64 62 59 54 44 39 33 28 24 22 23 25 26 26 27 29 32 32 28 29 28 30 30
61 63 64 71 77 76 85 93 98 89 79 74 90 94 88 67 63 63 61 63 67 64 62 55 50 44 39 32 29 25 28 30 30 30 29 30 30 30 28 29 32 44 50
79 72 72 67 72 76 77 86 86 100 90 84 78 83 83 83 71 68 66 64 66 62 62 57 53 50 44 41 33 31 31 32 40 34 33 32 31 31 30 30 34 31 25
66 80 78 74 76 85 87 85 81 92 100 97 90 94 99 90 79 73 70 70 71 68 62 57 52 52 50 49 42 37 37 42 49 47 46 34 32 30 27 31 32 28 21
78 84 86 88 90 87 88 93 87 82 87 98 95 98 96 100 97 90 83 76 72 70 70 71 65 60 56 55 51 49 63 56 52 50 43 38 48 36 29 35 34 42 39
64 70 78 70 73 84 84 92 100 94 92 96 98 99 99 99 96 100 99 98 89 80 71 65 72 72 61 56 60 80 63 65 59 49 67 68 80 44 36 49 74 72 67
56 56 65 74 75 78 82 84 84 89 89 88 87 89 85 81 89 96 100 100 100 97 87 74 65 73 76 83 88 80 80 86 91 90 91 90 78 42 78 98 94 78 40
57 54 56 62 61 61 74 82 83 89 89 90 88 89 100 99 100 100 96 100 100 100 99 97 92 94 96 92 95 100 92 98 95 95 96 91 94 98 99 87 50 35 32
49 48 47 46 47 58 81 79 74 88 95 93 96 91 94 97 100 99 100 88 100 100 100 100 100 100 98 98 99 99 100 100 94 96 93 96 100 99 72 52 42 18 14
55 53 53 50 47 50 62 96 98 100 100 93 92 91 99 99 97 98 100 99 99 100 100 100 100 99 100 100 100 99 99 93 97 99 100 100 99 95 55 39 34 50 30
72 68 65 65 62 58 55 68 76 74 82 96 100 100 100 100 100 95 99 100 100 99 99 99 100 100 100 100 100 99 100 98 100 100 100 99 79 41 32 22 22 50 84
79 79 81 77 76 73 72 78 78 88 85 99 99 98 98 98 99 98 99 100 99 99 100 100 100 100 100 99 99 100 99 100 99 76 51 42 34 33 22 19 41 52 50
83 87 85 80 80 81 78 81 87 92 98 100 97 99 99 99 98 98 100 100 100 100 100 100 99 100 100 100 100 99 92 59 42 42 43 26 26 24 22 31 43 46 46
96 96 93 91 90 85 83 84 84 87 95 96 96 98 99 100 99 99 100 99 100 100 100 100 100 100 100 98 76 54 50 48 52 51 53 22 37 29 43 46 49 49 49
96 89 86 82 80 82 86 85 90 88 91 95 95 98 98 99 100 99 99 99 99 98 98 96 85 64 54 55 56 63 68 68 70 52 47 21 38 44 50 49 52 54 56
90 86 83 84 82 85 86 86 89 88 90 95 98 97 97 100 100 99 98 86 63 46 36 36 46 53 53 60 65 64 60 58 50 38 44 45 45 50 53 54 53 52 58
83 82 82 85 86 87 92 91 83 86 84 89 80 59 44 28 21 18 16 18 27 43 54 73 75 69 67 69 86 66 52 48 40 42 58 67 67 57 50 47 51 56 57
80 74 64 55 45 28 21 19 19 20 20 19 16 15 16 14 18 22 22 29 38 60 84 93 91 85 56 43 54 51 50 62 76 74 74 72 70 68 57 50 53 54 53

GFSMA_850_rhum_048.txt.gz
RH
52 45 52 59 61 51 40 36 43 48 47 42 42 42 41 42 43 41 42 50 55 56 55 45 34 29 16 17 15 13 11 12 12 12 12 12 12 12 12 12 12 12 13
59 59 61 63 71 69 64 59 49 54 62 58 50 45 48 43 45 45 44 46 52 52 50 51 42 37 19 17 16 14 12 12 12 13 13 13 14 13 13 13 13 13 12
67 67 67 69 74 81 75 69 68 62 61 70 72 58 50 46 44 46 47 48 50 51 51 48 43 33 22 19 18 15 12 12 13 14 15 16 15 15 15 14 14 13 12
80 77 75 70 76 85 87 82 77 82 77 76 85 83 67 52 46 45 49 50 51 52 50 48 41 36 25 18 18 16 14 14 15 17 18 18 18 18 18 17 17 16 15
85 82 81 76 77 84 87 84 82 88 88 83 85 87 83 72 57 48 47 51 52 54 53 50 46 43 33 24 20 18 16 15 16 19 21 22 20 20 21 21 20 20 19
84 87 87 85 84 84 82 83 87 92 93 89 90 90 90 88 78 62 52 52 53 56 57 53 49 44 37 32 30 29 21 17 17 19 22 24 23 23 23 24 24 23 24
85 86 85 88 91 86 84 86 87 89 92 90 95 91 88 87 88 80 60 55 54 56 59 58 55 50 42 37 32 27 26 19 18 19 22 25 27 26 25 24 26 27 29
78 80 79 80 84 90 88 86 83 88 89 85 95 96 88 85 85 80 68 59 55 56 58 61 60 57 50 43 35 30 26 25 21 21 22 24 26 28 26 25 27 26 36
72 74 74 75 77 81 84 84 87 88 84 78 83 98 86 85 76 64 59 57 56 57 57 62 66 63 58 51 46 40 32 25 22 23 25 27 28 28 27 24 25 30 40
44 49 64 76 72 74 79 81 83 84 94 95 88 97 100 87 74 67 63 61 58 56 56 59 64 65 64 61 52 45 41 32 26 26 38 55 59 56 29 30 37 66 76
45 53 68 74 77 73 62 72 83 90 91 96 98 89 96 99 97 95 83 75 72 68 66 63 64 65 66 62 57 54 49 38 36 34 40 72 83 93 65 90 97 99 99
36 46 52 70 67 79 87 86 84 84 88 88 96 95 100 99 97 94 90 87 85 78 72 71 75 80 75 80 70 69 60 48 42 43 51 93 97 95 66 95 95 82 67
37 42 65 74 72 79 88 88 88 93 92 93 93 96 99 100 100 100 100 96 94 92 86 82 76 76 78 78 85 81 71 58 51 52 68 94 97 100 75 60 64 68 49
53 49 54 74 80 81 90 91 85 88 88 91 84 92 98 97 98 100 100 100 100 97 80 98 94 84 76 75 85 90 86 87 65 71 80 88 85 85 88 92 95 88 76
64 62 59 60 64 72 78 76 70 82 86 90 83 84 93 100 100 100 100 100 100 100 97 96 96 94 87 79 85 85 83 82 97 89 99 100 100 100 100 99 94 88 95
61 60 58 55 55 59 61 62 65 81 87 92 86 87 80 88 99 91 95 98 100 100 100 100 96 94 95 91 87 85 83 98 98 100 100 98 100 100 100 100 100 100 100
58 55 54 52 50 49 48 48 54 61 66 78 79 92 96 96 86 91 94 90 96 99 100 100 98 88 96 100 100 100 100 100 100 98 100 98 99 99 100 100 100 99 86
69 64 61 58 55 52 52 53 56 64 73 96 95 92 99 98 97 98 99 100 100 100 100 98 99 99 98 100 100 100 100 99 100 100 100 100 98 99 100 100 98 97 87
77 73 71 71 69 67 64 62 60 58 66 73 77 93 99 97 98 98 99 98 99 99 100 99 98 100 100 100 100 100 100 99 100 100 99 99 99 99 97 92 81 62 64
79 80 80 81 78 74 71 69 75 78 82 91 100 98 97 95 94 93 96 99 100 100 99 100 100 100 100 99 100 100 99 100 99 99 99 98 72 54 45 41 35 28 37
82 80 78 75 77 75 76 80 83 82 85 95 99 94 97 93 97 95 97 100 100 99 100 100 99 100 100 100 100 100 100 98 98 95 65 52 45 38 28 24 20 22 26
88 83 82 82 81 77 77 77 79 81 85 89 88 90 96 95 95 96 95 98 99 100 100 100 100 100 100 100 99 98 94 68 63 60 57 39 50 24 19 29 36 40 45
83 82 80 80 80 78 79 78 80 82 86 88 90 92 94 97 99 98 99 100 97 98 96 98 97 94 86 66 64 70 64 70 69 69 67 27 23 22 43 49 52 52 52
82 80 77 76 75 76 80 80 81 85 84 85 88 88 89 90 90 87 86 65 46 39 31 31 37 47 53 55 58 59 63 66 62 57 56 29 32 44 51 55 54 53 56
78 77 75 75 66 44 28 18 17 18 19 19 19 18 16 15 13 12 12 14 19 28 45 56 52 66 71 68 66 58 61 64 45 29 48 54 50 51 48 46 46 49 57
62 40 27 20 17 16 14 13 11 12 12 11 11 12 14 17 19 20 18 21 23 30 41 54 61 65 68 54 39 48 58 49 63 63 65 69 61 62 54 54 57 61 60

GFSMA_850_rhum_051.txt.gz
RH
48 45 36 44 50 55 48 44 38 42 48 48 46 44 42 42 43 43 42 43 49 56 64 59 57 44 32 16 14 14 12 11 12 13 13 13 13 13 12 12 13 12 12
57 57 54 53 57 59 61 62 61 48 49 56 58 52 47 44 44 43 44 48 48 53 58 59 59 57 46 24 17 15 13 12 12 13 13 13 14 14 14 14 13 14 13
71 70 68 65 64 67 74 80 76 70 67 67 67 71 72 65 51 44 44 48 50 51 55 59 61 58 55 43 22 17 15 12 13 14 14 14 14 15 15 15 14 14 14
84 80 73 69 71 76 80 86 87 86 78 81 83 79 76 80 78 64 51 46 48 51 53 55 58 59 57 51 34 31 18 14 14 15 16 17 17 16 17 17 17 16 16
78 80 77 70 77 83 83 85 89 92 85 83 89 92 92 89 88 85 78 65 52 49 52 55 57 60 57 58 64 67 35 17 15 16 17 20 20 19 19 19 19 18 20
86 85 84 85 87 92 92 90 88 88 88 85 91 94 97 96 93 88 83 84 76 60 52 54 58 59 60 58 61 89 97 58 19 17 19 21 22 21 21 21 21 22 24
89 90 93 93 92 90 90 94 97 94 92 92 95 92 90 89 88 89 87 82 81 80 61 54 56 60 61 61 58 57 91 94 78 24 20 21 23 24 21 22 23 26 31
89 90 89 85 80 86 85 86 90 94 91 93 92 87 98 88 83 81 79 77 70 80 73 59 56 58 62 64 64 56 54 76 93 74 35 24 24 26 28 37 42 65 51
80 86 84 86 87 86 88 81 86 89 91 89 91 95 98 85 83 76 69 66 62 61 60 60 58 57 60 66 71 64 58 57 86 94 95 92 68 46 51 52 84 77 75
46 50 51 53 58 65 72 74 75 74 84 88 93 96 100 100 99 93 83 80 68 68 65 65 61 58 58 62 67 72 76 72 74 85 87 89 95 96 96 94 88 78 99
42 43 44 45 49 62 66 71 72 65 80 86 92 98 100 99 100 100 100 89 88 91 85 81 80 77 64 59 64 70 76 82 78 78 72 80 89 98 99 98 96 97 98
34 36 36 38 42 52 71 74 83 89 86 85 91 98 100 100 98 96 98 93 92 89 88 90 84 79 76 72 72 80 86 86 89 89 78 89 91 97 100 99 100 100 98
46 45 45 48 55 68 67 70 92 92 92 90 88 96 97 94 99 100 100 99 100 94 88 89 88 89 88 89 89 86 95 96 96 96 93 94 84 88 95 84 70 80 87
58 55 53 54 58 70 80 90 96 98 88 79 76 96 89 83 93 97 98 100 98 97 93 84 86 86 94 98 97 97 88 98 99 99 93 96 100 88 82 92 98 98 98
63 62 60 58 58 60 67 75 86 92 92 89 71 84 87 92 87 82 92 97 100 100 98 94 96 89 91 91 94 92 100 93 100 99 98 100 95 98 100 100 100 99 99
68 60 56 55 56 57 56 60 67 77 79 83 90 94 98 98 100 100 98 97 99 100 100 99 100 99 99 98 98 97 100 100 100 100 100 100 100 100 100 100 99 100 100
76 65 61 59 57 55 54 54 55 59 66 73 76 79 86 90 99 98 99 98 97 98 99 98 98 98 98 99 100 99 100 100 100 100 99 100 100 100 100 99 100 99 98
78 74 69 64 60 58 56 55 55 54 55 65 83 96 95 99 99 98 99 96 97 95 100 99 98 100 100 100 99 99 100 100 100 100 100 100 99 100 98 99 100 99 99
79 76 74 72 70 69 66 63 63 64 64 64 68 72 77 88 97 98 97 95 95 91 92 100 99 99 99 100 99 100 100 100 99 100 100 99 100 97 93 98 99 98 99
85 82 80 78 76 73 71 70 71 76 81 83 89 92 94 96 93 90 88 88 88 95 98 99 99 100 100 100 99 99 99 100 99 98 97 98 97 95 96 95 88 61 43
85 83 84 81 79 77 74 75 77 80 84 87 90 96 98 98 94 93 93 92 94 94 99 99 98 99 99 99 98 99 99 98 98 98 97 94 86 68 53 49 35 25 22
88 90 89 83 77 72 70 70 73 74 75 77 80 85 88 91 93 95 98 99 96 98 100 100 99 99 99 97 97 97 98 97 85 78 57 48 48 39 34 29 19 15 21
88 85 80 76 72 69 70 69 71 73 73 76 81 87 90 91 94 96 95 93 91 90 91 92 91 92 90 77 69 60 58 59 58 55 51 28 29 25 19 17 22 35 44
83 79 73 72 72 65 49 29 21 16 14 16 17 17 20 21 17 14 14 15 16 19 23 23 25 32 40 46 51 52 51 51 50 46 45 25 16 20 42 46 50 52 54
75 74 64 39 19 14 14 12 10 9 8 8 8 10 11 13 15 12 15 15 18 20 31 41 51 65 67 67 72 58 47 37 40 31 40 53 50 55 53 51 51 51 55
57 26 17 16 14 12 10 8 7 7 8 8 10 12 15 16 17 18 16 20 22 24 30 40 52 58 58 52 50 42 43 49 55 61 66 71 70 70 60 58 63 67 65

GFSMA_850_rhum_054.txt.gz
RH
51 54 40 35 34 38 50 51 48 41 40 47 51 49 45 45 45 46 44 44 43 49 54 58 59 54 48 43 25 17 14 12 12 12 13 14 14 14 14 14 15 15 14
53 58 61 52 53 60 65 66 66 66 60 51 50 54 57 53 50 49 48 46 46 47 50 55 57 58 57 48 43 23 18 15 13 13 13 13 14 14 14 14 15 16 16
68 70 70 67 65 68 71 74 77 77 74 74 70 72 74 74 74 76 71 55 47 47 49 51 56 61 63 74 56 42 21 18 14 14 14 15 15 15 16 16 16 16 17
77 77 73 70 75 78 79 79 80 83 85 86 84 82 86 88 85 84 84 81 72 59 50 49 51 56 62 63 75 67 52 22 17 16 17 18 17 16 16 17 17 17 18
80 78 75 75 82 84 87 89 88 88 86 86 90 92 93 93 95 96 88 87 86 82 76 61 52 54 59 63 67 84 90 67 30 18 17 18 19 19 17 18 18 19 20
86 88 87 87 89 92 90 88 90 92 95 95 95 95 96 96 94 94 87 83 80 81 80 81 70 56 56 60 64 70 97 100 74 32 19 19 20 22 19 20 21 21 27
86 91 94 95 95 95 93 91 94 95 93 94 100 96 92 91 84 79 83 80 78 77 84 84 83 73 57 61 65 66 72 97 99 95 62 31 26 28 31 34 44 35 46
86 90 92 94 96 93 92 87 87 90 92 90 98 100 99 95 94 78 71 71 73 75 74 75 75 75 61 60 62 66 68 81 98 99 97 90 71 46 62 84 93 91 96
91 91 90 88 88 92 86 84 84 86 88 80 87 97 98 85 82 83 84 81 83 76 77 71 66 67 62 60 61 63 67 73 84 96 99 98 96 95 94 93 95 99 100
56 57 56 55 59 61 64 67 74 77 78 80 78 79 98 100 99 97 88 85 85 78 87 81 87 86 76 66 60 63 68 78 83 97 100 100 98 96 97 94 96 98 96
38 40 42 43 44 46 47 50 59 77 78 83 93 97 99 99 97 100 100 94 84 85 83 84 91 84 85 89 80 64 72 88 91 96 92 90 90 96 97 98 98 97 99
33 33 33 34 34 35 38 43 59 86 89 89 94 95 97 100 98 100 100 99 99 86 86 81 80 86 86 85 93 86 70 76 97 98 89 94 94 88 95 97 98 99 94
47 47 46 44 43 42 46 54 59 64 80 90 81 88 89 87 86 93 97 94 94 92 82 76 80 86 84 86 86 89 92 98 98 95 94 89 96 95 95 99 100 95 95
57 56 58 59 58 55 56 66 85 82 83 93 90 83 89 82 76 92 100 100 99 94 90 84 75 79 82 86 83 85 81 83 96 100 99 99 98 99 99 100 98 100 98
64 63 60 60 63 63 63 66 74 87 80 87 82 82 86 98 87 86 99 98 95 100 98 96 94 99 99 100 98 92 92 86 90 97 99 100 100 97 99 99 100 100 98
69 69 64 58 58 59 61 62 64 69 71 88 95 98 99 100 99 99 98 94 99 95 99 98 97 96 94 95 95 88 87 94 96 98 98 100 100 100 100 100 99 100 99
71 74 67 61 60 59 57 58 59 63 69 76 83 83 80 86 99 97 98 98 97 94 95 93 91 89 86 90 94 93 98 98 92 99 100 100 100 100 100 99 100 100 100
79 76 74 69 66 64 62 61 60 60 60 63 66 73 85 84 94 99 98 98 95 93 94 91 87 86 90 88 94 98 98 99 99 100 99 99 100 99 99 100 100 99 99
81 80 78 77 75 73 71 69 68 68 69 69 70 75 80 84 89 95 95 94 93 92 86 90 100 96 90 99 98 98 98 100 100 100 100 100 99 98 99 99 98 98 99
87 86 83 81 78 74 74 74 75 77 78 80 84 86 89 91 91 88 86 83 88 90 88 94 95 94 94 98 99 99 100 100 98 98 96 97 98 99 100 98 98 98 98
89 85 82 80 77 75 75 77 78 80 82 82 81 82 82 85 86 86 87 86 88 89 97 100 99 99 99 99 99 99 99 99 98 97 97 99 98 97 94 86 76 58 45
92 90 89 83 77 73 69 72 73 74 73 73 74 76 79 81 83 84 85 86 86 89 91 93 97 98 97 97 96 95 92 89 84 79 73 62 53 45 44 42 32 26 22
98 94 87 81 76 73 75 74 72 62 46 38 35 30 28 32 26 19 17 21 34 31 24 26 34 40 48 48 48 43 43 42 42 41 39 25 28 24 24 18 16 16 18
94 88 80 78 76 63 29 13 12 10 9 8 7 7 8 10 10 10 10 12 14 16 16 20 25 32 40 47 47 46 46 43 38 33 34 22 19 19 30 40 37 38 42
84 77 72 39 16 13 11 9 7 6 6 6 7 9 10 13 14 10 13 14 16 17 21 25 30 43 56 69 68 48 47 40 27 26 34 50 55 52 49 48 48 49 49
74 42 17 14 12 10 8 6 6 7 8 9 10 12 15 15 15 17 15 16 18 20 22 29 32 28 25 27 29 28 30 34 37 51 64 68 62 63 58 55 57 58 58

GFSMA_850_rhum_057.txt.gz
RH
50 49 45 29 30 32 39 53 54 55 47 46 48 49 50 51 48 47 47 47 45 46 63 53 50 52 52 50 44 34 19 15 12 13 14 15 15 15 14 14 15 16 17
46 50 57 58 48 54 63 68 71 70 70 67 63 63 63 65 64 67 70 68 55 47 46 48 50 52 55 52 50 45 34 19 16 14 14 15 15 16 17 16 17 17 17
54 61 68 71 72 71 70 72 74 77 78 81 78 77 76 80 80 79 80 82 79 70 59 50 49 51 56 63 68 65 53 38 19 15 14 15 15 15 16 17 18 20 20
78 77 76 74 78 80 81 80 79 78 79 82 81 83 87 87 87 89 90 91 88 84 81 75 64 53 56 68 82 96 93 69 50 23 16 16 16 16 17 18 20 22 26
78 81 81 80 84 85 86 85 85 88 88 88 90 88 89 91 91 91 90 85 83 82 82 83 81 76 60 60 77 98 99 99 84 59 29 19 19 20 19 18 19 20 24
81 80 81 85 90 92 90 91 94 95 94 94 93 90 89 90 89 89 87 86 80 81 84 84 86 84 76 66 62 70 92 98 99 98 80 39 21 21 23 22 23 23 26
88 88 88 88 90 94 93 92 95 91 86 88 95 87 78 86 86 90 83 76 76 75 82 86 85 82 76 72 67 65 69 88 96 94 97 90 61 45 27 31 51 62 65
88 91 93 88 90 92 92 92 95 94 91 87 94 98 97 81 80 76 81 82 78 78 78 77 76 76 76 71 69 63 65 72 90 99 100 98 93 77 95 94 96 97 96
82 85 92 92 91 91 87 86 93 93 91 89 93 96 96 82 85 89 82 80 79 80 82 83 81 75 82 83 75 62 64 70 79 91 99 100 100 96 74 94 96 97 98
70 82 82 76 70 66 62 64 69 76 88 89 85 81 85 93 100 98 88 84 82 78 81 76 80 81 83 83 82 76 69 68 79 84 94 99 94 100 99 97 74 84 96
40 41 41 42 42 43 45 47 49 51 60 85 94 87 87 98 97 100 100 93 86 87 87 83 84 75 80 86 86 86 90 82 68 86 98 92 93 99 87 94 90 96 82
37 36 36 36 36 36 35 35 36 39 46 75 99 89 87 98 95 98 100 99 94 86 80 76 72 75 76 81 83 84 89 92 89 76 85 94 98 91 82 85 98 91 97
45 46 47 48 48 46 44 43 42 45 55 56 79 91 91 97 100 100 98 96 99 98 94 71 78 78 77 86 84 83 83 87 88 93 99 98 100 95 96 94 88 98 96
47 48 50 51 52 54 55 55 54 58 85 86 96 98 94 89 99 99 100 93 94 94 95 87 78 78 76 94 95 96 91 86 81 81 82 96 100 100 100 97 96 99 100
55 55 55 54 53 54 57 61 62 71 92 100 100 99 96 80 81 87 98 94 90 100 98 94 88 89 84 89 96 98 95 88 84 82 83 88 99 100 100 97 100 99 100
63 62 60 61 58 56 56 59 64 66 73 91 98 94 97 88 89 92 99 96 97 96 100 100 96 88 87 90 88 88 92 86 84 88 88 88 100 100 98 99 100 99 100
69 67 65 67 63 60 59 61 62 65 68 71 77 79 82 93 98 98 98 98 98 96 97 91 92 86 88 86 81 87 90 87 87 88 98 100 100 100 100 99 99 99 99
77 74 73 73 71 69 68 65 65 65 66 67 73 74 65 68 84 92 97 100 96 93 95 91 92 89 92 86 81 86 88 89 96 96 100 100 100 100 100 98 94 95 98
82 79 79 78 77 75 75 74 73 72 73 74 73 73 77 81 84 87 88 89 94 94 91 88 91 92 87 86 92 88 85 88 88 91 97 98 96 91 97 96 99 100 100
84 85 85 84 82 79 77 77 77 78 79 81 81 82 82 84 86 86 86 87 86 87 88 90 89 89 90 92 92 91 93 92 90 91 93 92 92 93 95 95 99 99 99
91 88 83 79 79 79 79 79 79 79 82 81 80 78 76 76 79 81 82 83 82 83 89 94 99 99 98 95 93 91 90 90 90 90 90 90 90 92 96 98 97 99 99
96 91 89 84 80 75 72 72 72 72 71 71 71 68 67 67 67 66 63 55 52 61 73 79 81 82 82 85 83 78 69 61 55 46 46 41 36 36 38 35 32 28 28
100 97 91 83 77 72 70 69 66 50 29 23 17 13 13 12 9 10 9 9 10 9 9 12 15 18 20 22 23 26 28 29 32 31 24 17 17 16 18 16 14 15 16
100 96 86 79 75 66 32 13 10 9 8 7 7 8 8 8 9 9 10 11 12 13 16 15 17 21 23 26 32 33 34 33 29 23 21 18 21 31 41 40 39 38 39
99 89 81 60 19 12 10 8 6 7 8 9 10 11 11 11 11 11 12 14 15 16 18 18 18 19 22 25 24 29 30 26 23 25 36 50 50 48 48 49 50 50 50
87 76 38 15 12 10 7 6 7 9 10 10 12 13 15 14 14 13 14 16 16 18 20 22 20 19 18 19 20 21 24 28 30 49 57 60 58 60 60 58 59 58 57

GFSMA_850_rhum_060.txt.gz
RH
52 52 47 30 30 32 35 43 52 62 60 52 45 44 47 52 57 57 55 56 55 47 47 70 52 50 52 51 51 50 41 25 16 13 13 14 14 14 14 15 15 15 16
49 50 57 60 49 44 50 62 77 74 71 71 69 70 68 67 71 72 70 71 75 73 59 49 49 57 56 60 54 54 54 48 26 17 14 14 15 15 16 16 16 17 16
58 51 59 67 70 66 64 66 70 72 75 78 78 83 84 79 78 79 80 81 82 81 81 75 66 56 61 66 93 89 71 63 57 32 18 15 15 16 17 18 18 18 21
71 72 73 75 76 76 76 77 79 82 80 87 95 96 95 84 82 83 82 80 83 84 81 80 83 78 67 75 83 97 99 98 82 73 53 22 17 17 17 18 19 22 26
72 76 80 80 81 82 85 84 85 85 93 99 99 92 91 88 85 83 80 85 82 84 87 89 83 85 81 76 72 79 86 93 98 96 85 65 28 19 20 20 19 23 29
81 83 81 81 86 89 88 89 89 95 96 96 98 89 88 87 81 76 73 82 83 81 77 83 90 89 85 82 76 72 75 86 88 90 91 86 81 46 21 22 26 29 35
87 87 87 89 89 87 88 95 98 98 94 97 88 87 96 89 76 69 86 88 78 76 75 77 86 85 84 80 79 72 73 73 79 89 94 92 88 90 80 29 30 83 92
88 87 87 86 87 88 84 85 92 95 94 93 97 100 99 76 76 78 76 79 79 76 78 78 83 83 80 72 74 72 69 67 74 87 98 99 99 99 96 86 52 39 81
72 77 78 81 84 92 91 96 97 97 99 98 91 100 92 72 79 82 85 77 83 78 84 77 79 82 82 85 84 81 75 68 73 79 83 97 99 100 100 99 90 69 47
55 55 60 70 86 93 88 79 71 72 89 95 99 95 97 99 98 94 93 83 79 80 87 87 83 82 80 78 84 87 84 80 73 74 78 89 97 99 99 98 98 99 97
34 34 37 41 43 43 43 42 43 45 50 58 73 98 98 100 99 100 99 87 77 79 80 84 84 77 78 79 84 84 87 88 89 87 78 85 91 99 92 97 97 99 83
31 33 34 35 36 36 35 35 34 34 35 39 47 78 97 99 99 98 99 99 98 92 79 83 80 77 78 77 78 80 82 80 82 89 89 80 96 98 99 97 96 92 99
41 41 42 43 44 45 46 47 46 46 45 48 56 64 75 98 99 100 99 99 97 95 85 81 86 78 78 79 79 83 86 88 88 89 84 84 98 99 98 99 94 96 99
48 48 49 50 51 51 52 55 57 58 61 76 96 98 99 98 99 100 100 100 99 98 90 93 76 83 82 78 79 88 95 92 90 87 83 78 74 83 89 100 97 99 95
51 51 51 52 52 52 52 54 61 63 68 99 96 92 94 99 100 100 99 92 93 99 99 88 88 85 85 84 81 88 92 88 87 84 81 79 76 80 90 100 99 100 100
56 58 57 54 54 55 55 55 59 64 76 98 97 96 99 99 100 99 100 99 92 98 99 93 94 95 90 85 83 87 81 86 89 82 82 81 81 87 91 99 100 98 98
63 64 63 62 63 63 61 60 60 64 70 78 96 91 97 94 92 97 98 95 97 97 94 99 98 90 88 86 88 85 79 86 90 87 86 93 98 99 100 99 99 100 99
74 73 73 69 69 70 68 66 63 63 64 66 71 76 77 75 67 71 85 96 94 98 94 91 88 90 92 86 83 83 83 82 82 87 90 100 100 99 100 100 99 98 94
82 79 79 77 76 74 74 73 71 71 71 69 69 68 67 68 71 75 80 86 87 88 89 91 91 92 90 85 85 86 86 84 81 82 84 88 94 98 98 95 97 94 91
84 83 82 82 80 79 78 77 76 76 76 75 74 75 78 77 78 81 84 85 85 86 87 92 96 94 91 89 89 87 88 89 87 86 85 86 87 88 90 86 86 85 86
90 90 88 85 80 78 78 77 79 79 80 80 78 76 74 69 68 74 74 77 78 76 80 88 97 96 95 91 89 85 84 81 76 77 79 81 82 82 84 86 88 89 89
99 96 92 87 84 78 76 76 76 78 76 74 71 65 55 41 37 26 24 30 27 31 46 57 64 74 68 61 45 36 26 22 44 21 18 17 15 15 15 15 19 25 32
100 100 96 91 82 77 72 72 68 69 59 38 26 16 10 10 7 8 8 8 8 8 8 10 13 17 22 20 21 23 26 26 36 30 17 15 16 14 13 12 11 11 12
99 100 99 87 81 76 74 59 26 13 9 7 6 6 8 8 10 9 10 11 13 13 13 13 15 18 20 21 24 28 28 24 24 35 16 27 36 39 39 38 34 33 33
100 100 92 82 76 36 13 9 7 7 7 7 8 9 10 10 10 12 11 14 16 16 16 16 16 16 16 17 18 22 26 27 41 48 31 43 53 45 47 49 48 47 47
100 98 88 52 18 12 8 6 7 9 9 10 11 12 11 12 11 10 13 16 17 19 21 21 19 19 18 17 17 19 20 23 28 54 46 50 50 52 59 62 53 53 53

GFSMA_850_rhum_063.txt.gz
RH
58 59 70 60 68 72 75 79 82 82 84 82 80 75 69 70 69 66 60 58 62 65 60 55 79 52 49 48 48 49 50 49 34 19 14 14 14 14 14 15 16 16 18
91 79 87 76 70 61 73 78 86 91 92 91 90 86 84 86 79 75 75 75 72 74 76 72 62 56 67 60 61 55 52 52 54 37 19 15 14 15 15 16 17 18 17
93 91 89 89 87 84 77 84 89 92 94 94 94 93 91 90 91 91 81 73 78 76 80 80 78 77 71 70 87 90 85 81 59 59 55 25 15 15 16 17 18 19 20
74 92 94 95 96 96 96 96 96 96 95 94 91 88 87 89 94 96 92 89 86 84 81 76 78 79 79 77 82 90 94 84 80 74 78 69 42 18 16 17 18 20 23
82 75 96 97 97 97 98 98 98 96 94 94 93 94 93 95 96 97 96 95 97 98 83 88 81 84 86 83 82 82 88 91 86 80 78 75 75 64 28 17 17 18 21
90 87 95 97 98 98 98 97 98 98 98 98 97 97 95 97 96 97 94 89 88 95 99 81 81 80 83 88 86 82 78 87 92 92 86 81 80 82 82 62 28 20 21
98 94 96 100 97 100 99 98 97 99 98 96 98 92 88 92 93 80 73 82 85 86 75 75 80 84 85 82 79 81 79 74 82 88 90 100 99 93 93 91 82 46 24
88 90 90 95 100 99 100 100 97 100 100 99 99 99 94 87 76 71 78 77 69 81 80 79 80 79 82 85 80 76 75 74 78 82 98 97 99 98 96 90 89 85 65
80 80 83 86 91 100 100 100 100 98 98 98 98 99 89 80 76 74 78 82 70 76 84 80 85 77 85 81 77 83 82 80 75 77 84 87 91 98 99 99 98 97 90
75 73 64 58 53 57 65 80 88 92 99 98 98 98 98 99 90 80 80 82 86 84 89 85 87 88 75 79 76 79 82 86 85 79 73 75 90 93 97 97 99 98 90
38 35 34 33 33 36 38 41 42 43 43 50 64 98 100 99 98 93 98 83 94 86 88 86 84 86 85 78 74 77 82 84 86 86 85 85 82 97 96 99 99 96 90
30 30 29 30 30 32 34 36 37 37 37 39 40 64 93 99 94 88 94 88 93 95 98 95 75 82 77 71 80 82 77 76 78 77 79 84 91 99 98 96 99 96 94
35 33 32 35 36 38 40 43 46 47 47 51 55 81 98 99 99 99 100 100 93 93 92 96 82 76 75 79 74 77 80 89 89 86 86 86 86 79 77 83 81 86 99
40 39 41 42 44 44 45 46 48 53 56 91 93 92 86 93 98 93 92 87 100 100 96 88 85 85 81 87 81 83 83 83 86 87 86 82 77 75 74 77 85 86 85
46 47 49 49 48 47 47 50 53 65 99 78 90 99 99 99 91 97 100 99 100 99 100 96 94 88 88 91 88 84 83 83 83 82 77 76 78 78 75 72 75 91 98
53 54 56 57 57 55 53 56 57 58 72 88 99 99 100 100 98 92 96 100 98 100 99 98 89 89 93 92 84 86 82 84 79 85 84 80 80 80 83 84 92 99 97
60 63 63 63 63 62 64 64 60 62 69 93 100 98 98 99 98 98 98 99 99 96 94 92 94 94 93 92 89 86 83 81 80 87 85 89 99 99 99 100 100 98 100
64 70 70 70 69 69 71 72 70 70 71 74 83 84 85 90 84 79 78 82 90 90 90 99 96 89 90 88 86 83 79 80 80 83 86 86 100 98 100 100 100 99 100
70 75 79 78 74 73 75 76 77 76 75 73 76 75 76 75 70 71 77 80 80 82 83 87 87 89 89 85 84 80 81 83 84 85 83 83 88 96 93 93 94 97 94
80 84 82 80 80 80 80 79 81 80 79 77 77 76 74 74 76 78 79 82 83 83 83 86 93 97 91 86 83 81 84 83 84 85 85 85 84 86 86 85 87 85 83
88 87 85 85 86 84 81 80 78 81 82 80 80 80 80 76 73 78 74 76 78 80 79 85 98 98 91 80 73 75 74 67 67 46 59 72 77 80 79 79 82 82 83
98 95 95 93 89 82 77 78 80 79 79 81 78 72 63 43 33 28 22 30 32 26 32 48 63 93 92 68 57 34 26 18 34 35 22 14 12 12 13 13 12 14 16
99 99 99 99 92 84 77 76 76 74 75 72 58 32 16 11 6 7 6 6 6 6 7 9 19 27 32 27 24 25 28 26 34 35 17 11 15 12 11 12 10 10 10
99 100 99 100 93 83 80 75 73 62 34 19 11 8 7 8 9 8 7 8 8 8 9 12 13 12 14 17 21 21 22 19 22 52 25 17 28 30 32 33 31 30 30
99 100 99 100 89 82 81 51 19 12 8 7 8 9 10 10 10 9 9 10 11 12 12 12 12 11 12 12 15 17 16 20 22 51 30 37 42 37 38 41 40 41 43
100 100 100 98 87 55 16 10 7 7 9 10 10 11 11 10 9 9 10 13 14 19 17 15 14 13 13 13 13 14 17 18 22 41 53 46 43 44 43 58 46 46 47

GFSMA_850_rhum_066.txt.gz
RH
66 56 58 59 52 58 60 68 65 66 77 79 78 71 66 64 64 65 64 63 64 65 68 71 67 77 61 58 55 48 46 47 48 45 27 15 13 14 14 15 15 16 18
84 61 84 68 56 52 48 54 63 86 84 85 88 85 85 81 78 77 72 67 67 70 75 78 79 78 71 69 69 65 62 57 51 51 49 30 17 14 15 16 17 18 19
90 83 75 88 72 66 62 67 74 79 81 79 78 82 87 87 84 83 85 74 68 69 72 77 80 80 78 76 77 80 84 84 79 67 59 56 42 20 15 16 17 18 20
78 80 76 70 82 90 86 80 78 81 84 87 85 86 90 89 89 89 87 87 89 89 82 82 85 88 87 85 81 91 95 90 90 84 77 72 67 62 29 17 16 18 21
77 70 77 85 88 90 90 91 87 93 96 96 92 90 87 88 90 88 92 96 96 94 95 97 84 87 85 91 93 86 86 90 93 90 88 80 78 74 73 51 23 18 20
86 84 82 89 97 96 97 97 95 92 91 91 90 89 88 93 92 92 83 84 88 88 86 95 85 78 83 89 92 93 88 82 88 94 95 93 86 81 81 81 79 68 35
95 94 88 98 98 98 98 99 98 95 94 92 92 96 95 89 92 86 89 88 76 87 87 80 74 80 83 83 86 84 82 83 82 90 92 99 99 98 97 91 88 86 79
93 96 95 94 98 98 96 96 98 91 90 90 90 90 89 79 76 67 78 85 80 79 79 82 80 83 84 83 84 79 80 80 76 87 88 91 93 99 96 94 87 84 88
98 88 80 89 98 99 95 97 98 97 92 86 85 93 94 78 77 78 76 80 80 76 80 83 84 87 86 77 78 78 78 77 80 76 76 82 89 92 95 97 98 88 91
66 72 79 79 70 60 56 54 59 76 94 95 87 96 95 93 94 86 75 76 83 82 89 88 86 93 88 82 76 77 78 77 77 83 84 80 74 78 93 94 98 99 99
66 51 42 36 34 32 31 31 33 36 41 45 48 75 93 92 92 97 91 86 78 85 81 94 95 85 78 79 79 77 79 79 81 80 82 80 82 89 88 91 91 95 100
34 32 30 30 29 30 31 33 35 37 39 43 45 44 79 93 98 98 99 99 93 90 86 95 88 89 83 74 74 80 81 81 78 78 77 75 80 84 73 71 89 90 91
33 32 30 32 33 36 40 43 46 48 51 52 53 72 99 99 90 91 100 96 95 96 97 100 97 87 83 78 78 82 79 79 79 77 84 87 84 86 85 85 85 88 89
37 34 35 38 42 44 46 47 48 49 54 59 68 87 94 100 97 94 90 91 87 100 98 99 93 89 89 85 86 88 86 85 83 80 78 76 83 79 76 71 73 70 67
38 41 43 46 48 50 51 50 50 51 55 63 66 78 84 98 99 97 94 83 98 100 98 99 99 92 95 90 93 95 92 85 85 80 79 75 73 73 75 75 75 72 72
43 46 48 50 52 53 53 52 52 53 58 70 98 98 98 92 99 97 100 86 100 100 100 99 91 100 100 95 93 91 94 85 81 82 79 85 83 87 85 96 100 99 99
48 50 52 55 58 59 58 59 56 60 62 75 99 98 98 98 97 99 100 92 90 96 98 100 100 100 99 97 94 94 87 82 78 79 83 86 96 99 98 98 98 96 96
53 57 58 62 65 64 66 67 67 70 70 70 85 97 99 100 99 96 93 94 93 94 96 98 100 97 93 94 90 88 82 78 81 82 83 84 86 99 98 97 98 100 100
59 59 66 70 72 72 71 73 76 76 78 78 79 77 82 86 82 76 72 71 79 81 87 89 91 91 87 87 86 85 79 79 80 84 85 84 84 90 97 94 89 87 84
60 67 70 73 76 78 77 77 79 80 82 85 84 80 76 76 75 75 77 79 80 81 81 80 83 95 94 81 80 78 79 78 76 80 80 78 82 84 87 87 85 83 84
66 72 78 84 83 83 82 82 83 83 83 85 86 86 83 79 76 75 76 75 76 75 77 79 79 92 72 52 50 50 57 55 40 27 24 27 32 47 58 66 72 75 78
81 88 91 90 88 89 85 82 82 86 85 86 86 88 85 80 66 57 51 39 39 34 34 44 43 34 48 43 21 18 18 14 14 15 16 20 12 11 12 12 10 9 9
98 99 99 99 100 97 88 81 80 86 85 86 80 76 56 27 12 8 7 6 6 6 7 8 16 20 26 23 21 18 16 16 14 15 11 12 10 15 12 14 15 18 16
98 99 99 99 98 100 88 82 81 85 85 78 52 23 11 8 8 9 8 8 8 9 11 11 13 15 16 16 15 15 16 14 15 15 17 13 17 22 26 27 29 29 30
99 100 100 100 99 98 90 85 83 62 31 16 8 8 10 10 12 10 8 10 9 10 11 11 12 13 12 12 12 11 11 12 11 20 22 30 28 29 31 32 36 38 38
98 99 99 99 100 94 89 60 20 11 9 9 11 11 12 12 10 10 9 9 12 11 13 15 16 14 12 12 11 10 11 12 14 23 39 39 35 37 36 36 41 41 42

GFSMA_850_rhum_069.txt.gz
RH
49 42 44 42 37 31 32 37 40 49 48 64 62 66 65 67 68 68 64 65 65 68 71 74 75 74 78 71 67 66 63 55 50 50 48 31 18 14 14 14 15 16 18
62 56 54 56 48 44 46 46 51 62 76 78 81 82 76 79 79 76 72 70 72 72 75 77 81 84 86 84 74 69 67 73 76 64 57 56 42 21 15 15 16 17 18
66 61 58 59 60 57 58 56 62 72 78 81 80 81 81 88 90 90 89 84 80 85 88 88 86 86 88 86 87 89 90 88 83 83 80 73 64 56 28 17 16 18 20
72 63 58 64 69 71 74 76 74 72 75 80 83 89 90 90 87 88 90 91 93 96 91 91 94 91 88 92 91 90 92 98 98 92 90 86 78 68 63 32 19 19 21
79 68 63 70 75 81 86 86 86 88 93 94 93 88 84 83 82 82 87 92 93 85 82 82 89 90 86 87 89 90 92 92 95 100 99 95 90 81 74 72 53 27 22
83 76 78 80 87 94 95 97 98 94 90 89 89 87 87 89 87 90 87 82 84 88 92 86 84 92 76 81 87 90 88 90 89 93 99 100 100 91 86 81 78 77 71
92 89 88 90 96 98 97 96 95 92 88 85 87 83 82 80 76 79 73 71 93 93 80 90 92 81 78 82 81 83 84 82 81 84 95 97 99 99 98 94 91 85 81
97 98 98 95 98 98 98 97 98 90 87 88 83 82 84 78 70 71 70 67 90 91 86 85 73 79 83 85 81 75 76 78 78 76 82 89 96 99 100 98 95 91 85
94 97 100 100 100 99 96 96 98 99 94 89 86 88 95 86 84 79 79 77 87 83 78 79 77 84 86 86 77 76 74 74 74 75 76 78 80 88 94 98 99 100 95
82 84 86 79 90 98 94 79 75 76 90 69 66 76 92 99 97 96 82 75 81 82 87 84 84 89 84 85 82 73 72 78 77 78 77 80 83 82 83 87 92 94 99
69 66 73 92 88 58 39 33 32 33 36 40 42 43 49 61 90 99 93 73 80 82 86 94 86 79 82 81 76 75 69 69 77 80 79 77 82 92 80 83 86 89 91
79 80 52 37 32 30 30 31 33 36 39 42 44 47 49 52 63 88 86 87 82 80 90 99 96 90 89 88 81 77 76 77 77 74 75 76 76 75 73 81 79 81 86
70 40 32 31 31 31 32 35 39 43 46 49 52 56 60 71 96 98 91 91 86 90 99 100 97 98 98 94 86 84 84 84 82 80 78 74 71 83 84 81 80 80 79
37 30 31 31 34 34 38 42 43 44 46 48 51 60 76 98 95 100 96 99 100 93 92 99 100 99 98 93 93 90 92 92 91 83 82 76 71 62 74 79 74 68 65
32 34 32 34 37 38 44 46 48 48 48 48 53 68 68 92 98 98 98 99 100 100 85 98 100 100 100 93 93 96 99 97 91 83 79 77 81 92 94 85 92 77 69
36 37 37 41 42 44 49 51 52 50 50 51 54 62 78 97 92 94 92 92 96 99 100 100 100 100 91 86 97 98 96 88 84 81 79 84 84 96 99 99 100 98 98
37 40 40 46 49 52 54 56 58 57 55 55 57 68 94 99 93 94 99 98 100 99 100 98 99 98 94 100 100 96 90 83 79 80 79 81 93 99 98 98 99 95 95
40 43 49 54 56 56 58 63 67 64 63 62 60 66 92 99 98 98 98 100 100 100 100 100 100 100 100 99 98 94 86 85 78 81 81 79 84 86 94 98 96 97 96
50 53 56 54 58 62 68 73 74 73 76 77 76 76 80 82 84 88 87 82 74 82 88 91 97 99 99 98 91 88 87 84 79 80 84 80 82 82 80 89 93 88 87
57 58 56 60 65 70 76 80 83 81 81 85 88 88 88 88 90 87 84 80 78 79 81 85 89 96 96 93 88 86 83 83 80 77 74 69 70 74 80 80 84 84 83
60 56 61 69 76 83 84 86 88 88 87 89 90 90 90 86 79 78 78 79 79 79 79 79 81 88 80 63 50 59 65 59 49 34 26 20 17 18 20 26 48 70 75
59 64 72 81 84 86 88 87 89 89 88 90 91 94 92 89 85 78 78 76 70 63 60 58 68 50 36 40 39 31 18 16 14 13 15 19 14 12 12 11 10 8 7
63 72 82 100 99 98 100 96 89 96 99 99 98 99 92 80 44 19 10 8 6 6 5 9 15 23 22 24 29 17 13 12 13 13 11 12 10 11 14 16 17 21 19
73 86 96 99 99 99 99 99 89 95 100 100 94 87 57 23 9 10 9 9 9 10 10 11 12 14 14 16 19 14 14 14 14 12 15 14 15 22 27 28 30 31 29
80 96 99 99 99 99 99 94 87 89 89 84 58 25 11 11 12 13 11 10 10 12 14 11 10 10 10 11 10 10 11 11 12 13 22 25 26 28 30 32 35 36 35
90 99 99 99 99 99 100 90 87 64 36 18 10 10 12 12 12 12 10 10 12 14 15 14 14 13 12 12 10 10 11 12 13 17 30 35 31 32 36 36 41 38 39

GFSMA_850_rhum_072.txt.gz
RH
45 34 31 34 34 32 34 35 39 41 43 54 62 69 72 70 67 67 67 67 70 73 74 75 76 76 81 82 78 73 73 73 71 60 54 51 38 22 16 16 17 18 19
59 52 46 44 43 38 39 41 43 48 59 67 70 74 74 73 75 81 84 81 81 83 87 89 87 85 85 87 82 81 83 83 81 84 78 67 60 46 25 17 17 19 20
73 62 54 50 55 55 54 55 53 58 68 73 76 79 80 82 86 89 85 86 88 90 96 91 89 92 91 76 81 88 94 95 91 91 90 87 78 66 60 30 19 18 19
80 70 63 57 67 73 74 74 70 72 75 79 81 85 87 86 87 83 82 82 88 91 91 82 81 86 81 80 78 84 87 94 99 100 100 95 92 82 72 65 35 22 20
86 80 71 66 72 75 82 87 91 91 88 90 89 88 87 88 81 82 81 86 89 94 93 86 79 83 87 89 75 78 82 89 96 98 99 99 99 97 87 76 72 53 37
88 88 78 73 80 84 91 94 94 95 91 88 89 85 84 86 85 77 77 79 78 89 90 88 87 84 94 86 79 78 78 81 85 86 93 94 99 99 99 92 84 79 76
88 91 83 81 82 90 94 92 95 92 89 89 84 82 81 79 79 73 72 72 69 76 76 79 79 83 86 74 80 82 77 78 79 81 86 90 97 100 99 98 95 90 87
89 95 92 89 90 92 96 95 96 95 95 86 84 82 83 82 75 67 72 74 68 79 73 86 87 79 74 75 78 72 72 72 72 73 74 75 81 90 97 97 92 91 90
90 93 94 96 98 99 98 98 99 96 92 92 92 94 93 86 88 84 82 82 80 81 88 81 80 79 73 83 80 78 76 76 74 76 75 74 74 78 82 90 98 99 97
88 92 95 99 98 100 100 99 99 98 87 82 74 93 78 95 98 86 83 84 90 86 86 85 89 85 90 90 84 84 70 73 68 66 78 80 84 94 93 92 89 82 87
69 78 74 82 80 74 83 85 71 47 42 37 38 38 40 46 67 99 94 97 82 75 84 84 91 96 96 90 86 80 78 74 69 71 79 80 78 78 90 94 82 85 84
61 59 60 55 61 62 48 33 30 31 33 34 38 42 44 52 54 60 85 97 89 80 81 83 95 89 97 93 92 90 82 79 76 76 75 72 68 71 73 74 72 77 75
57 53 58 61 49 32 30 30 32 31 36 39 41 44 48 51 58 62 90 97 97 86 89 98 96 97 99 96 96 93 88 85 84 82 82 77 68 66 61 74 81 82 80
46 50 59 43 32 35 33 31 33 36 41 43 44 47 49 55 58 76 93 92 99 85 98 99 98 99 99 97 98 96 91 92 90 88 87 78 70 64 57 62 81 80 74
71 65 39 43 34 34 35 35 39 44 46 48 48 50 51 60 74 74 98 96 96 99 88 97 100 96 96 100 100 91 89 97 98 90 83 79 74 86 99 97 100 99 85
49 48 47 42 36 36 39 45 47 48 50 52 51 54 63 76 82 89 96 93 98 99 100 100 98 99 100 100 100 90 91 98 97 85 81 78 78 95 99 98 99 100 99
51 44 55 55 50 46 48 50 51 53 56 58 58 59 65 75 93 99 92 96 100 89 97 100 99 100 100 100 96 98 99 87 84 80 83 82 85 100 98 99 99 99 98
52 51 55 55 51 50 53 55 59 61 61 65 67 69 71 83 100 99 97 97 99 100 100 98 100 100 99 98 98 100 86 84 82 76 81 83 88 95 97 99 99 98 94
50 53 57 58 56 55 54 56 60 65 70 73 73 77 79 87 96 100 100 99 100 100 100 100 99 100 98 99 98 91 88 86 83 77 76 78 82 87 87 90 94 94 93
55 57 58 58 56 57 59 60 65 74 76 80 86 88 90 89 92 98 99 100 93 82 82 99 100 100 100 99 89 86 85 85 81 82 81 75 71 73 76 82 84 92 88
59 60 61 58 57 59 64 71 78 81 83 87 89 93 96 97 92 90 89 87 86 86 86 89 95 97 99 88 68 68 79 75 72 58 51 33 23 19 18 29 49 69 78
63 63 61 59 63 70 71 76 84 89 91 95 96 98 97 96 92 90 86 83 84 82 79 78 81 80 68 43 37 39 32 28 20 16 23 22 18 14 12 13 12 10 9
65 63 60 65 73 83 98 99 98 96 99 100 99 100 100 98 88 66 38 26 21 20 19 18 22 34 30 33 35 27 21 18 16 15 16 14 13 13 15 15 16 21 19
67 63 67 74 85 97 98 98 99 100 100 99 99 100 99 86 52 16 11 8 10 10 10 9 10 16 18 22 23 20 16 16 16 16 14 15 14 19 23 28 28 30 26
70 69 75 83 97 98 98 95 99 96 100 100 100 96 78 28 11 12 12 12 13 11 12 11 10 10 12 12 13 13 12 12 11 12 16 19 23 27 29 31 33 32 31
72 76 83 97 99 99 99 99 98 92 96 92 83 44 13 11 14 14 12 11 12 13 13 16 16 15 13 13 12 11 11 11 10 11 16 26 30 31 33 35 39 37 36

GFSMA_850_rhum_075.txt.gz
RH
51 43 36 34 34 30 35 39 50 52 55 56 66 69 72 71 72 74 74 78 78 81 85 89 88 83 76 77 74 79 84 81 76 77 72 63 57 45 27 19 17 17 18
53 47 38 42 46 42 43 48 52 55 58 69 75 76 80 78 78 80 82 82 85 88 92 96 91 90 88 86 75 76 79 84 86 88 87 82 77 65 54 33 21 18 18
72 63 61 52 53 51 50 52 52 55 60 71 76 80 83 84 85 86 85 80 82 83 92 93 86 82 85 76 74 77 87 92 94 96 95 93 91 83 71 62 37 23 19
87 83 75 60 60 63 62 61 66 66 71 75 77 82 88 88 84 82 81 80 82 85 87 91 86 80 84 85 78 72 75 88 92 98 98 99 100 94 87 75 66 42 27
90 90 84 72 68 69 74 79 84 87 86 85 87 88 86 85 86 83 82 79 78 83 90 94 90 77 83 86 80 72 74 80 85 87 94 98 97 99 96 91 80 71 56
87 91 90 83 75 75 79 86 88 86 90 88 86 85 82 80 81 81 80 76 76 76 76 79 88 82 85 85 84 72 77 79 80 84 85 87 94 96 98 99 96 84 78
86 89 90 88 78 81 83 86 89 91 89 88 84 83 79 79 77 67 67 66 69 76 73 75 75 84 91 84 72 77 82 75 72 74 76 76 76 86 94 96 98 97 90
87 87 89 94 88 86 91 92 90 89 91 91 86 86 86 76 67 67 63 58 74 74 77 73 75 87 87 76 68 81 80 76 75 73 75 74 73 73 78 94 99 95 92
86 85 84 89 94 96 94 94 96 95 92 90 85 88 86 81 83 80 86 77 79 78 87 86 90 86 81 83 72 84 85 83 79 69 67 66 79 77 74 75 82 90 99
86 80 88 93 96 98 98 99 97 98 99 88 90 90 91 95 100 82 76 84 81 79 88 90 88 78 80 86 85 85 88 77 73 68 63 65 82 97 90 89 92 89 88
85 87 86 84 86 81 74 66 62 81 82 69 37 34 37 41 45 72 74 48 76 70 86 88 88 88 87 89 80 92 86 80 75 71 70 73 77 73 72 80 94 84 86
88 88 82 69 59 59 62 61 56 49 40 34 35 35 38 45 55 60 68 69 67 78 96 93 87 85 89 97 89 95 95 89 83 79 76 75 73 69 63 65 66 73 68
71 84 71 60 53 51 56 46 32 32 34 36 38 43 46 49 58 70 82 80 92 89 94 95 90 90 98 92 95 98 97 91 90 88 84 82 79 66 60 60 60 77 79
63 71 68 63 64 61 52 34 35 38 38 40 44 47 48 52 58 70 86 95 99 100 96 98 92 96 91 96 96 98 99 94 88 93 82 80 70 66 69 69 64 93 86
63 67 59 65 69 51 44 48 40 42 42 43 45 47 52 55 58 60 82 81 94 100 97 99 99 94 98 100 100 100 100 93 86 96 93 80 74 70 99 99 98 97 100
54 52 52 51 47 52 50 43 45 47 48 49 52 53 55 57 62 72 76 82 92 94 92 94 92 96 99 95 100 100 100 94 94 88 86 74 75 67 98 96 96 97 99
60 56 56 54 53 52 44 47 52 53 54 56 55 56 58 64 69 77 94 98 90 94 99 94 99 99 100 100 100 100 100 99 96 83 79 76 78 74 98 98 97 98 99
64 62 59 51 48 48 48 52 55 59 58 58 61 66 69 73 76 88 96 96 93 98 100 100 100 100 100 100 100 100 99 98 87 84 83 79 81 85 82 96 98 98 98
58 55 54 54 53 54 56 57 58 58 61 64 69 77 79 84 86 98 99 98 98 98 98 100 100 100 99 100 99 98 98 86 87 86 79 78 81 82 82 88 97 94 93
58 55 55 55 57 59 58 58 60 64 68 71 79 82 88 91 92 99 100 99 98 98 100 99 98 100 100 98 99 100 88 86 89 87 81 77 73 72 75 77 87 93 94
60 59 60 61 62 61 59 61 63 67 73 80 83 87 89 94 97 96 97 97 97 97 97 96 99 99 99 100 99 90 77 83 82 81 72 56 42 28 20 29 53 68 78
65 65 64 63 63 61 64 71 68 71 82 91 97 100 100 100 100 92 94 92 88 85 96 100 100 100 99 98 85 50 47 55 48 26 23 18 18 19 17 16 14 12 11
66 68 66 66 64 66 72 81 92 100 99 100 98 99 100 98 100 97 83 56 56 66 63 79 84 76 63 52 44 46 39 30 24 17 16 17 14 13 13 15 14 13 13
68 67 68 67 68 73 83 91 98 98 98 99 99 100 97 100 99 80 37 15 11 11 10 10 10 31 40 33 35 32 28 22 20 16 16 15 15 13 16 21 24 24 24
72 71 71 69 72 79 89 98 97 98 98 99 99 98 99 100 73 22 12 13 14 15 15 14 12 14 21 17 18 18 18 17 14 13 15 18 19 21 25 28 29 30 28
76 75 73 72 78 90 98 98 96 99 99 100 100 100 95 63 19 18 21 16 16 15 16 17 18 15 14 13 12 12 12 12 11 11 17 22 26 29 31 35 37 37 35

GFSMA_850_rhum_078.txt.gz
RH
44 42 43 36 32 31 32 32 36 46 53 54 60 68 74 74 74 74 75 80 84 87 88 91 90 83 80 78 76 68 74 83 85 83 81 77 71 62 51 35 23 18 18
55 56 48 39 41 39 42 41 48 49 54 56 67 71 74 74 74 75 79 81 83 83 87 91 85 84 84 84 70 72 76 76 79 83 92 89 85 78 70 60 41 24 19
53 66 60 50 52 53 50 52 53 54 57 62 71 75 77 79 83 84 84 79 79 81 80 80 78 87 79 81 76 73 70 80 93 98 99 99 93 88 84 74 62 40 26
76 81 77 71 64 63 59 58 61 62 65 72 76 81 87 88 86 81 85 80 79 77 77 77 77 88 79 75 77 73 72 73 77 81 88 94 98 100 92 90 79 67 43
79 86 87 82 78 70 70 74 76 80 82 84 85 87 85 85 85 81 78 82 79 79 76 84 88 93 82 81 80 75 73 73 76 77 77 85 94 95 98 97 93 82 70
84 87 92 93 87 80 76 77 83 91 87 91 87 84 82 83 80 80 75 74 72 73 76 77 76 79 80 84 86 79 70 77 79 76 73 75 79 84 94 98 99 98 86
76 80 87 96 96 88 79 82 89 88 86 88 85 80 82 80 69 65 60 56 53 52 66 75 70 76 82 92 89 69 64 78 76 73 71 74 73 72 77 94 94 96 93
77 84 86 88 94 94 90 94 90 87 89 90 88 87 82 66 59 60 67 66 66 68 77 77 78 73 87 90 80 67 68 80 79 77 76 74 70 71 73 72 80 99 99
83 79 80 84 85 90 90 91 92 90 89 90 94 94 88 76 83 79 71 72 78 75 76 74 74 84 90 83 78 78 75 84 85 82 71 70 67 78 79 77 76 81 96
78 82 84 82 82 83 90 85 85 83 84 88 94 100 98 98 98 79 49 60 70 78 85 85 87 85 82 82 74 87 92 87 87 74 74 67 64 67 82 88 93 94 98
75 85 87 86 86 90 85 81 75 77 75 66 55 55 48 41 45 56 52 43 56 66 72 71 89 88 86 87 83 83 82 91 84 81 78 74 69 62 62 62 72 86 85
62 70 76 93 95 95 78 78 72 66 56 51 43 35 35 38 47 57 72 65 61 63 69 72 97 99 92 91 95 96 95 95 89 88 84 80 79 70 65 61 58 57 59
71 70 69 67 78 70 74 75 62 56 65 42 37 38 41 43 51 56 67 79 92 75 87 86 91 91 92 97 97 94 90 94 96 91 83 79 71 69 61 56 55 57 61
79 80 84 76 66 65 74 72 61 50 43 42 44 42 43 48 54 58 64 91 99 99 90 94 94 99 97 99 97 93 94 99 99 90 88 87 77 69 72 95 82 87 92
77 75 72 66 64 62 56 56 62 44 45 45 43 47 51 52 54 58 68 70 100 100 95 96 85 90 99 100 100 100 99 100 100 95 91 89 82 71 95 99 98 98 99
66 70 69 70 65 60 63 59 54 56 44 44 46 50 53 57 62 66 70 82 84 98 100 99 94 87 96 100 100 100 100 100 99 98 96 85 73 72 72 96 97 97 97
64 66 73 79 81 75 58 57 55 46 46 48 53 57 59 60 63 67 76 84 89 97 96 96 92 99 94 100 99 100 100 100 99 99 83 83 78 77 71 99 98 97 98
78 80 74 64 63 59 57 51 50 49 50 52 55 58 63 69 71 74 78 93 97 92 95 100 100 100 100 100 100 100 100 100 100 92 79 81 79 80 76 92 99 98 97
72 69 65 63 60 56 55 51 51 52 54 55 57 60 65 72 79 86 93 98 98 98 96 94 96 98 100 100 100 100 99 98 98 91 88 83 76 76 78 84 88 97 96
66 62 60 59 57 55 55 57 57 58 58 60 63 68 76 83 96 99 100 99 97 99 98 99 99 99 100 100 100 100 98 100 88 90 88 82 73 73 76 77 86 92 93
69 66 63 60 59 60 61 61 58 56 58 60 65 76 87 95 100 100 100 100 98 98 98 98 97 97 99 100 99 98 99 99 90 91 86 77 68 57 47 42 57 68 77
71 68 65 64 64 62 61 58 57 62 66 62 72 99 100 100 99 99 100 99 99 100 100 100 98 96 99 99 97 100 99 69 82 74 68 51 30 21 18 17 16 14 13
71 70 68 68 64 65 62 61 62 68 78 92 98 98 99 99 99 99 100 91 64 76 92 100 99 100 100 100 85 79 55 49 40 28 20 16 17 16 14 14 12 11 11
72 71 70 67 66 65 63 64 66 69 87 98 98 99 99 97 99 99 90 50 21 14 13 15 27 44 45 76 40 44 51 38 27 23 20 16 14 15 15 16 17 18 22
76 74 73 70 69 67 65 64 66 82 94 97 99 99 99 98 99 98 52 18 16 17 17 15 14 16 18 32 29 26 28 24 20 17 17 18 18 16 18 24 26 26 28
81 80 77 76 73 69 69 68 73 89 93 98 99 99 98 100 100 47 18 18 17 17 18 20 17 16 15 13 12 12 12 13 12 11 12 19 21 25 29 29 30 32 31

GFSMA_850_rhum_081.txt.gz
RH
38 35 34 35 34 34 33 34 36 37 42 51 53 61 67 69 68 69 70 74 79 84 87 91 87 84 76 83 79 63 65 70 76 78 81 81 77 72 65 53 32 21 19
46 43 44 44 38 35 32 34 38 50 54 55 56 68 73 76 75 75 78 80 81 80 84 81 80 79 80 80 78 73 75 66 66 75 76 85 87 82 77 71 57 33 21
46 53 55 50 40 47 43 44 45 53 56 58 68 73 76 76 80 83 82 82 78 78 76 76 76 73 73 77 74 80 76 69 68 68 80 92 98 92 81 82 74 58 33
38 50 63 61 56 58 57 53 54 57 59 64 72 77 83 85 84 83 82 78 81 78 78 78 75 75 79 82 72 77 81 69 63 68 73 77 89 96 98 89 89 76 62
46 71 83 82 85 72 66 65 63 65 71 78 84 84 83 83 83 78 82 80 78 78 74 74 74 79 80 80 78 75 85 74 67 70 72 74 78 85 92 96 96 90 82
79 84 87 92 93 88 77 79 80 84 90 88 89 86 85 80 81 79 70 71 70 63 53 61 71 77 74 77 79 82 84 68 66 76 73 70 71 74 78 89 94 98 88
81 90 88 86 90 91 84 82 86 91 91 84 88 80 82 81 65 64 52 48 54 50 47 64 74 70 72 75 80 80 75 66 68 78 75 75 74 73 70 69 81 98 94
79 82 87 82 84 92 95 89 90 91 84 87 84 82 85 75 59 61 70 67 45 58 59 76 76 76 74 75 80 80 76 75 78 82 79 76 72 67 64 63 67 70 93
88 81 86 84 83 81 82 90 89 86 89 83 88 85 80 83 84 81 71 57 51 69 57 58 73 62 75 80 86 77 74 74 83 90 85 75 71 66 63 68 87 84 81
84 93 85 81 85 89 95 86 89 87 84 84 81 84 77 86 92 91 46 42 50 50 62 66 66 83 82 80 78 79 78 78 93 92 82 75 75 71 69 56 77 98 94
87 82 80 76 86 87 98 100 94 87 78 70 80 72 63 59 42 47 51 40 50 57 63 58 63 71 82 84 88 87 84 92 94 91 84 83 82 78 70 61 56 65 93
87 92 78 73 70 82 87 96 82 75 70 77 68 68 58 40 40 48 56 47 50 53 62 67 65 72 87 93 96 91 88 94 98 97 96 88 83 74 56 57 56 59 59
69 75 75 74 77 74 72 74 68 74 67 65 55 54 46 40 42 47 55 75 89 61 66 77 73 83 86 87 96 99 98 96 92 94 95 92 83 79 66 59 57 56 61
68 72 78 82 70 84 82 75 73 75 76 71 48 42 42 42 46 49 54 67 99 97 94 95 78 89 92 98 99 98 98 87 89 92 96 93 86 84 72 87 93 87 92
69 72 78 80 76 81 74 74 79 74 63 56 47 45 42 44 47 50 56 69 87 99 96 95 88 90 86 94 100 100 100 98 100 100 99 98 88 75 70 92 97 96 97
63 68 73 70 75 80 78 78 72 67 61 54 51 46 47 48 50 53 57 68 77 99 99 98 94 94 89 89 98 100 100 100 100 99 99 99 93 76 74 74 93 95 91
58 69 74 73 75 78 81 77 75 63 58 53 48 49 50 52 52 56 62 68 78 95 100 99 99 87 86 99 96 100 100 100 100 100 99 98 76 82 81 73 85 95 95
52 74 84 85 84 89 86 76 63 58 52 50 51 53 54 55 56 61 67 75 81 100 100 100 96 94 99 100 100 100 100 100 100 100 99 96 83 87 83 82 89 98 96
62 81 90 88 79 70 65 63 58 55 54 54 55 54 54 54 59 66 79 88 98 97 97 96 93 92 90 97 100 100 100 100 100 99 98 89 89 87 84 80 86 94 95
72 73 73 72 70 65 62 60 58 57 56 56 54 51 52 58 65 75 96 99 98 99 99 99 98 97 96 96 97 100 100 100 100 99 94 92 90 85 83 83 87 89 89
74 72 70 68 65 63 60 58 57 58 56 53 50 49 51 61 84 99 100 99 99 99 98 100 100 99 99 99 99 100 99 100 98 99 92 92 87 81 74 68 72 74 78
77 76 72 69 64 61 60 60 59 57 54 53 52 49 56 86 97 99 99 99 100 99 97 99 99 99 99 99 100 99 100 99 99 73 82 83 77 63 42 27 20 17 18
78 77 73 69 67 67 65 61 57 54 54 56 56 54 76 95 98 98 98 99 100 92 94 100 99 99 99 99 99 99 98 95 67 54 32 20 19 19 19 20 16 14 12
81 79 75 72 71 68 63 60 57 55 54 57 64 86 99 99 99 99 99 98 67 40 20 20 43 67 86 79 76 75 60 50 49 35 24 21 16 14 15 16 16 15 16
82 78 76 75 74 71 67 63 60 61 61 69 81 96 99 99 99 98 100 88 42 18 15 14 14 15 18 29 39 40 38 32 34 21 18 16 15 15 15 17 18 22 24
84 84 82 80 80 77 74 70 65 63 60 71 87 100 100 99 99 100 92 31 17 17 18 17 17 16 15 17 17 14 19 18 16 13 11 14 14 16 21 22 24 28 29

GFSMA_850_rhum_084.txt.gz
RH
30 32 34 34 35 34 35 36 37 38 38 41 51 55 72 77 79 68 71 68 73 78 83 86 82 80 81 81 79 68 65 63 65 70 69 72 76 76 74 66 47 27 20
33 32 32 33 34 35 35 35 36 38 50 57 82 76 79 72 76 76 81 83 77 77 76 79 78 76 74 76 74 77 76 66 59 62 67 73 77 82 85 82 70 50 28
47 44 44 48 49 45 41 38 38 46 62 57 69 84 86 91 89 90 92 91 86 77 79 75 73 72 74 80 78 83 79 78 67 62 64 72 85 84 93 90 88 74 51
72 58 66 67 62 49 50 48 52 55 64 75 80 87 90 92 92 89 88 88 89 86 86 74 79 80 77 75 80 83 84 80 74 62 64 68 70 83 96 98 91 87 77
85 63 46 61 72 61 61 60 58 61 81 76 77 88 92 92 89 87 82 84 90 74 84 84 64 74 75 78 77 78 81 81 78 66 66 69 66 68 76 90 95 92 89
63 58 46 80 87 82 75 68 64 61 75 84 94 92 89 87 85 85 82 86 85 59 56 49 50 76 71 77 73 79 78 86 75 66 68 72 69 66 67 72 79 92 92
82 82 75 89 95 93 86 76 75 81 83 94 90 82 83 85 84 80 80 63 66 43 40 45 69 78 82 71 76 79 79 85 72 70 77 80 76 75 73 72 69 66 91
83 86 85 97 98 95 94 89 85 91 94 91 84 90 76 74 78 70 78 52 50 34 44 43 60 78 76 66 74 76 86 84 76 75 82 87 83 75 67 66 62 62 63
82 80 87 85 88 98 99 100 95 91 87 82 82 83 78 68 77 74 80 62 40 50 51 47 53 67 62 77 82 83 87 82 77 81 89 90 82 74 71 67 66 61 72
89 91 91 92 86 95 99 99 93 90 93 89 85 82 80 87 77 67 80 61 45 49 48 49 52 49 71 85 87 84 80 82 80 81 94 87 82 78 78 76 64 62 81
78 89 93 90 81 90 98 98 100 91 97 100 92 84 79 62 58 64 61 66 58 67 54 49 55 54 56 76 84 84 83 85 84 90 96 90 84 86 82 70 54 47 57
83 77 82 90 93 93 94 88 81 91 98 85 77 77 79 84 65 41 51 70 75 75 55 53 52 59 64 73 88 88 88 89 84 97 97 96 93 91 81 71 58 44 47
81 72 70 74 85 89 90 91 88 81 76 71 70 82 81 67 47 45 47 42 52 56 71 81 62 68 68 84 82 92 96 98 99 100 98 97 98 94 85 79 66 58 56
79 76 80 85 87 89 74 75 73 71 76 80 77 80 72 46 45 46 43 50 78 82 73 88 83 68 82 82 95 94 98 100 100 93 96 97 97 96 90 78 91 89 95
74 72 74 81 86 87 83 83 80 78 74 79 90 65 49 49 43 43 45 50 64 88 78 85 97 76 91 90 93 91 100 100 100 100 96 100 99 99 94 71 93 97 91
65 67 68 76 80 78 78 78 73 77 84 91 70 55 53 48 45 45 47 52 59 91 96 94 97 85 85 89 89 95 100 98 98 99 100 99 100 99 86 70 76 90 92
47 64 72 74 79 84 82 77 77 86 86 71 61 58 51 47 48 51 53 55 59 67 96 99 99 99 95 84 86 97 100 99 99 100 99 100 99 92 79 78 78 85 92
47 50 70 80 83 82 82 83 87 77 73 64 58 53 50 50 51 53 54 58 64 72 90 99 99 98 94 88 99 100 100 100 100 99 100 100 93 87 81 86 87 78 92
54 57 72 86 88 88 89 92 88 80 66 59 54 51 50 51 52 52 55 64 70 84 100 99 98 92 91 89 92 98 99 100 100 100 100 97 91 82 88 85 86 88 92
64 69 82 94 100 100 96 85 72 65 60 55 52 52 53 52 53 55 62 69 79 97 99 97 97 96 96 96 96 96 98 99 100 100 99 97 96 88 82 80 84 84 87
72 75 77 79 78 77 74 71 66 60 57 55 54 54 52 50 49 53 66 90 100 100 98 100 98 99 98 98 97 99 100 100 100 100 96 99 94 92 83 76 73 72 76
76 76 75 75 74 72 69 66 62 60 60 58 55 52 50 48 53 77 97 100 99 100 99 99 99 99 99 100 99 100 100 100 100 96 100 93 91 90 80 67 45 28 22
81 80 80 80 79 76 71 67 64 64 62 59 56 56 54 54 69 92 98 100 99 99 99 99 99 99 99 99 99 99 100 99 99 99 62 44 47 44 35 26 21 18 15
85 85 86 85 81 77 73 71 68 65 63 60 58 53 58 57 81 96 99 99 100 91 65 46 58 90 99 99 99 98 99 99 89 62 46 34 23 19 16 16 16 14 13
89 87 86 85 82 80 78 75 69 66 63 62 57 61 70 80 92 99 99 98 97 66 34 15 13 15 21 33 54 69 70 69 56 41 30 25 18 16 16 16 16 16 20
90 92 90 87 84 83 81 76 70 68 66 64 63 65 75 86 99 99 99 100 92 44 19 16 16 15 15 20 29 40 39 44 36 24 16 19 18 15 18 17 20 24 26

GFSMA_850_rhum_087.txt.gz
RH
71 88 86 81 84 72 80 77 74 69 61 62 65 67 64 69 72 74 79 69 66 71 78 81 82 78 75 82 79 76 73 69 60 57 65 69 72 79 75 75 67 48 28
73 88 85 84 82 79 66 61 63 67 63 65 72 78 78 81 82 82 85 84 78 74 76 76 78 78 77 74 76 75 86 77 70 58 53 55 66 76 78 83 82 72 50
70 76 77 66 42 46 65 70 66 65 71 73 79 77 78 81 84 85 84 87 87 82 76 76 78 78 75 70 76 84 85 81 74 69 62 60 60 74 83 86 87 85 80
69 49 66 70 86 86 55 67 54 57 83 84 80 76 82 86 83 81 82 82 81 83 87 87 84 76 80 78 72 76 82 80 75 76 63 60 62 66 74 87 99 92 88
73 62 63 65 87 92 81 75 81 80 83 80 77 74 81 83 84 82 78 75 77 83 90 88 81 55 61 75 76 75 80 82 80 84 71 68 66 65 62 72 84 93 91
90 97 77 66 92 94 91 88 86 87 82 78 75 79 86 86 84 78 75 74 79 83 78 80 56 80 89 75 78 75 78 77 81 86 71 67 72 71 67 65 66 75 88
85 92 92 79 91 95 99 91 89 84 84 78 81 86 86 81 78 76 74 77 72 78 42 42 45 64 97 90 72 72 81 84 87 86 72 72 75 77 74 71 67 68 64
87 89 90 88 97 97 97 98 94 88 86 87 88 84 86 77 75 77 74 77 73 70 57 39 36 37 57 82 73 64 77 80 89 77 72 71 79 80 79 70 68 61 60
82 85 84 83 93 89 94 95 98 94 91 91 89 83 76 70 65 72 75 80 70 67 78 58 37 37 44 53 59 78 84 84 85 81 74 76 74 83 80 72 71 70 65
84 80 84 86 79 87 91 98 94 99 99 94 89 82 80 80 72 66 76 67 48 48 61 69 53 44 41 53 75 89 93 92 89 82 87 82 87 86 82 79 80 68 57
68 67 90 95 85 90 96 85 97 92 100 95 93 91 90 86 80 78 74 61 69 63 62 70 68 57 52 53 63 74 86 88 85 80 95 95 98 89 88 88 80 68 59
58 62 87 91 94 76 72 90 87 84 79 88 100 99 88 78 76 81 82 61 61 67 70 55 50 52 52 56 60 75 91 86 88 93 90 87 91 91 92 94 84 72 54
52 54 86 82 72 82 66 89 80 86 94 92 98 90 78 76 79 90 75 48 53 61 64 67 68 67 63 71 65 79 89 98 99 98 98 99 93 94 98 93 87 79 74
66 74 78 82 81 84 74 90 86 90 98 89 85 88 85 75 76 73 49 52 68 72 68 62 78 76 69 65 87 84 94 92 97 99 99 99 94 90 98 99 91 88 92
84 85 85 80 76 81 88 86 83 91 94 83 82 83 72 74 67 50 50 47 51 64 72 76 83 78 69 78 82 96 93 91 98 99 100 100 96 94 97 95 89 86 100
85 76 72 74 82 87 86 87 90 91 98 95 87 75 73 76 52 53 48 49 54 62 85 80 80 76 82 78 84 90 87 96 99 98 99 98 99 99 98 91 80 71 89
69 71 72 72 78 80 86 91 96 97 90 83 80 83 81 59 56 52 50 52 53 58 82 89 92 89 93 86 90 87 90 96 99 98 92 98 99 98 93 85 76 74 78
53 55 74 85 82 85 93 96 96 84 77 73 81 80 66 60 55 53 55 53 52 55 65 94 99 100 98 97 91 88 97 100 100 99 99 100 99 98 84 82 78 85 76
57 55 56 68 85 92 97 92 90 86 81 82 78 69 62 56 53 54 54 53 56 68 76 87 98 99 99 92 89 85 86 87 96 98 99 100 100 95 87 79 85 86 84
65 66 69 75 85 99 100 99 96 94 91 81 76 67 59 54 52 54 56 60 64 79 94 91 97 98 98 95 93 91 90 90 90 94 99 99 99 92 93 84 81 83 85
67 71 74 81 97 100 99 100 100 98 92 80 68 61 56 54 53 55 58 57 66 77 82 95 100 99 95 95 94 94 97 96 99 100 99 100 93 97 94 84 77 72 74
72 76 77 78 81 88 97 98 92 81 73 68 63 59 58 57 54 53 52 60 68 78 91 100 98 99 98 100 99 95 97 100 99 98 98 94 97 97 89 86 73 58 37
79 76 78 80 80 81 81 82 79 75 69 65 64 63 62 56 52 50 51 59 68 95 96 94 98 99 99 99 99 98 98 98 100 99 100 92 62 70 71 59 39 24 16
81 83 80 78 80 82 81 80 77 74 71 69 67 64 60 58 54 50 56 71 90 98 99 99 94 98 99 99 98 99 98 99 99 99 99 87 47 29 22 17 18 20 13
72 85 88 86 83 84 82 80 77 75 73 70 66 63 59 55 54 66 76 92 99 99 92 58 31 23 29 44 52 83 88 89 93 67 54 48 31 21 18 16 19 17 14
88 80 93 93 91 89 84 81 78 76 73 68 66 64 61 61 64 87 96 99 99 99 81 42 20 15 15 17 20 40 53 60 64 54 28 28 20 17 19 17 19 18 21

GFSMA_850_rhum_090.txt.gz
RH
88 69 60 35 39 47 41 43 45 56 62 55 55 63 61 58 68 71 72 69 66 64 70 74 76 75 74 74 76 81 78 74 69 60 56 60 66 72 76 76 74 66 50
90 73 68 46 48 59 62 80 66 70 63 56 62 68 66 73 78 78 81 81 83 81 75 74 74 74 73 69 66 76 84 88 78 69 60 56 60 66 78 72 78 79 76
75 84 90 87 81 79 70 63 56 63 63 64 63 75 78 78 82 77 81 86 87 85 84 83 80 78 76 75 72 72 78 80 82 74 74 65 64 60 67 81 87 90 88
71 72 79 68 58 52 48 59 60 61 62 66 77 76 76 78 82 84 80 85 84 81 85 88 87 89 77 67 67 68 75 78 79 74 76 72 68 61 60 66 82 88 91
77 60 55 53 56 66 64 59 54 52 54 62 79 76 76 79 83 82 82 80 75 80 82 79 74 62 54 54 58 66 72 72 81 80 82 72 64 62 61 61 62 70 88
92 81 78 74 83 90 88 76 70 72 75 80 74 72 75 82 83 83 80 74 75 77 76 58 48 39 52 66 62 68 69 70 78 83 84 72 67 66 68 68 68 66 67
90 92 91 81 78 92 90 82 79 75 80 79 80 77 78 81 81 80 77 77 76 73 55 35 35 39 45 52 58 66 69 77 88 83 88 75 68 64 75 77 74 66 67
87 92 97 88 74 80 90 90 95 91 84 82 77 80 83 81 75 78 76 76 71 72 61 40 37 34 35 39 38 49 66 73 83 87 79 74 72 72 72 80 76 69 66
86 85 86 85 87 83 92 95 97 98 93 88 81 84 88 82 77 77 75 74 74 52 62 70 52 37 40 42 42 42 66 82 90 87 86 82 75 74 76 81 78 74 74
81 76 78 78 84 87 89 94 82 85 94 92 94 91 83 79 72 75 75 76 69 56 57 60 60 48 47 43 50 58 80 93 98 94 87 94 84 82 89 85 83 82 79
85 70 60 61 65 77 77 81 81 74 78 86 83 86 94 92 86 78 79 73 67 63 52 59 59 62 50 60 48 48 64 87 97 94 90 95 81 85 93 92 90 84 80
79 72 66 63 58 52 66 79 80 77 80 85 93 82 100 92 96 88 76 69 72 71 68 69 67 60 61 59 57 59 64 87 95 91 94 96 84 84 93 88 90 86 80
83 72 74 62 56 83 92 85 79 90 71 67 87 88 94 100 91 86 82 76 84 65 65 63 55 63 68 56 50 56 69 82 91 95 100 99 87 92 91 91 91 92 89
84 68 71 75 77 68 67 98 84 86 85 64 90 95 98 84 78 83 78 84 74 55 58 65 63 72 76 69 63 75 79 85 96 94 84 92 93 97 94 92 91 92 88
91 79 74 70 63 66 73 88 86 90 87 76 88 93 96 90 86 85 82 63 52 56 58 64 75 78 78 78 78 78 82 94 92 98 96 98 96 100 98 94 86 88 84
78 77 76 83 83 83 88 93 85 81 83 84 92 97 90 90 86 87 70 52 52 53 60 71 77 79 79 78 75 74 85 86 87 92 97 92 94 94 97 93 88 84 76
76 80 76 81 82 83 84 85 97 83 78 83 93 99 98 94 84 85 55 54 51 51 57 70 81 85 88 89 84 87 89 92 94 94 97 96 84 88 94 93 85 79 74
58 65 68 65 73 79 85 95 86 91 99 100 100 100 100 90 89 68 58 56 52 54 59 64 91 99 99 98 95 99 89 94 100 98 100 93 98 99 99 92 85 76 79
58 57 57 62 70 94 100 99 98 99 100 100 100 88 90 90 79 64 59 54 55 56 59 80 99 91 96 95 98 93 88 87 85 87 90 96 99 98 96 87 86 79 83
51 58 65 67 74 85 100 100 99 100 100 100 98 97 97 81 69 63 58 58 62 65 63 75 99 99 96 99 100 93 90 89 88 86 89 93 98 99 97 85 93 81 81
58 59 63 68 71 79 99 100 100 100 100 100 100 97 84 75 68 61 58 60 62 63 66 94 100 100 97 99 96 92 92 93 90 91 94 94 96 87 88 97 92 79 74
60 71 71 74 74 76 92 97 100 100 100 100 96 88 82 72 64 60 57 57 55 59 62 72 86 94 96 99 98 94 95 95 94 96 95 96 91 89 95 94 87 81 66
62 67 80 83 79 79 81 90 99 100 100 98 89 78 70 64 61 59 56 54 55 60 77 82 86 91 99 100 100 98 98 97 95 98 99 96 90 93 52 71 77 60 28
64 73 78 89 91 87 83 84 87 89 87 82 76 70 66 64 62 58 55 52 56 70 85 92 97 97 96 98 99 98 98 98 98 99 97 97 97 73 36 25 20 18 15
73 83 92 90 97 93 90 88 90 88 84 80 75 72 70 67 63 58 54 60 74 82 86 95 95 84 55 64 80 85 96 99 98 97 97 94 63 38 22 17 16 14 14
85 90 98 100 100 100 98 94 94 91 85 80 76 74 71 66 63 60 57 66 79 88 88 88 71 41 20 19 32 28 44 52 74 74 52 46 40 24 14 14 16 16 17

GFSMA_850_rhum_093.txt.gz
RH
86 43 48 83 46 47 50 47 44 37 40 46 50 54 59 57 49 60 68 68 66 64 64 68 70 68 66 70 68 75 80 84 77 71 60 52 52 52 58 69 72 74 70
93 70 60 55 46 48 50 46 40 48 53 54 48 55 58 60 72 76 76 76 74 83 80 72 69 71 73 71 68 66 75 83 88 79 68 65 56 51 57 62 71 75 77
100 91 68 52 35 44 47 50 57 56 62 58 57 60 61 65 77 80 80 79 81 81 79 84 82 77 77 70 70 73 71 80 79 81 75 68 66 63 59 61 69 77 78
97 98 78 59 47 56 72 63 60 54 58 62 60 61 74 79 75 83 83 80 84 80 80 86 84 81 68 56 48 67 69 71 80 82 80 76 70 65 62 65 58 67 79
93 88 85 87 84 78 68 60 50 52 56 56 56 67 70 76 78 82 84 77 81 78 81 84 80 59 46 44 49 53 66 72 75 81 80 80 71 66 66 67 64 63 67
82 83 90 84 76 67 56 59 57 56 51 50 56 67 72 77 82 82 82 79 75 74 79 80 68 38 36 44 53 62 63 72 69 77 86 84 75 72 68 69 74 71 69
88 82 75 71 70 73 74 73 70 62 60 71 80 77 72 75 84 80 83 79 71 74 78 75 38 34 34 40 46 57 67 67 74 86 91 90 79 71 72 70 73 77 69
88 90 84 87 89 92 93 88 81 77 78 80 82 82 79 77 76 74 79 78 74 77 76 52 44 39 36 36 38 45 55 68 77 87 93 89 79 76 74 70 71 80 74
84 83 82 88 90 83 87 91 89 89 87 86 84 80 86 84 79 79 79 81 75 76 60 50 51 53 43 38 39 43 48 71 81 88 90 88 86 78 76 76 80 80 78
89 87 84 84 90 82 76 79 89 89 86 77 91 88 84 84 83 82 81 80 78 72 53 55 51 49 44 44 42 42 53 83 99 97 93 97 90 80 79 83 88 88 79
74 70 69 87 78 79 79 76 67 75 73 78 87 84 83 78 78 99 88 81 79 70 65 62 55 58 52 47 48 47 52 68 96 93 95 96 100 84 75 82 89 85 83
99 92 91 79 71 74 68 72 74 75 57 64 74 73 78 72 82 80 88 86 81 80 79 81 66 67 62 52 50 50 52 63 79 92 93 100 99 91 88 84 89 87 85
95 83 81 79 72 71 81 77 60 69 81 81 77 72 72 80 83 98 93 91 89 83 81 74 74 71 57 59 58 56 58 67 83 94 92 98 99 98 83 91 90 82 80
87 74 87 88 73 68 76 80 83 80 89 94 88 91 85 80 79 100 100 84 88 91 79 72 63 55 57 61 65 58 63 75 81 96 97 92 88 88 90 94 96 82 81
78 93 92 89 72 74 82 84 79 81 86 95 97 98 95 74 79 86 81 86 81 92 68 62 61 60 63 72 69 66 73 71 84 92 96 99 94 90 92 92 96 91 84
92 93 82 84 77 82 88 87 84 83 81 76 98 93 93 80 82 89 79 80 88 84 63 59 55 62 69 76 82 77 73 74 84 85 93 97 95 87 88 92 95 93 87
100 92 91 88 87 86 82 79 79 89 84 78 86 81 86 77 88 91 90 91 91 70 58 59 66 70 77 84 86 86 81 80 83 92 89 94 97 90 82 84 87 85 82
64 64 67 71 80 84 87 82 86 83 92 96 87 88 90 93 97 100 96 92 75 59 58 58 67 78 87 95 99 95 85 86 87 99 99 91 99 90 92 98 97 89 80
46 51 57 60 61 57 62 92 99 100 100 99 100 99 99 99 100 100 94 91 64 62 59 60 68 76 87 99 99 96 92 94 87 88 88 90 91 92 93 97 96 86 81
45 50 50 53 61 70 72 74 98 98 100 100 100 100 100 100 100 100 93 82 66 62 62 62 64 78 100 100 100 98 99 92 91 90 90 87 86 89 93 94 92 87 89
40 50 56 61 62 63 73 84 98 98 100 100 100 100 99 100 100 100 89 73 67 63 67 70 70 83 98 98 99 99 99 93 90 90 88 87 89 88 88 88 88 98 87
34 37 49 63 68 74 77 80 98 100 98 99 98 99 100 100 100 92 79 73 73 66 60 64 71 82 92 99 99 96 97 94 95 96 92 90 92 88 88 92 94 92 84
39 42 48 55 70 80 81 85 91 100 100 100 100 100 100 99 94 87 80 72 66 63 61 67 64 64 77 81 95 99 99 97 94 94 96 92 93 90 88 92 59 78 71
46 46 48 60 66 71 88 91 92 93 98 100 100 100 100 96 88 79 71 68 66 67 62 58 57 56 63 78 89 97 100 99 98 98 97 98 92 95 93 68 31 22 16
38 53 65 72 82 96 94 96 97 96 95 94 94 91 86 83 79 75 70 66 64 60 57 60 56 64 78 85 87 99 100 100 99 98 99 98 89 74 64 35 21 19 15
18 26 78 96 99 99 100 100 100 100 96 94 91 89 87 82 80 77 71 68 63 58 60 63 71 78 82 70 44 39 67 64 100 84 65 80 66 49 27 18 17 17 16

GFSMA_850_rhum_096.txt.gz
RH
99 100 82 88 79 63 52 49 48 44 41 40 44 46 49 53 51 47 58 69 67 64 62 64 67 65 61 63 62 66 76 78 83 78 70 62 58 57 58 60 65 70 73
95 100 94 99 92 59 58 51 47 43 38 39 41 42 45 50 55 62 68 74 77 73 78 74 72 69 69 67 69 68 67 72 84 84 80 70 65 60 57 56 63 69 67
92 80 84 89 84 54 60 58 53 44 46 50 48 43 49 53 59 72 75 75 77 78 81 80 79 77 72 75 74 70 69 72 82 77 79 72 68 67 63 61 55 62 76
78 86 74 52 55 50 59 61 52 51 55 54 48 51 53 62 65 75 79 80 78 80 82 80 83 83 79 69 59 52 66 66 76 77 80 78 77 70 65 62 62 61 60
66 74 93 95 75 53 53 58 60 58 56 55 54 56 58 68 75 75 81 83 82 81 80 79 82 82 72 48 47 55 50 65 71 77 82 81 80 73 70 68 66 68 64
77 69 74 85 84 56 81 72 60 64 56 53 57 58 63 73 78 77 80 83 82 82 78 76 80 81 52 35 43 48 57 60 69 75 82 88 85 78 72 69 70 70 73
67 76 78 87 88 90 76 69 72 62 53 60 62 59 67 72 76 77 80 77 77 75 76 77 79 75 36 34 37 42 47 63 70 76 83 94 90 80 74 74 72 69 78
80 87 88 82 93 92 89 80 66 60 61 63 66 79 81 76 74 82 82 78 73 76 72 75 78 64 38 38 36 38 42 46 60 76 86 96 93 81 78 75 75 75 82
84 82 82 82 94 86 71 70 77 80 70 72 78 80 84 78 73 74 75 78 81 80 76 75 76 44 48 48 43 41 40 41 54 77 82 92 89 87 86 78 79 80 83
95 86 91 90 77 74 76 78 80 76 73 80 86 88 81 76 81 83 80 80 83 84 78 77 57 52 52 52 51 45 44 43 74 87 93 94 100 97 88 80 80 78 81
96 94 93 89 86 87 74 65 72 64 68 69 68 74 84 81 80 82 78 84 84 82 85 78 62 55 55 55 49 47 45 48 60 84 88 85 99 98 98 85 77 79 87
100 91 83 99 99 90 82 88 81 79 85 78 74 70 72 66 72 76 77 77 73 70 76 81 67 68 68 54 49 47 49 46 48 59 82 91 100 96 99 91 81 81 86
92 97 96 98 91 88 85 98 91 82 78 76 77 77 73 70 77 66 70 75 78 88 90 86 78 77 72 65 49 53 51 48 49 56 80 90 93 98 99 94 86 87 91
100 100 100 100 100 98 92 91 85 81 77 69 72 88 78 80 88 85 83 87 100 100 98 90 82 76 73 64 58 62 60 54 60 65 85 84 97 100 99 93 84 93 94
100 99 91 91 96 99 98 94 92 84 83 83 90 94 88 85 88 95 97 100 100 95 94 86 80 74 66 66 72 70 67 65 67 71 86 98 100 100 93 85 86 90 94
98 87 94 96 99 99 99 98 91 92 91 80 84 91 100 100 98 100 98 100 99 78 87 89 81 65 61 64 70 75 73 68 69 71 81 86 98 100 90 85 86 85 89
99 100 98 99 89 85 87 90 89 90 89 90 95 94 99 100 98 93 92 92 85 81 90 94 72 65 66 69 68 76 81 84 79 74 76 80 95 94 91 90 83 83 87
69 68 70 70 75 90 94 89 87 84 90 90 92 98 94 88 89 91 92 93 89 91 99 99 85 65 64 71 84 89 91 92 83 87 88 100 95 90 89 88 92 93 93
53 57 59 64 65 62 68 84 99 100 99 100 99 99 100 94 86 95 100 99 98 100 98 86 67 65 66 74 80 90 92 84 81 86 87 88 89 92 90 91 93 92 92
35 44 55 60 60 60 66 75 86 100 100 99 99 100 100 100 98 94 100 99 100 99 94 68 63 66 68 74 90 87 98 94 87 88 87 88 89 88 86 85 88 94 90
34 33 33 41 54 63 69 70 74 88 99 99 100 100 99 97 100 100 98 100 100 100 84 67 68 68 70 73 71 84 96 97 81 92 89 89 88 90 90 86 88 84 89
39 41 42 40 38 51 72 79 80 78 88 98 98 99 98 100 100 100 100 100 100 96 81 71 70 67 64 67 71 84 100 92 92 89 93 92 92 92 91 88 87 92 94
16 22 40 48 48 56 64 80 88 92 95 98 98 91 96 99 100 100 100 99 99 91 89 78 74 77 70 72 81 84 92 91 95 94 95 94 94 93 92 89 88 92 63
13 13 15 23 45 54 58 75 98 99 98 98 98 96 96 99 100 100 100 100 94 87 84 82 72 82 81 86 77 80 90 98 99 98 96 98 95 93 89 91 93 78 29
14 13 14 15 17 36 73 98 100 100 100 99 100 100 100 99 100 100 100 100 94 86 81 74 74 77 70 71 72 84 93 100 100 99 99 98 98 94 93 92 79 41 22
17 19 21 24 20 24 66 96 98 100 99 98 100 100 100 99 96 96 94 90 85 77 73 73 72 69 68 78 85 92 93 94 100 97 92 87 85 77 78 56 39 23 16

GFSMA_850_rhum_099.txt.gz
RH
88 97 100 97 87 84 99 83 54 46 40 40 40 39 39 43 47 47 46 60 61 61 59 61 65 68 64 66 65 64 68 73 82 85 80 70 65 61 56 54 54 62 68
56 71 99 100 97 79 92 90 69 53 43 42 41 44 45 49 51 49 46 61 70 70 71 74 67 61 64 64 65 65 66 66 77 82 81 81 71 65 65 61 59 60 66
65 61 61 100 98 100 89 82 81 62 51 43 42 49 52 52 53 55 63 70 73 75 77 74 73 70 74 79 73 75 67 70 75 83 77 79 75 72 68 63 63 59 56
77 73 78 83 99 78 95 75 68 62 53 43 40 46 47 50 55 57 65 74 77 80 80 81 76 76 82 79 75 59 48 57 68 74 73 76 80 77 71 66 67 65 64
77 64 83 65 60 54 76 88 75 63 54 48 50 57 53 55 60 67 69 76 81 82 82 82 80 79 82 80 51 42 46 50 59 68 77 79 80 80 74 72 68 70 69
73 70 55 72 64 60 67 78 81 66 56 57 63 60 58 59 61 71 75 74 82 84 84 85 79 78 78 77 44 40 46 51 60 66 78 80 83 85 81 77 74 72 69
68 85 70 72 77 68 51 67 58 66 71 71 74 68 63 63 65 69 75 77 81 84 82 81 77 79 79 73 36 39 41 43 52 64 69 77 84 88 86 79 76 74 74
80 80 72 80 69 74 78 67 49 66 69 77 74 69 70 64 59 66 76 76 80 80 80 77 77 76 79 71 39 36 35 36 37 48 75 88 92 90 90 83 82 78 79
83 89 87 83 78 77 77 76 71 70 70 75 70 73 78 75 63 63 70 78 82 79 78 76 73 75 76 63 45 41 38 37 36 63 79 84 90 92 90 90 83 78 86
88 90 93 95 84 72 86 83 72 78 82 73 72 78 74 73 72 72 68 70 80 82 80 83 78 79 77 51 50 46 41 40 39 75 77 79 87 97 99 98 90 81 78
78 80 97 93 100 86 90 92 89 91 82 78 80 76 83 83 80 73 74 68 70 73 78 84 78 79 71 62 54 47 45 44 42 48 68 79 90 98 88 92 94 83 83
87 86 82 100 100 92 91 95 91 83 88 79 72 76 76 74 82 81 82 79 74 68 69 83 84 79 70 70 59 61 45 47 47 45 65 76 86 99 93 90 95 95 87
85 95 89 97 99 88 92 86 91 84 80 81 76 77 77 81 82 77 77 80 87 76 81 86 83 84 75 74 78 68 52 50 49 46 58 76 86 96 96 98 94 92 86
100 100 89 86 96 93 99 93 92 89 85 95 86 97 88 87 84 81 76 87 96 93 91 87 89 82 85 91 88 74 59 53 50 51 58 67 79 91 92 94 97 91 83
99 100 100 100 100 100 99 100 91 86 79 76 84 92 87 84 77 77 82 90 100 98 99 97 92 88 94 94 90 70 61 57 55 55 56 56 72 88 98 99 96 84 84
98 97 100 100 98 100 98 99 100 98 93 99 93 83 89 86 81 82 98 100 100 100 100 99 100 96 98 92 80 67 65 66 63 61 61 64 74 88 99 100 96 87 84
96 100 97 92 96 93 98 95 99 93 99 96 97 100 96 95 95 100 96 99 100 100 100 100 100 98 95 88 65 70 70 74 73 74 71 68 73 86 96 88 88 85 84
64 66 72 76 82 89 100 100 95 93 96 96 99 100 99 96 92 91 100 92 88 96 100 97 92 90 86 82 70 72 81 80 82 81 79 71 70 78 89 90 89 88 84
37 45 49 54 56 64 72 84 99 100 100 98 91 91 86 93 91 95 91 96 91 95 94 94 88 94 88 73 71 77 76 80 85 83 77 74 70 81 84 89 88 86 93
35 36 36 39 45 54 60 63 72 79 88 95 100 100 99 99 100 99 99 90 94 98 100 100 100 100 96 76 73 73 77 86 84 81 77 74 79 86 88 89 87 89 91
22 28 34 37 40 44 54 60 66 71 84 93 100 97 99 99 100 100 100 100 100 100 100 100 100 100 92 71 69 70 79 94 89 81 70 75 77 84 88 86 86 87 86
14 14 14 15 29 41 49 62 74 73 74 86 99 99 97 97 99 100 100 99 100 97 98 99 100 99 80 65 69 71 77 84 92 79 72 77 82 89 89 89 90 89 90
17 16 15 14 14 14 30 45 52 64 85 87 89 98 98 97 99 100 100 100 100 100 100 100 98 94 78 70 74 78 73 72 72 86 79 82 88 92 93 93 92 90 89
18 18 18 19 18 15 14 13 28 58 75 97 99 100 99 96 95 100 100 100 100 100 100 100 99 88 81 84 84 96 94 80 88 96 92 96 92 94 93 96 93 92 90
22 21 20 19 19 18 18 16 32 35 57 90 100 100 99 98 100 100 100 100 100 100 100 100 96 100 98 99 84 84 82 86 98 92 98 100 95 95 93 95 92 92 87
32 25 22 26 31 29 24 21 23 96 96 84 90 95 100 100 99 100 100 100 100 100 99 100 95 92 89 83 84 67 70 69 90 100 98 99 97 90 92 83 84 73 52

GFSMA_850_rhum_102.txt.gz
RH
74 80 92 99 97 99 70 82 75 51 40 37 38 37 37 38 42 46 46 50 58 61 59 60 61 65 63 57 60 58 61 67 71 79 82 80 72 66 61 60 58 55 58
63 67 80 86 96 98 77 85 92 76 53 43 41 40 40 40 43 47 49 49 62 68 67 68 71 68 63 62 59 62 58 64 72 84 84 79 76 70 68 65 62 58 54
61 65 62 74 87 89 94 95 97 94 72 58 46 44 44 44 46 48 51 50 60 71 74 75 78 71 70 75 74 72 76 76 73 78 81 78 76 75 73 67 64 63 65
67 69 72 65 81 100 98 100 95 83 74 62 52 46 50 55 51 50 52 59 69 74 79 79 78 78 80 81 79 80 64 45 47 74 71 69 74 82 77 71 70 68 68
71 72 79 79 80 93 100 99 85 91 78 65 57 47 51 54 54 53 53 56 64 73 79 81 83 82 82 84 83 79 50 43 46 52 68 76 73 76 80 76 76 75 71
64 78 85 86 90 80 82 80 73 78 78 72 69 52 51 62 55 56 57 64 67 72 80 82 84 85 79 77 81 67 42 50 43 47 61 75 78 79 86 82 77 76 74
65 76 85 86 83 88 73 77 74 73 72 60 74 66 68 68 64 58 60 66 73 73 81 84 83 84 80 77 76 72 36 41 42 38 58 77 80 85 91 88 81 80 78
70 74 78 83 78 83 77 60 56 60 64 62 73 78 87 70 64 55 57 62 68 73 79 82 84 80 78 74 76 74 42 36 37 36 41 66 85 92 94 90 85 85 78
75 80 82 81 88 86 85 84 70 65 65 57 54 70 80 75 58 49 49 54 60 69 77 79 80 79 77 75 76 74 46 41 38 38 59 76 85 87 87 92 91 88 82
83 82 84 84 80 89 85 86 80 72 76 65 62 78 76 69 70 60 58 50 56 67 70 75 78 76 77 75 76 74 49 47 42 42 72 81 81 83 90 94 95 95 94
76 84 88 97 98 94 92 87 85 82 80 73 60 74 82 83 76 79 69 62 60 60 66 74 73 78 79 82 81 75 55 48 49 45 61 80 85 96 98 92 87 88 93
81 80 83 92 99 97 98 90 90 89 78 77 80 67 82 81 81 84 82 72 64 68 69 76 74 70 68 78 83 71 63 67 48 47 44 57 77 92 98 99 93 90 96
96 83 86 91 99 99 91 100 100 95 82 82 82 94 90 87 89 77 73 77 77 78 78 73 68 65 64 83 86 76 70 65 55 52 49 70 84 79 99 99 96 98 91
98 97 96 97 99 100 100 97 99 89 88 98 99 88 86 83 84 84 86 87 93 91 82 77 72 60 68 84 88 82 76 76 67 60 53 64 67 80 97 98 100 94 94
99 98 100 100 98 100 99 99 100 95 88 90 95 93 90 98 95 98 90 98 97 100 97 82 84 76 81 88 92 87 92 88 80 64 55 59 58 62 71 93 85 94 94
100 100 100 100 93 100 100 97 100 100 100 92 75 89 93 95 91 91 85 92 94 98 100 100 97 91 88 92 94 100 98 84 78 70 66 63 57 56 59 72 96 95 94
59 62 78 95 99 100 97 97 94 90 100 100 100 96 86 70 78 96 99 99 100 100 100 100 99 98 100 100 100 100 90 86 84 77 69 68 64 61 66 72 95 87 83
41 41 47 59 59 72 82 94 98 98 99 94 100 100 98 91 87 100 99 96 100 97 100 100 100 100 100 100 100 95 90 87 88 77 75 73 71 64 62 74 84 88 86
34 38 40 38 40 52 60 68 78 81 92 100 100 99 91 95 96 97 100 100 96 96 100 100 99 100 98 97 96 92 95 91 88 89 83 90 81 73 61 70 90 88 87
17 17 17 21 30 38 40 42 53 63 70 78 87 91 98 100 100 97 97 99 94 100 96 100 100 99 99 99 100 98 97 90 97 96 99 91 82 70 73 79 82 82 87
17 16 16 16 15 15 20 31 40 44 52 61 68 77 86 98 100 100 100 99 100 100 100 100 100 100 100 99 96 91 98 90 96 97 95 80 76 70 74 86 86 86 85
19 19 18 18 17 16 15 14 14 19 38 50 52 64 81 87 96 100 100 100 99 100 100 100 91 97 100 99 100 98 98 100 100 90 87 78 75 66 75 87 89 89 88
22 21 21 20 19 18 18 17 16 15 13 14 31 49 64 85 94 95 91 100 100 100 100 99 100 100 100 88 95 99 99 88 80 79 72 69 76 78 82 92 93 91 92
16 17 18 20 21 19 18 17 17 16 15 16 22 32 61 67 98 99 98 89 93 100 100 100 99 98 98 100 97 97 94 90 95 91 96 79 78 86 91 94 94 94 93
20 20 21 23 24 22 21 22 22 19 20 20 28 27 47 72 84 96 94 96 97 94 100 100 100 100 100 100 100 96 90 99 98 97 94 72 80 91 92 95 95 97 95
28 27 27 31 36 37 32 28 27 30 33 30 28 80 99 96 94 94 98 98 97 98 100 100 100 100 100 99 96 96 84 99 100 100 84 72 82 91 99 94 96 96 92

GFSMA_850_rhum_105.txt.gz
RH
73 76 78 80 96 95 92 93 80 45 37 34 33 38 40 42 43 43 45 44 48 52 57 54 56 62 67 63 60 61 63 60 67 74 80 79 77 69 63 63 61 59 56
63 67 75 82 88 96 99 99 85 61 48 37 34 39 40 41 44 45 49 49 48 57 62 62 60 65 70 66 65 66 66 62 73 75 87 85 77 73 70 68 64 63 61
70 65 63 63 68 92 99 100 89 80 90 57 46 45 42 42 43 45 50 53 53 52 68 70 69 73 68 66 71 74 68 77 79 73 81 77 78 73 76 73 67 65 66
70 67 68 68 68 71 91 99 95 97 100 81 63 54 47 47 46 47 52 54 56 52 64 73 74 76 73 75 76 77 76 67 50 47 76 71 80 79 83 73 71 71 72
73 73 74 73 73 78 83 96 92 95 99 86 86 74 56 52 53 60 58 56 57 59 69 73 78 80 77 76 75 74 71 47 38 44 46 61 77 79 73 72 75 75 72
74 75 72 73 82 86 91 89 93 96 100 86 79 82 72 60 52 57 56 56 56 59 59 72 80 81 84 82 79 77 74 50 34 38 45 52 68 77 76 76 79 78 75
68 72 71 76 80 88 91 89 83 82 85 83 78 70 68 63 52 52 60 54 54 57 64 70 81 84 84 86 79 76 76 67 35 35 36 51 73 81 79 82 84 82 79
66 73 76 84 87 87 91 92 86 80 96 86 84 71 86 57 49 55 60 56 55 57 61 72 75 83 84 83 80 76 75 74 42 35 36 40 60 73 81 86 84 85 85
78 84 84 86 84 80 85 81 83 79 78 77 76 86 74 74 71 58 46 47 46 50 52 63 73 80 82 82 78 77 75 75 50 38 37 42 58 75 82 84 82 88 90
74 80 88 94 94 89 93 92 88 85 89 88 73 73 75 79 70 62 54 44 39 39 40 51 69 73 75 77 78 76 76 76 60 44 39 43 60 68 76 90 92 88 95
77 82 84 79 86 91 89 89 94 94 90 95 96 90 69 72 78 78 70 60 55 49 45 55 61 73 69 69 76 74 80 79 64 49 42 52 85 91 94 96 90 89 85
87 85 82 84 86 80 87 88 87 96 97 99 95 96 97 90 77 86 84 72 72 66 60 57 69 69 65 62 69 74 76 79 70 54 58 59 77 89 93 98 95 94 88
94 94 95 92 89 85 94 91 96 100 100 100 93 89 92 94 89 75 79 82 81 75 74 67 67 70 66 72 72 77 83 77 78 66 61 52 61 86 99 99 99 100 96
98 100 99 100 100 100 99 98 100 99 100 99 100 100 93 84 83 89 88 82 84 88 86 74 75 70 79 72 72 81 86 93 84 74 64 59 66 79 80 100 99 100 98
99 100 100 99 100 97 99 100 100 97 94 98 100 99 87 84 90 89 84 87 80 92 96 66 84 80 74 77 79 85 92 99 91 78 72 81 70 72 93 98 97 93 85
68 74 64 76 99 99 100 100 100 100 100 100 95 98 97 92 90 92 91 89 92 99 100 98 85 82 84 79 77 91 96 100 94 90 90 84 69 73 69 80 66 83 76
58 47 50 48 58 61 70 95 100 100 94 98 97 100 100 96 99 97 95 95 93 93 89 98 85 85 94 98 98 100 100 100 100 99 83 73 69 64 66 64 65 79 79
31 29 36 39 39 40 49 54 58 71 92 99 100 100 98 99 100 95 94 98 95 87 100 95 99 99 90 96 94 100 100 100 100 89 86 81 75 70 73 74 76 82 86
21 20 19 18 18 23 31 38 43 55 64 73 84 88 99 99 100 100 99 100 100 89 90 100 99 99 100 100 100 100 100 100 98 93 90 84 82 82 82 77 70 69 92
20 20 19 18 18 17 16 15 16 22 33 42 55 71 80 91 97 99 100 99 92 99 100 100 100 98 99 99 100 100 100 100 92 96 90 85 88 87 90 81 72 77 96
22 22 21 21 20 20 20 19 18 17 16 14 15 26 42 63 82 98 98 99 100 100 100 91 99 100 100 99 97 95 100 99 100 99 91 93 91 89 86 79 71 82 88
14 13 13 13 14 16 19 19 19 19 19 19 18 16 14 16 35 58 85 99 100 100 100 100 100 98 99 99 100 99 100 100 100 100 100 98 97 96 86 87 81 81 82
9 9 10 10 9 8 9 10 13 16 17 18 18 18 19 19 16 22 42 78 91 95 99 100 100 96 100 96 95 100 98 99 95 91 90 96 99 100 93 95 90 90 90
24 25 24 24 24 20 20 19 17 16 14 14 15 16 17 17 20 28 36 44 61 86 94 90 100 100 99 100 100 98 99 97 100 100 100 98 97 99 94 95 92 86 90
30 30 30 30 34 33 34 35 36 37 30 23 16 14 21 28 30 33 78 94 79 87 92 90 86 99 100 99 100 100 100 100 100 100 100 99 91 85 80 91 92 97 95
33 32 32 35 37 41 43 47 49 54 49 47 38 28 21 30 88 100 100 100 98 90 95 90 95 96 96 99 100 99 100 100 100 100 99 96 94 96 98 92 97 100 96

GFSMA_850_rhum_108.txt.gz
RH
86 92 79 84 86 87 93 97 99 100 89 54 42 61 72 67 72 72 66 44 43 49 53 54 53 58 64 66 60 58 60 59 63 66 74 80 75 72 65 64 62 58 57
75 74 77 79 81 86 91 92 93 94 90 67 63 48 52 49 53 67 58 62 49 46 53 60 67 72 68 67 62 62 63 63 59 72 76 85 82 75 70 69 67 61 61
69 68 66 72 67 68 83 91 94 98 99 87 68 66 64 61 49 48 47 48 57 54 51 60 65 67 68 70 70 63 71 64 74 85 80 82 76 74 71 74 71 64 65
74 75 74 66 67 81 74 88 96 97 99 89 86 72 49 64 50 68 65 48 49 59 57 53 66 71 74 74 67 72 76 75 74 52 43 53 81 77 74 81 75 69 70
83 82 82 77 94 88 80 81 84 89 94 89 94 76 78 67 56 67 68 65 54 52 56 58 59 71 77 77 73 73 73 71 68 45 40 41 53 68 83 79 71 74 74
63 86 80 80 80 74 76 84 89 87 92 86 92 96 78 65 86 77 68 68 73 68 54 59 64 71 75 78 77 76 76 76 74 46 40 40 46 58 69 72 72 77 79
75 72 85 77 67 75 90 88 96 100 94 91 100 98 90 69 65 85 67 56 55 62 75 58 59 62 76 78 81 83 78 77 75 59 38 39 42 48 65 76 75 82 83
78 72 73 71 73 81 99 94 97 98 98 96 95 98 94 84 71 59 63 56 46 41 48 59 57 59 69 81 80 82 81 76 75 72 42 36 37 46 60 65 70 83 84
76 76 73 79 75 88 82 93 94 97 100 98 94 98 98 89 72 64 54 49 45 40 37 51 54 49 59 69 78 79 80 79 78 75 56 37 37 46 62 74 78 85 86
83 85 86 87 84 92 93 90 90 89 90 92 97 87 92 78 73 69 62 67 45 50 50 50 49 50 49 66 72 74 76 77 79 78 68 45 41 44 57 86 98 94 91
87 83 82 85 93 92 86 91 91 89 93 90 95 90 74 76 74 80 86 77 61 55 56 51 51 50 57 58 60 69 63 63 66 75 75 55 56 67 92 88 94 96 92
97 98 96 90 94 95 93 95 92 97 96 92 99 100 100 96 78 80 84 78 85 80 76 67 56 49 55 53 59 65 64 65 68 76 77 64 63 80 98 95 94 96 94
100 100 96 99 99 100 99 97 99 99 99 100 100 96 98 99 100 98 93 86 82 75 78 78 63 57 58 62 62 65 69 76 80 78 82 75 71 75 88 93 99 99 94
100 100 100 99 99 100 99 99 99 98 98 98 98 90 98 99 100 100 99 93 97 90 88 94 75 73 62 66 68 68 70 84 82 87 87 84 72 76 87 92 100 100 98
90 89 92 98 100 100 100 100 100 99 100 100 99 93 100 95 100 100 100 100 100 98 96 84 89 78 74 73 73 72 68 74 93 92 92 95 77 80 61 78 83 93 100
63 63 54 56 56 61 60 83 99 100 100 96 98 100 100 98 100 100 100 97 92 96 100 89 82 88 79 82 77 69 72 88 91 89 91 100 88 76 69 74 88 100 99
57 43 46 48 39 45 49 55 62 72 90 98 100 96 98 90 100 100 99 95 96 100 100 94 88 85 90 84 82 75 84 82 83 88 99 100 96 84 83 87 99 96 71
46 31 26 22 21 27 24 29 39 40 51 64 67 79 92 100 94 98 100 100 100 100 100 100 100 99 95 88 80 92 90 96 95 97 100 100 100 96 95 97 84 71 71
29 28 25 22 20 20 19 18 17 17 20 28 36 45 59 74 86 99 99 98 100 99 92 92 96 100 100 91 88 92 93 100 100 100 100 100 100 100 99 89 83 77 73
22 21 21 19 18 18 19 20 20 20 20 19 18 16 20 32 50 67 80 91 97 100 100 97 88 100 91 95 99 100 100 100 100 100 100 100 98 94 91 94 85 78 76
8 8 7 7 7 7 7 8 10 13 15 17 18 19 20 19 18 22 42 59 78 86 96 100 100 100 100 99 99 98 98 100 100 100 100 99 97 97 98 96 86 84 78
12 13 14 13 12 13 12 11 12 10 8 8 9 10 12 16 18 19 20 22 49 87 94 95 100 100 97 95 91 99 100 100 100 98 99 99 100 99 93 93 87 82 81
20 20 20 21 20 19 18 17 17 16 17 13 12 10 9 10 11 17 18 21 24 35 85 99 100 100 100 99 92 100 99 94 90 90 99 100 97 97 97 97 92 87 80
26 26 26 29 32 33 34 34 34 33 31 24 23 20 18 16 20 69 88 63 60 52 43 66 93 100 100 100 98 100 99 94 98 98 100 100 99 98 99 96 98 90 79
29 29 29 30 36 36 42 54 60 95 94 92 86 73 47 39 53 28 69 99 100 100 97 85 63 89 100 100 100 100 100 100 99 99 99 100 98 100 100 100 100 94 92
28 28 28 31 33 34 38 46 52 88 87 84 84 85 87 91 79 83 88 96 96 94 89 87 92 74 85 99 98 100 100 100 100 100 99 100 100 99 100 100 99 93 97

GFSMA_850_rhum_111.txt.gz
RH
93 96 92 91 92 85 85 89 92 92 98 91 83 75 70 70 72 71 73 68 49 44 49 51 54 47 48 55 60 56 55 57 59 66 69 74 79 74 68 63 63 61 56
86 86 87 91 83 84 83 97 94 94 95 93 85 81 69 68 70 67 68 70 58 46 45 50 56 79 68 58 58 60 55 55 60 56 66 74 83 81 74 69 68 67 61
72 81 75 83 88 87 91 96 100 99 94 97 87 71 62 64 66 67 67 69 70 56 48 46 51 60 63 73 73 79 66 59 69 71 86 82 80 80 74 71 69 73 64
77 81 90 92 86 87 84 80 86 93 92 96 96 82 59 62 61 58 60 64 66 64 56 48 45 49 65 65 67 70 64 66 68 77 77 52 43 61 80 76 74 77 68
72 72 83 89 93 92 91 92 86 86 92 88 89 95 87 59 50 49 47 63 65 60 65 62 49 49 50 66 71 71 63 75 79 71 62 44 40 47 66 72 82 79 71
58 68 72 71 91 91 93 87 87 83 90 100 96 92 91 96 84 69 68 63 64 68 66 54 58 48 51 58 68 73 69 65 72 69 68 45 39 46 54 76 82 76 73
61 66 60 54 56 74 71 79 96 99 96 99 97 99 96 93 100 82 53 69 66 63 68 73 56 47 49 51 59 71 72 72 73 69 67 63 40 41 46 59 71 73 74
64 62 60 55 52 86 71 75 90 99 99 94 100 98 100 94 95 85 76 70 67 65 59 62 53 43 39 44 46 54 67 71 74 75 72 73 47 36 38 47 60 67 73
82 83 78 74 81 87 94 86 79 93 98 98 94 100 93 87 78 75 73 71 68 64 66 51 46 43 37 42 44 50 64 70 75 81 80 77 67 42 39 65 71 67 70
78 94 93 93 92 90 92 96 94 90 96 97 100 99 89 83 82 73 69 72 70 66 57 51 51 46 39 42 42 46 52 62 75 76 79 78 77 58 61 90 91 97 99
100 99 100 97 94 89 98 96 93 93 90 90 90 92 94 93 89 92 88 78 74 69 68 68 64 46 40 50 44 47 49 61 67 72 70 76 76 73 75 92 92 89 93
96 99 98 98 100 100 99 99 98 96 98 94 97 99 100 99 97 98 97 87 81 73 71 63 60 50 54 57 58 57 54 60 68 70 66 70 76 77 76 86 95 89 90
99 100 98 99 99 98 98 98 99 100 99 98 98 99 100 100 99 100 100 97 92 84 78 78 80 62 55 64 60 55 60 64 74 69 70 70 70 81 80 86 92 96 96
99 99 99 99 100 97 94 100 100 100 98 98 100 99 97 98 100 100 100 100 100 98 94 85 80 79 73 68 62 62 61 64 68 69 76 75 75 80 89 88 95 96 100
85 80 79 78 81 96 97 98 99 99 99 100 100 100 100 100 99 99 100 100 100 99 99 96 90 87 87 87 74 65 60 66 66 67 64 61 58 71 85 92 87 95 98
63 63 58 53 46 47 52 57 61 69 88 98 98 98 100 100 100 94 99 99 100 100 100 99 97 92 86 85 81 69 65 69 74 82 75 66 59 72 84 96 91 89 100
74 74 67 50 38 40 57 54 38 45 62 64 67 82 78 84 96 100 98 94 100 100 100 94 89 89 94 94 91 85 84 81 82 79 80 73 72 74 87 100 98 96 99
27 28 30 36 33 29 24 32 59 60 28 23 42 46 35 60 75 75 88 100 99 100 100 100 90 99 100 97 95 93 90 87 79 81 75 70 72 85 94 100 100 100 98
24 22 21 20 22 20 17 18 20 21 22 21 21 20 20 20 22 32 43 73 87 96 100 99 100 100 97 99 100 97 91 88 87 85 86 77 79 86 99 100 100 100 93
8 8 7 6 6 6 7 7 6 6 7 10 14 16 18 20 22 23 19 20 29 41 62 79 94 100 100 100 100 97 100 95 97 99 100 97 92 97 100 100 99 98 100
10 11 12 13 12 13 20 14 12 11 10 10 12 13 11 8 8 12 20 21 21 23 27 46 68 87 98 99 99 100 96 96 99 100 100 99 98 100 100 99 98 100 92
17 17 17 17 16 24 38 19 19 16 16 18 17 13 12 11 17 11 32 55 37 30 35 84 99 100 99 100 100 100 100 100 99 98 99 99 100 99 98 98 98 93 91
24 21 20 20 20 23 24 24 26 26 27 32 36 31 26 34 35 46 54 50 36 62 68 87 97 99 99 99 100 100 100 100 98 99 100 100 100 99 99 100 94 91 95
22 25 26 27 26 27 30 33 37 39 55 61 74 65 62 62 54 85 66 54 44 47 58 48 76 97 99 97 100 100 100 100 100 100 100 100 99 99 98 99 98 99 99
31 34 41 46 49 50 69 64 76 91 90 87 81 78 80 83 81 53 53 52 57 55 44 40 45 77 96 86 86 100 99 100 100 98 99 100 99 100 100 100 99 100 100
42 42 41 55 64 66 85 98 99 97 93 85 80 78 77 83 96 94 91 100 99 89 53 35 34 20 22 22 29 58 98 100 100 100 98 100 99 100 100 100 100 100 100

GFSMA_850_rhum_114.txt.gz
RH
90 86 88 88 92 88 81 77 86 88 90 89 81 70 77 71 72 80 77 75 70 55 46 45 45 45 46 49 55 58 53 50 52 58 64 67 71 76 73 67 62 63 62
87 81 82 85 88 92 84 74 78 87 90 94 98 77 77 72 71 70 72 72 68 59 47 40 42 47 50 52 53 56 58 49 52 58 56 61 72 80 79 72 67 63 69
78 83 77 79 88 85 78 77 85 89 95 96 94 88 81 76 69 70 70 68 68 59 50 46 42 42 49 63 75 74 74 68 56 62 65 78 84 80 79 78 71 68 73
80 69 70 69 77 84 84 84 93 98 97 97 98 93 92 71 66 65 60 64 66 58 43 40 43 43 45 50 56 59 72 75 69 70 69 80 75 52 48 69 78 76 78
78 80 74 73 73 84 87 82 88 83 80 84 86 84 87 90 72 59 59 60 61 63 62 60 50 42 44 45 51 60 63 62 55 64 76 72 62 44 39 44 69 70 78
73 79 82 77 79 75 82 80 82 83 82 82 88 88 92 100 99 75 58 52 53 62 65 63 61 46 44 44 46 48 60 63 60 63 71 67 65 48 38 45 64 75 74
75 77 70 71 74 73 64 68 56 80 85 89 94 95 91 96 100 98 88 80 66 60 61 63 60 60 47 46 42 43 45 54 60 58 60 68 66 67 39 44 68 73 71
74 68 60 60 61 60 56 57 58 67 75 93 99 100 100 92 86 91 87 87 90 80 66 66 66 65 49 45 41 40 42 45 47 60 67 66 70 74 57 41 49 76 80
86 62 65 58 60 65 68 60 68 81 78 80 93 98 99 93 82 78 75 72 72 73 74 70 64 70 64 56 43 42 45 45 44 56 66 72 73 73 71 47 45 80 78
84 90 93 78 81 81 78 79 77 84 82 93 92 97 97 91 92 81 74 74 73 72 67 66 70 69 62 59 49 41 46 48 48 46 68 75 76 75 78 70 50 75 84
97 99 99 99 100 100 99 90 95 99 100 96 93 85 93 94 96 96 99 81 76 73 73 73 71 67 62 55 49 44 44 45 44 46 54 70 78 76 74 72 72 80 86
100 91 100 98 98 98 99 98 98 99 98 97 96 95 99 100 98 98 100 99 93 83 82 80 75 79 72 74 73 56 53 43 42 45 52 66 77 75 75 76 65 79 89
99 100 100 98 97 96 95 93 93 92 94 98 99 99 97 96 96 98 100 99 98 91 95 86 85 77 72 71 70 71 65 48 42 49 60 68 76 71 73 67 68 75 91
96 92 100 98 99 90 98 97 93 98 100 100 99 97 100 99 100 99 93 100 100 100 98 97 81 86 82 81 75 74 74 60 56 52 59 70 77 71 64 61 58 60 67
72 73 79 85 87 89 90 90 92 97 99 100 99 100 100 99 100 100 100 100 100 100 100 98 91 84 89 87 87 81 83 70 62 62 66 69 76 74 70 63 54 65 57
60 58 59 57 48 45 44 46 46 47 58 64 70 78 89 93 97 96 98 100 100 100 100 100 99 94 96 95 91 95 93 84 81 68 76 72 70 71 70 68 72 70 76
31 36 52 70 67 64 59 56 52 68 75 59 38 32 49 47 59 58 78 86 87 96 100 95 96 99 100 100 100 99 92 92 83 84 77 76 79 80 78 75 71 72 79
28 24 22 22 22 24 23 21 22 24 24 27 50 65 51 29 31 56 48 28 69 80 89 98 91 92 98 100 99 100 97 100 93 90 91 92 87 80 79 80 74 74 74
9 8 7 8 7 7 7 8 9 7 6 9 12 20 28 36 29 22 22 29 26 33 36 59 83 87 92 98 100 100 100 100 100 99 98 99 96 96 96 92 80 88 91
10 11 12 13 14 14 18 15 15 12 12 12 15 23 27 38 26 17 16 21 24 24 25 26 32 44 66 80 98 100 100 100 98 97 100 100 100 100 100 99 93 93 94
16 15 14 13 14 16 29 23 14 15 14 14 17 24 25 22 21 28 45 78 72 41 32 31 33 43 62 94 99 99 99 100 98 98 99 94 95 99 94 96 95 98 100
17 16 16 17 17 19 21 26 21 17 17 19 20 24 26 28 40 52 58 50 64 74 91 86 75 93 89 99 99 100 100 99 99 91 98 96 93 90 90 95 88 97 100
18 18 20 21 21 22 24 25 26 25 26 30 40 46 52 60 70 70 70 59 40 35 48 83 92 90 91 86 99 98 98 100 100 99 100 98 99 96 98 98 100 100 100
21 22 22 24 24 27 29 34 40 38 38 42 52 67 76 75 77 76 77 58 48 42 51 50 53 51 50 46 48 86 98 98 98 99 100 100 98 98 99 100 100 100 100
23 24 26 29 34 40 60 84 87 75 72 72 80 82 79 79 82 89 88 78 75 54 50 53 57 54 40 28 31 37 33 64 86 98 96 100 98 99 99 99 99 100 100
29 34 38 49 63 69 75 87 96 98 98 95 94 83 72 84 87 95 91 90 93 82 86 80 47 35 38 42 46 44 66 85 92 92 96 100 100 100 100 97 100 100 100

GFSMA_850_rhum_117.txt.gz
RH
94 88 85 85 85 83 84 80 80 78 81 85 92 89 71 55 62 52 74 79 76 69 63 46 39 40 40 41 42 46 52 49 50 52 62 64 69 73 76 73 67 63 65
87 84 88 86 82 83 83 88 82 79 79 85 90 92 84 67 76 71 68 78 78 75 64 54 44 39 39 44 44 44 48 53 48 48 52 57 60 69 79 79 74 69 65
92 89 86 84 75 82 87 87 87 80 84 92 94 91 85 78 80 74 76 71 70 69 65 57 48 43 40 39 44 55 58 55 60 53 56 56 63 81 84 78 78 76 73
84 86 83 83 78 84 88 94 82 84 87 90 94 95 88 85 78 75 70 71 71 69 64 66 56 50 47 46 45 51 74 72 74 74 58 67 69 82 76 54 49 73 78
78 74 83 80 78 75 72 77 82 87 94 96 97 100 100 98 91 92 77 68 69 69 66 61 55 54 51 48 48 48 50 63 57 63 60 59 68 77 62 47 43 53 71
77 80 76 82 79 76 74 77 83 82 81 80 87 88 88 86 92 90 86 68 65 62 61 59 60 57 55 51 47 49 45 48 56 55 53 53 70 69 61 50 41 71 77
71 85 78 78 80 80 79 86 78 72 64 71 82 80 86 84 86 86 91 92 79 61 59 58 58 60 60 54 56 47 47 44 49 55 57 56 58 64 64 62 37 40 69
79 84 80 78 79 86 84 79 68 64 62 60 66 72 77 90 90 84 82 80 78 78 76 79 68 63 64 65 60 54 49 46 48 55 60 62 61 61 62 61 55 38 58
48 82 83 88 84 85 90 82 65 58 57 65 78 77 96 94 81 80 74 75 73 71 68 73 88 81 70 66 67 61 52 46 47 52 57 62 69 69 67 65 71 48 39
52 78 95 94 86 81 75 68 72 78 83 79 87 86 84 88 83 85 83 78 73 74 71 70 68 70 78 75 68 72 64 50 47 49 54 58 68 67 74 70 73 63 44
86 98 96 90 99 89 91 90 81 88 95 94 91 97 92 93 95 98 99 96 86 83 78 75 73 71 70 66 68 73 72 68 55 52 48 54 59 71 69 75 74 74 67
90 81 85 99 92 99 99 98 92 93 95 97 97 99 99 99 98 95 95 96 95 86 79 82 83 85 85 84 74 66 63 61 57 54 54 59 63 68 66 73 77 77 74
88 75 84 91 87 99 99 99 92 91 91 89 86 86 87 98 98 100 100 96 100 96 85 86 73 72 71 75 78 79 78 75 71 65 56 57 53 63 68 70 71 69 72
89 82 86 86 94 100 99 90 86 88 97 99 96 99 100 100 100 100 100 100 98 99 98 89 85 79 82 84 81 80 79 76 77 78 71 64 63 71 70 67 72 69 71
80 81 69 61 67 76 78 81 80 79 84 90 94 97 99 100 100 100 100 99 100 98 98 95 100 99 100 99 98 95 88 84 85 88 81 77 77 71 65 66 74 73 73
54 61 61 57 50 46 44 46 52 56 58 51 47 44 50 52 75 83 83 77 79 100 98 100 95 98 90 93 95 99 99 95 90 95 94 83 81 78 70 72 79 80 76
28 24 23 23 24 31 43 44 47 55 47 43 52 68 71 66 56 43 40 58 69 60 64 83 90 82 90 94 97 98 99 99 98 100 99 88 86 78 75 78 83 86 84
8 8 8 8 8 8 8 9 11 13 12 10 11 16 16 25 53 70 79 69 30 56 64 65 60 50 52 75 92 98 94 100 100 100 100 100 94 93 75 86 86 89 90
10 11 13 13 12 12 12 12 12 13 12 12 14 14 17 17 15 19 21 38 62 42 28 31 32 30 33 40 68 90 93 98 98 100 100 100 100 91 91 88 95 86 87
11 11 13 14 14 15 21 16 14 13 13 14 16 21 23 27 28 26 33 46 59 50 40 36 32 27 27 31 52 67 81 90 95 99 100 99 98 100 100 100 99 96 100
9 10 11 12 13 14 16 17 21 21 20 20 22 26 28 32 38 48 64 61 56 55 50 52 61 46 40 43 58 80 90 76 83 97 98 100 99 99 100 99 93 91 92
19 20 22 23 25 26 28 29 30 24 23 23 26 37 53 66 72 74 71 64 60 50 45 65 69 66 55 50 45 52 57 78 92 78 97 94 100 97 94 90 91 91 90
21 22 23 24 24 27 28 28 30 34 35 36 41 46 57 69 76 80 80 78 66 54 54 58 58 49 47 40 51 45 40 47 56 61 95 97 98 96 91 86 82 89 92
23 24 25 26 28 31 36 40 52 50 46 46 46 54 66 71 76 82 86 80 69 63 71 73 70 61 60 45 46 54 56 43 42 26 24 90 81 97 88 86 88 87 90
24 27 32 33 36 40 50 61 89 83 78 76 75 72 70 59 60 80 94 91 81 71 72 75 79 72 62 56 50 73 52 74 94 78 44 81 69 96 87 88 96 99 100
25 29 32 38 44 49 58 68 90 93 91 87 80 85 84 78 71 97 97 94 89 82 73 87 80 57 46 46 54 72 84 99 100 99 83 100 99 100 100 79 80 96 100